[[{"header":{"parameterUnit":"m.s-1","parameterCategory":1,"la1":30.6,"la2":29.2853,"lo1":-89.7004,"lo2":-87.6739,"dy":0.0162,"dx":0.0183,"nx":112,"ny":82,"refTime":"2023-04-27T12:00:00:Z","depth":0,"parameterNumber":2,"parameterNumberName":"U-component_of_WINDS"},"data":[0.0,0.0,0.0,0.0,0.0,0.0,0.0,0.0,0.0,0.0,0.0,0.0,0.0,0.0,0.0,0.0,0.0,0.0,0.0,0.0,0.0,0.0,0.0,0.0,0.0,0.0,0.0,0.0,0.0,0.0,0.0,0.0,0.0,0.0,0.0,0.0,0.0,0.0,0.0,0.0,0.0,0.0,0.0,0.0,0.0,0.0,0.0,0.0,0.0,0.0,0.0,0.0,0.0,0.0,0.0,0.0,0.0,0.0,0.0,0.0,0.0,0.0,0.0,0.0,0.0,0.0,0.0,0.0,0.0,0.0,0.0,0.0,0.0,0.0,0.0,0.0,0.0,0.0,0.0,0.0,0.0,0.0,0.0,0.0,0.0,0.0,0.0,0.0,0.0,0.0,-0.8087,-0.8739,-1.0826,-1.2084,-1.1884,-1.073,-0.9828,-0.9271,0.0,0.0,0.0,0.0,0.0,0.0,0.0,0.0,0.0,0.0,0.0,0.0,0.0,0.0,0.0,0.0,0.0,0.0,0.0,0.0,0.0,0.0,0.0,0.0,0.0,0.0,0.0,0.0,0.0,0.0,0.0,0.0,0.0,0.0,0.0,0.0,0.0,0.0,0.0,0.0,0.0,0.0,0.0,0.0,0.0,0.0,0.0,0.0,0.0,0.0,0.0,0.0,0.0,0.0,0.0,0.0,0.0,0.0,0.0,0.0,0.0,0.0,0.0,0.0,0.0,0.0,0.0,0.0,0.0,0.0,0.0,0.0,0.0,0.0,0.0,0.0,0.0,0.0,0.0,0.0,0.0,0.0,0.0,0.0,0.0,0.0,0.0,0.0,0.0,0.0,0.0,0.0,0.0,0.0,0.0,0.0,0.0,0.0,0.0,0.0,0.0,0.0,0.0,0.0,-0.7822,-0.9355,-1.0735,-1.1643,-1.185,-1.1163,-1.0248,-0.9175,0.0,0.0,0.0,0.0,0.0,0.0,0.0,0.0,0.0,0.0,0.0,0.0,0.0,0.0,0.0,0.0,0.0,0.0,0.0,0.0,0.0,0.0,0.0,0.0,0.0,0.0,0.0,0.0,0.0,0.0,0.0,0.0,0.0,0.0,0.0,0.0,0.0,0.0,0.0,0.0,0.0,0.0,0.0,0.0,0.0,0.0,0.0,0.0,0.0,0.0,0.0,0.0,0.0,0.0,0.0,0.0,0.0,0.0,0.0,0.0,0.0,0.0,0.0,0.0,0.0,0.0,0.0,0.0,0.0,0.0,0.0,0.0,0.0,0.0,0.0,0.0,0.0,0.0,0.0,0.0,0.0,0.0,0.0,0.0,0.0,0.0,0.0,0.0,0.0,0.0,0.0,0.0,0.0,0.0,0.0,0.0,0.0,0.0,0.0,0.0,0.0,0.0,0.0,-0.7069,-0.8088,-0.9367,-1.0857,-1.1762,-1.1673,-1.1365,-1.0645,-0.9288,-0.735,0.0,0.0,0.0,0.0,0.0,0.0,0.0,0.0,0.0,0.0,0.0,0.0,0.0,0.0,0.0,0.0,0.0,0.0,0.0,0.0,0.0,0.0,0.0,0.0,0.0,0.0,0.0,0.0,0.0,0.0,0.0,0.0,0.0,0.0,0.0,0.0,0.0,0.0,0.0,0.0,0.0,0.0,0.0,0.0,0.0,0.0,0.0,0.0,0.0,0.0,0.0,0.0,0.0,0.0,0.0,0.0,0.0,0.0,0.0,0.0,0.0,0.0,0.0,0.0,0.0,0.0,0.0,0.0,0.0,0.0,0.0,0.0,0.0,0.0,0.0,0.0,0.0,0.0,0.0,0.0,0.0,0.0,0.0,0.0,0.0,0.0,0.0,0.0,0.0,0.0,0.0,0.0,0.0,0.0,0.0,0.0,0.0,0.0,0.0,0.0,0.0,0.0,-0.779,-0.8726,-0.9767,-1.1596,-1.2535,-1.1896,-1.2218,-1.1603,-0.9772,-0.7609,0.0,0.0,0.0,0.0,0.0,0.0,0.0,0.0,0.0,0.0,0.0,0.0,0.0,0.0,0.0,0.0,0.0,0.0,0.0,0.0,0.0,0.0,0.0,0.0,0.0,0.0,0.0,0.0,0.0,0.0,0.0,0.0,0.0,0.0,0.0,0.0,0.0,0.0,0.0,0.0,0.0,0.0,0.0,0.0,0.0,0.0,0.0,0.0,0.0,0.0,0.0,0.0,0.0,0.0,0.0,0.0,0.0,0.0,0.0,0.0,0.0,0.0,0.0,0.0,0.0,0.0,0.0,0.0,0.0,0.0,0.0,0.0,0.0,0.0,0.0,0.0,0.0,0.0,0.0,0.0,0.0,0.0,0.0,0.0,0.0,0.0,0.0,0.0,0.0,0.0,0.0,0.0,0.0,0.0,0.0,0.0,0.0,0.0,0.0,0.0,0.0,0.0,-0.8645,-0.9762,-1.1447,-1.3248,-1.4044,-1.3316,-1.4174,-1.3623,-1.0956,-0.913,0.0,0.0,0.0,0.0,0.0,0.0,0.0,0.0,0.0,0.0,0.0,0.0,0.0,0.0,0.0,0.0,0.0,0.0,0.0,0.0,0.0,0.0,0.0,0.0,0.0,0.0,0.0,0.0,0.0,0.0,0.0,0.0,0.0,0.0,0.0,0.0,0.0,0.0,0.0,0.0,0.0,0.0,0.0,0.0,0.0,0.0,0.0,0.0,0.0,0.0,0.0,0.0,0.0,0.0,0.0,0.0,0.0,0.0,0.0,0.0,0.0,0.0,0.0,0.0,0.0,0.0,0.0,0.0,0.0,0.0,0.0,0.0,0.0,0.0,0.0,0.0,0.0,0.0,0.0,0.0,0.0,0.0,0.0,0.0,0.0,0.0,0.0,0.0,0.0,0.0,0.0,0.0,0.0,0.0,0.0,0.0,0.0,0.0,0.0,0.0,0.0,0.0,-0.9134,-1.0628,-1.2255,-1.3974,-1.4962,-1.476,-1.5198,-1.4519,-1.219,0.0,0.0,0.0,0.0,0.0,0.0,0.0,0.0,0.0,0.0,0.0,0.0,0.0,0.0,0.0,0.0,0.0,0.0,0.0,0.0,0.0,0.0,0.0,0.0,0.0,0.0,0.0,0.0,0.0,0.0,0.0,0.0,0.0,0.0,0.0,0.0,0.0,0.0,0.0,0.0,0.0,0.0,0.0,0.0,0.0,0.0,0.0,0.0,0.0,0.0,0.0,0.0,0.0,0.0,0.0,0.0,0.0,0.0,0.0,0.0,0.0,0.0,0.0,0.0,0.0,0.0,0.0,0.0,0.0,0.0,0.0,0.0,0.0,0.0,0.0,0.0,0.0,0.0,0.0,0.0,0.0,0.0,0.0,0.0,0.0,0.0,0.0,0.0,0.0,0.0,0.0,0.0,0.0,0.0,0.0,0.0,0.0,0.0,0.0,0.0,0.0,0.0,-0.8302,-0.9856,-1.1662,-1.3407,-1.5107,-1.6156,-1.6212,-1.6303,-1.5575,-1.3639,0.0,0.0,0.0,0.0,0.0,0.0,0.0,0.0,0.0,0.0,0.0,0.0,0.0,0.0,0.0,0.0,0.0,0.0,0.0,0.0,0.0,0.0,0.0,0.0,0.0,0.0,0.0,0.0,0.0,0.0,0.0,0.0,0.0,0.0,0.0,0.0,0.0,0.0,0.0,0.0,0.0,0.0,0.0,0.0,0.0,0.0,0.0,0.0,0.0,0.0,0.0,0.0,0.0,0.0,0.0,0.0,0.0,0.0,0.0,0.0,0.0,0.0,0.0,0.0,0.0,0.0,0.0,0.0,0.0,0.0,0.0,0.0,0.0,0.0,0.0,0.0,0.0,0.0,0.0,0.0,0.0,0.0,0.0,0.0,0.0,0.0,0.0,0.0,0.0,0.0,0.0,0.0,0.0,0.0,0.0,0.0,0.0,0.0,0.0,0.0,0.0,0.0,-0.9134,-1.0859,-1.2854,-1.5129,-1.6861,-1.7833,-1.7643,-1.7578,-1.6935,0.0,0.0,0.0,0.0,0.0,0.0,0.0,0.0,0.0,0.0,0.0,0.0,0.0,0.0,0.0,0.0,0.0,0.0,0.0,0.0,0.0,0.0,0.0,0.0,0.0,0.0,0.0,0.0,0.0,0.0,0.0,0.0,0.0,0.0,0.0,0.0,0.0,0.0,0.0,0.0,0.0,0.0,0.0,0.0,0.0,0.0,0.0,0.0,0.0,0.0,0.0,0.0,0.0,0.0,0.0,0.0,0.0,0.0,0.0,0.0,0.0,0.0,0.0,0.0,0.0,0.0,0.0,0.0,0.0,0.0,0.0,0.0,0.0,0.0,0.0,0.0,0.0,0.0,0.0,0.0,0.0,0.0,0.0,0.0,0.0,0.0,0.0,0.0,0.0,0.0,0.0,0.0,0.0,0.0,0.0,0.0,0.0,0.0,0.0,0.0,0.0,0.0,0.0,-1.1546,-1.293,-1.4775,-1.74,-1.7322,-1.7466,-1.8293,-1.7413,-1.6472,-1.5683,0.0,0.0,0.0,0.0,0.0,0.0,0.0,0.0,0.0,0.0,0.0,0.0,0.0,0.0,0.0,0.0,0.0,0.0,0.0,0.0,0.0,0.0,0.0,0.0,0.0,0.0,0.0,0.0,0.0,0.0,0.0,0.0,0.0,0.0,0.0,0.0,0.0,0.0,0.0,0.0,0.0,0.0,0.0,0.0,0.0,0.0,0.0,0.0,0.0,0.0,0.0,0.0,0.0,0.0,0.0,0.0,0.0,0.0,0.0,0.0,0.0,0.0,0.0,0.0,0.0,0.0,0.0,0.0,0.0,0.0,0.0,0.0,0.0,0.0,0.0,0.0,0.0,0.0,0.0,0.0,0.0,0.0,0.0,0.0,0.0,0.0,0.0,0.0,0.0,0.0,0.0,0.0,0.0,0.0,0.0,0.0,0.0,0.0,0.0,0.0,0.0,0.0,-1.2691,-1.4308,-1.6235,-1.8484,-1.7821,-1.7624,-1.8614,-1.7357,-1.6332,-1.5856,0.0,0.0,0.0,0.0,0.0,0.0,0.0,0.0,0.0,0.0,0.0,0.0,0.0,0.0,0.0,0.0,0.0,0.0,0.0,0.0,0.0,0.0,0.0,0.0,0.0,0.0,0.0,0.0,0.0,0.0,0.0,0.0,0.0,0.0,0.0,0.0,0.0,0.0,0.0,0.0,0.0,0.0,0.0,0.0,0.0,0.0,0.0,0.0,0.0,0.0,0.0,0.0,0.0,0.0,0.0,0.0,0.0,0.0,0.0,0.0,0.0,0.0,0.0,0.0,0.0,0.0,0.0,0.0,0.0,0.0,0.0,0.0,0.0,0.0,0.0,0.0,0.0,0.0,0.0,0.0,0.0,0.0,0.0,0.0,0.0,0.0,0.0,0.0,0.0,0.0,0.0,0.0,0.0,0.0,0.0,0.0,0.0,0.0,0.0,0.0,0.0,0.0,-1.3228,-1.5315,-1.7311,-1.8655,-1.8251,-1.8092,-1.8561,-1.7302,-1.6283,-1.5813,0.0,0.0,0.0,0.0,0.0,0.0,0.0,0.0,0.0,0.0,0.0,0.0,0.0,0.0,0.0,0.0,0.0,0.0,0.0,0.0,0.0,0.0,0.0,0.0,0.0,0.0,0.0,0.0,0.0,0.0,0.0,0.0,0.0,0.0,0.0,0.0,0.0,0.0,0.0,0.0,0.0,0.0,0.0,0.0,0.0,0.0,0.0,0.0,0.0,0.0,0.0,0.0,0.0,0.0,0.0,0.0,0.0,0.0,0.0,0.0,-1.2228,-1.101,0.0,0.0,0.0,0.0,0.0,0.0,0.0,0.0,0.0,0.0,0.0,0.0,0.0,0.0,0.0,0.0,0.0,0.0,0.0,0.0,0.0,0.0,0.0,0.0,0.0,0.0,0.0,0.0,0.0,0.0,0.0,0.0,0.0,0.0,0.0,0.0,0.0,0.0,0.0,0.0,-1.591,-1.7016,-1.812,-1.9414,-1.8573,-1.7885,-1.7861,-1.7034,-1.6069,-1.5074,-1.4489,0.0,0.0,0.0,0.0,0.0,0.0,0.0,0.0,0.0,0.0,0.0,0.0,0.0,0.0,0.0,0.0,0.0,0.0,0.0,0.0,0.0,0.0,0.0,0.0,0.0,0.0,0.0,0.0,0.0,0.0,0.0,0.0,0.0,0.0,0.0,0.0,0.0,0.0,0.0,0.0,0.0,0.0,0.0,0.0,0.0,0.0,0.0,0.0,0.0,0.0,0.0,0.0,0.0,0.0,0.0,0.0,0.0,0.0,0.0,-1.5464,-1.4402,0.0,0.0,0.0,0.0,0.0,0.0,0.0,0.0,0.0,0.0,0.0,0.0,0.0,0.0,0.0,0.0,0.0,0.0,0.0,0.0,0.0,0.0,0.0,0.0,0.0,0.0,0.0,0.0,0.0,0.0,0.0,0.0,0.0,0.0,0.0,0.0,0.0,0.0,0.0,0.0,-1.7322,-1.8734,-1.9904,-2.0523,-1.9454,-1.8541,-1.8092,-1.7119,-1.6023,-1.487,-1.4705,0.0,0.0,0.0,0.0,0.0,0.0,0.0,0.0,0.0,0.0,0.0,0.0,0.0,0.0,0.0,0.0,0.0,0.0,0.0,0.0,0.0,0.0,0.0,0.0,0.0,0.0,0.0,0.0,0.0,0.0,0.0,0.0,0.0,0.0,0.0,0.0,0.0,0.0,0.0,0.0,0.0,0.0,0.0,0.0,0.0,0.0,0.0,0.0,0.0,0.0,0.0,0.0,0.0,-1.8355,-1.8999,-1.9385,-1.9316,-1.9325,-1.9342,-1.8662,-1.8421,-1.8374,-1.6093,0.0,0.0,0.0,0.0,0.0,0.0,0.0,0.0,0.0,0.0,0.0,0.0,0.0,0.0,0.0,0.0,0.0,0.0,0.0,0.0,0.0,0.0,-1.4077,-1.5179,-1.6503,-1.6725,-1.3825,0.0,0.0,0.0,0.0,0.0,0.0,0.0,0.0,0.0,0.0,0.0,-1.819,-2.0134,-2.1387,-2.1176,-2.0244,-1.9209,-1.8215,-1.7159,-1.6023,-1.487,-1.5107,-1.4531,0.0,0.0,0.0,0.0,0.0,0.0,0.0,0.0,0.0,0.0,0.0,0.0,0.0,0.0,0.0,0.0,0.0,0.0,0.0,0.0,0.0,0.0,0.0,0.0,0.0,0.0,0.0,0.0,0.0,0.0,0.0,0.0,0.9213,0.5483,0.0,0.0,0.0,0.0,0.0,0.0,0.0,0.0,0.0,0.0,0.0,0.0,0.0,-1.4621,-1.6423,-1.6854,-1.8156,-2.0372,-2.0721,-2.1456,-2.2505,-2.215,-2.2179,-2.2485,-2.2026,0.0,-1.8554,-1.785,0.0,0.0,0.0,0.0,0.0,0.0,0.0,0.0,0.0,0.0,0.0,0.0,0.0,0.0,0.0,0.0,0.0,0.0,0.0,0.0,0.0,0.0,-1.7567,-1.7521,-1.8258,-1.8848,-1.8445,-1.7397,-1.6654,-1.7016,-1.6198,-1.5446,0.0,0.0,0.0,0.0,0.0,0.0,-1.9335,-2.0686,-2.107,-1.9968,-1.9682,-1.8834,-1.6949,-1.6581,-1.6023,-1.487,-1.4834,-1.4592,-1.4004,-1.2983,0.0,0.0,0.0,0.0,0.0,0.0,0.0,0.0,0.0,0.0,0.0,0.0,0.0,0.0,0.0,0.0,0.0,0.0,0.0,0.0,0.0,0.0,0.0,0.0,0.0,0.0,0.0,0.0,0.0,1.0357,0.7797,0.2527,-0.081,-0.1794,0.0,0.0,0.0,0.0,0.0,0.0,0.0,0.0,0.0,-1.5612,-1.5362,-1.6413,-1.9025,-1.8611,-1.969,-2.2138,-2.2221,-2.2589,-2.3047,-2.2214,-2.1951,-2.2022,-2.1219,-2.0156,-1.9082,-1.8725,-1.8308,-1.7549,0.0,0.0,0.0,0.0,-1.2215,-1.1946,-1.3095,-1.3553,-1.3658,-1.4017,0.0,0.0,0.0,0.0,0.0,0.0,0.0,-1.3787,-1.5173,-1.6561,-1.7812,-1.9126,-1.9476,-1.9425,-1.92,-1.8355,-1.7826,-1.8555,-1.8067,-1.7541,-1.7278,-1.6698,0.0,0.0,0.0,-1.9007,-1.9426,-2.0375,-2.0674,-1.9853,-1.9483,-1.8701,-1.7132,-1.6686,-1.6126,-1.5204,-1.4725,-1.4209,-1.3545,-1.2736,-1.2172,0.0,0.0,0.0,0.0,0.0,0.0,0.0,0.0,0.0,0.0,0.0,0.0,0.0,0.0,0.0,0.0,0.0,0.0,0.0,0.0,0.0,0.0,0.0,0.0,0.0,0.0,0.0,0.0,0.862,0.5849,0.0633,-0.3756,-0.5019,0.0,0.0,0.0,0.0,0.0,0.0,-1.4262,-1.4627,-1.534,-1.6791,-1.6257,-1.7435,-2.05,-1.9808,-2.0404,-2.2227,-2.2227,-2.2227,-2.2138,-2.1212,-2.0845,-2.0755,-1.9852,-1.9497,-1.9464,-1.8832,-1.8596,-1.8362,-1.5694,-1.4089,-1.3441,-1.4187,-1.4025,-1.3554,-1.4865,-1.5157,-1.5026,-1.513,-1.4797,-1.4269,-1.4048,0.0,0.0,0.0,0.0,-1.4434,-1.6437,-1.7033,-1.7463,-1.9358,-1.9334,-1.8894,-1.8612,-1.8211,-1.7997,-1.8635,-1.8538,-1.825,-1.7858,-1.7436,0.0,-1.7469,-1.8596,-1.9477,-1.9477,-2.0151,-2.0336,-1.9647,-1.9111,-1.8316,-1.7144,-1.6523,-1.5979,-1.541,-1.4628,-1.3846,-1.3009,-1.2445,-1.1732,-1.0989,0.0,0.0,0.0,0.0,0.0,0.0,0.0,0.0,0.0,0.0,0.0,0.0,0.0,0.0,0.0,0.0,0.0,0.0,0.0,0.0,0.0,0.0,0.0,0.0,0.0,0.0,0.0,0.0,0.0,0.0323,-0.2437,0.0,0.0,0.0,0.0,-0.9602,-1.1294,-1.2533,-1.3061,-1.3308,-1.4637,-1.7094,-1.7452,-1.818,-1.9555,-1.948,-1.9579,-1.967,-1.967,-1.967,-1.9679,-1.9579,-1.9579,-1.9588,-1.9497,-1.9497,-1.9372,-1.7923,-1.7334,-1.7124,-1.5576,-1.4943,-1.4814,-1.4623,-1.4696,-1.4986,-1.5807,-1.5566,-1.5183,-1.6494,-1.6027,-1.4917,-1.4903,-1.4689,0.0,0.0,-1.535,-1.5952,-1.6152,-1.6747,-1.7309,-1.7415,-1.7432,-1.744,-1.7423,-1.735,-1.735,-1.7374,-1.71,-1.6905,-1.7307,0.0,-1.78,-1.8168,-1.9154,-1.987,-1.987,-2.0292,-2.0081,-1.8776,-1.8321,-1.7563,-1.6276,-1.5713,-1.5468,-1.541,-1.4628,-1.3846,-1.3009,-1.222,-1.1573,-1.0989,-0.9187,0.0,0.0,0.0,0.0,0.0,0.0,0.0,0.0,0.0,0.0,0.0,0.0,0.0,0.0,0.0,0.0,0.0,0.0,0.0,0.0,0.0,0.0,0.0,0.0,0.0,0.0,0.0,0.0,-0.3505,-0.657,0.0,-0.9378,-1.0509,-1.1798,-1.3631,-1.3465,-1.406,-1.5951,-1.6162,-1.6904,-1.8656,-1.8072,-1.8326,-1.9497,-1.8772,-1.8772,-1.9497,-1.9497,-1.9497,-1.9488,-1.868,-1.8319,-1.8319,-1.7483,-1.7109,-1.7109,-1.6535,-1.6765,-1.7375,-1.5895,-1.5244,-1.5231,-1.5124,-1.515,-1.5342,-1.5776,-1.5695,-1.5564,-1.5645,-1.5397,-1.493,-1.4736,-1.4736,-1.4863,-1.5164,-1.515,-1.5317,-1.6191,-1.6354,-1.6437,-1.7172,-1.6677,-1.6036,-1.6036,-1.5313,-1.4678,-1.488,-1.5546,-1.6288,-1.7155,-1.6612,-1.6337,-1.7147,-1.7732,-1.801,-1.801,-1.8566,-1.8614,-1.7916,-1.767,-1.7226,-1.6184,-1.5486,-1.4976,-1.4647,-1.3576,-1.2734,-1.2274,-1.1602,-1.0846,-0.9928,-0.8674,-0.7923,0.0,0.0,0.0,0.0,0.0,0.0,0.0,0.0,0.0,0.0,0.0,0.0,0.0,0.0,0.0,0.0,0.0,0.0,0.0,0.0,0.0,0.0,0.0,0.0,0.0,-0.1563,-0.4514,-0.7789,-1.0031,-1.1461,-1.1766,-1.2654,-1.3768,-1.5015,-1.4733,-1.5136,-1.6929,-1.7037,-1.7404,-1.8218,-1.749,-1.7397,-1.8211,-1.749,-1.749,-1.8211,-1.8211,-1.8211,-1.8211,-1.7397,-1.7037,-1.7037,-1.6204,-1.5832,-1.5832,-1.5832,-1.6236,-1.6872,-1.5851,-1.5538,-1.5538,-1.5538,-1.5478,-1.5411,-1.5504,-1.5605,-1.5605,-1.5117,-1.4963,-1.493,-1.473,-1.481,-1.5003,-1.5197,-1.4897,-1.473,-1.5609,-1.5526,-1.5296,-1.6041,-1.5464,-1.475,-1.475,-1.3961,-1.3267,-1.346,-1.4288,-1.5255,-1.6101,-1.5687,-1.5536,-1.6245,-1.6681,-1.685,-1.672,-1.7027,-1.7056,-1.6726,-1.6501,-1.6132,-1.5501,-1.4872,-1.439,-1.3944,-1.2822,-1.2141,-1.2116,-1.1053,-1.0211,-0.9526,-0.8245,-0.731,-0.6655,0.0,0.0,0.0,0.0,0.0,0.0,0.0,0.0,0.0,0.0,0.0,0.0,0.0,0.0,0.0,0.0,0.0,0.0,0.0,0.0,0.0,0.0,0.0,-0.4818,-0.5953,-0.8132,-1.222,-1.2324,-1.1975,-1.1713,-1.3025,-1.398,-1.3974,-1.514,-1.5832,-1.5832,-1.5832,-1.5832,-1.5832,-1.5832,-1.5832,-1.5832,-1.5832,-1.5832,-1.5832,-1.5832,-1.5832,-1.5832,-1.5832,-1.5832,-1.5832,-1.5832,-1.5832,-1.5832,-1.573,-1.5571,-1.5345,-1.5718,-1.573,-1.5717,-1.573,-1.5551,-1.5259,-1.498,-1.506,-1.5239,-1.4953,-1.486,-1.4867,-1.486,-1.486,-1.4874,-1.4874,-1.4661,-1.4429,-1.4429,-1.4216,-1.3997,-1.3997,-1.3765,-1.3546,-1.3546,-1.3394,-1.3186,-1.3193,-1.3427,-1.3721,-1.4008,-1.4963,-1.5613,-1.5591,-1.6188,0.0,-1.6177,-1.5823,-1.547,-1.5196,-1.4772,-1.4418,-1.4131,-1.3966,-1.3737,-1.3371,-1.2652,-1.2349,-1.2617,-1.0661,-0.9632,-0.9858,-0.7922,-0.6553,-0.5871,0.0,0.0,0.0,0.0,0.0,0.0,0.0,0.0,0.0,0.0,0.0,0.0,0.0,0.0,0.0,0.0,0.0,0.0,0.0,0.0,0.0,-0.5079,-0.6253,-0.6037,-1.0145,-1.3356,-1.3749,-1.4594,-1.5093,-1.5038,-1.5358,-1.5564,-1.5261,-1.5629,-1.5832,-1.5832,-1.5832,-1.5832,-1.5832,-1.5832,-1.5832,-1.5832,-1.5832,-1.5832,-1.5832,-1.5832,-1.5832,-1.5832,-1.5832,-1.5832,-1.5832,-1.5832,-1.5832,-1.573,-1.4752,-1.4417,-1.4456,-1.5406,-1.5113,-1.4096,-1.4291,-1.372,-1.2731,-1.2664,-1.257,-1.2528,-1.2282,-1.2322,-1.2433,-1.226,-1.2327,-1.2467,-1.2467,-1.2831,-1.3079,-1.228,-1.2447,-1.2766,-1.2766,-1.2419,-1.2333,-1.316,-1.2919,-1.2619,-1.2832,-1.312,-1.3353,-1.3434,-1.4042,-1.4421,-1.3985,-1.4611,-1.5042,-1.4781,-1.5097,-1.527,-1.5242,-1.5072,-1.4866,-1.4435,-1.3644,-1.3022,-1.2531,-1.1961,-1.1572,-1.1448,-1.0591,-0.9701,-0.8664,-0.772,-0.7372,0.0,0.0,0.0,0.0,0.0,0.0,0.0,0.0,0.0,0.0,0.0,0.0,0.0,0.0,0.0,0.0,0.0,0.0,0.0,0.0,0.0,0.0,-0.9192,-1.1072,-1.0219,-1.318,-1.5375,-1.5301,-1.543,-1.5464,-1.5464,-1.4869,-1.434,-1.419,-1.4657,-1.5045,-1.5045,-1.5534,-1.5832,-1.5832,-1.5832,-1.5832,-1.5832,-1.5832,-1.5832,-1.5825,-1.5242,-1.5045,-1.4949,-1.4465,-1.4178,-1.4178,-1.4178,-1.4178,-1.4082,-1.3397,-1.3041,-1.2953,0.0,0.0,0.0,0.0,-1.2315,-1.1548,-1.1364,-1.1334,-1.1276,-1.0967,-1.0977,-1.1059,-1.0931,-1.0982,-1.1084,-1.1084,-1.1519,-1.1767,-1.1066,-1.1229,-1.1552,-1.1552,-1.1183,-1.0997,-1.165,-1.1396,-1.1073,-1.1298,-1.1636,0.0,-1.1672,-1.2926,-1.3748,-1.328,-1.3666,-1.3931,-1.3686,-1.3532,-1.3499,-1.3353,-1.3339,-1.3208,-1.2825,-1.2711,0.0,0.0,0.0,-1.095,-0.9856,-0.9329,0.0,0.0,0.0,-0.7179,-0.8121,-0.8881,0.0,0.0,-1.0016,-1.1312,0.0,0.0,0.0,0.0,0.0,0.0,0.0,0.0,0.0,0.0,0.0,0.0,0.0,0.0,0.0,0.0,-1.3184,-1.6632,-1.5395,-1.4883,-1.5137,-1.6345,-1.527,-1.4295,-1.4097,-1.2795,-1.1975,-1.1853,-1.3006,-1.368,-1.368,-1.4758,0.0,0.0,0.0,-1.5343,-1.5343,-1.5343,-1.5343,-1.5343,-1.4172,-1.368,-1.3584,-1.2431,-1.1945,-1.1945,-1.1945,-1.1945,-1.1848,-1.1726,-1.1404,-1.1143,-1.151,-1.1614,-1.1623,-1.1182,-1.1067,-1.0968,-1.0576,0.0,0.0,-1.0323,-1.0178,-1.0178,-1.0178,-1.0178,-1.0178,-1.0178,-1.0265,-1.0351,-1.0265,-1.0351,-1.0438,-1.0438,-1.0016,-0.9776,-0.9857,-0.96,-0.9296,-0.9296,-0.9625,-0.9762,-0.9566,-1.1611,-1.3114,-1.2803,-1.2831,-1.2726,-1.2426,-1.1538,-1.09,-1.0663,-1.064,0.0,-1.0321,-1.1272,-1.1683,-1.1106,-1.1047,-1.017,-0.8205,-0.7595,-0.6832,-0.5915,-0.5933,-0.6512,-0.7608,-0.8607,-0.9814,-1.1194,-1.1379,-1.2173,0.0,0.0,0.0,0.0,0.0,0.0,0.0,0.0,0.0,0.0,0.0,0.0,0.0,0.0,0.0,-1.2908,-1.3663,-1.4234,-1.5205,-1.4338,-1.4028,-1.5196,-1.4934,-1.4263,-1.3041,-1.254,-1.2142,-1.196,-1.2139,-1.2334,-1.2334,-1.2528,-1.2624,-1.2624,-1.2624,-1.2624,-1.2624,-1.2624,-1.2624,-1.2624,-1.2431,0.0,-1.2237,-1.2042,-1.1945,-1.1945,-1.1945,-1.1945,-1.1838,-1.0697,-0.9556,-0.856,-0.9493,-1.0014,-1.0249,-0.887,-0.8363,-0.8314,-0.8147,-0.8001,-0.7878,-0.776,-0.7749,-0.7749,-0.7749,-0.7749,0.0,-0.7749,-0.8448,-0.8973,-0.8009,-0.8536,-0.9235,-0.9235,-0.8852,-0.881,-0.9695,-0.96,-0.9296,-0.9296,-0.9509,-0.967,-0.9541,-1.0303,-1.0799,-1.0295,-1.0315,-1.0312,-0.9997,-0.9813,-0.9646,-0.9599,-0.9593,-0.9578,-0.9531,-0.9373,-0.9281,-0.912,-0.907,-0.8548,-0.7504,-0.7264,-0.6996,-0.6717,-0.6929,-0.7442,-0.8406,-0.898,-0.99,-1.12,-1.2289,-1.3577,0.0,0.0,0.0,0.0,0.0,0.0,0.0,0.0,0.0,0.0,0.0,-0.5089,-0.7814,0.0,-1.1531,-1.2789,-1.3281,-1.3754,-1.4407,-1.3972,-1.3671,-1.4087,-1.3425,-1.2511,-1.1681,-1.087,-1.0298,-1.0015,-1.0668,-1.0978,-1.0979,-1.1556,-1.1945,-1.1945,-1.1945,-1.1945,-1.1945,-1.1945,-1.1945,-1.1848,-1.1263,-1.0974,-1.0974,-1.0288,-0.9998,-0.9998,-0.9998,-0.9998,-0.9891,-0.9217,-0.8506,-0.7909,-0.842,-0.8695,-0.8656,-0.7935,-0.7502,-0.737,-0.737,-0.7272,-0.7139,-0.7139,-0.7139,-0.7139,-0.7139,-0.7139,-0.7139,-0.7139,-0.7499,-0.7856,-0.7231,-0.7588,-0.8009,-0.7918,-0.7701,-0.7569,-0.8124,-0.7973,-0.7783,-0.7783,-0.7926,-0.8049,-0.8045,-0.8277,-0.8662,-0.9409,-0.9529,-0.9423,-0.9311,-0.875,-0.8384,-0.8384,-0.8384,-0.8384,-0.8384,-0.8533,-0.8578,-0.8531,-0.7909,-0.7368,-0.6997,-0.6515,-0.6248,-0.6264,-0.6414,-0.6917,-0.792,-0.8231,-0.909,-1.0384,-1.1109,-1.2552,0.0,0.0,0.0,0.0,0.0,0.0,0.0,-0.3309,-0.686,-0.8414,-0.8435,-0.8299,-0.8546,-0.984,-1.1031,-1.118,-1.246,-1.3292,-1.3226,-1.2981,-1.2698,-1.2422,-1.1576,-1.075,-1.0352,-0.9205,-0.8357,-0.8062,-0.9172,-0.9791,-0.9616,-1.0583,-1.1165,-1.1165,-1.1175,-1.1175,-1.1175,-1.1175,-1.1179,-1.1082,-1.01,-0.9612,-0.962,-0.8531,-0.8028,-0.8007,-0.7974,-0.7974,-0.7994,-0.7967,-0.7957,-0.7943,-0.779,-0.7665,-0.766,-0.756,-0.7397,-0.72,-0.7299,-0.7251,-0.7058,-0.7061,-0.7061,-0.7061,-0.7061,-0.7061,-0.7061,-0.7061,-0.7074,-0.6992,-0.652,-0.6779,-0.7105,-0.6973,-0.68,-0.6634,-0.6505,-0.6366,-0.6264,-0.6338,-0.6352,-0.6441,-0.6468,-0.6451,-0.699,-0.8668,-0.8817,-0.8694,-0.8694,-0.7868,-0.724,-0.7208,-0.72,-0.7175,-0.7106,-0.7677,-0.7984,-0.7837,-0.6937,-0.6461,-0.6461,-0.5752,-0.542,-0.5545,-0.5576,-0.6058,-0.6954,-0.7062,-0.7829,-0.915,-0.9254,-1.0712,0.6872,0.5546,0.3001,0.06,-0.0,-0.0,0.0,-0.0416,-0.2268,-0.7081,-0.8471,-0.8766,-0.8578,-0.9989,-1.108,-1.1101,-1.1249,-1.138,-1.1358,-1.0268,-0.9393,-0.9375,-1.0297,-1.0331,-0.8909,-0.8584,-0.8357,-0.8062,-0.8282,-0.8404,-0.8244,-0.8333,-0.8432,-0.8432,-0.845,-0.8464,-0.8464,-0.8464,-0.8468,-0.8478,-0.8251,-0.8251,-0.8182,-0.8052,-0.7991,-0.799,-0.7832,-0.7733,-0.7828,-0.7699,-0.7655,-0.7746,-0.7506,-0.7639,-0.7915,-0.7594,-0.7373,-0.7329,-0.7231,-0.7098,-0.7084,-0.7094,-0.7098,-0.7098,-0.7098,-0.7098,-0.7098,-0.7098,-0.7098,-0.6643,-0.4554,-0.5566,-0.709,-0.707,-0.6843,-0.6704,-0.6592,-0.6465,-0.6274,-0.6264,-0.6352,-0.6325,-0.6451,-0.6369,-0.6404,-0.6766,-0.6741,-0.6644,-0.6644,-0.6549,-0.6332,-0.619,-0.6176,-0.6068,-0.5797,-0.5898,-0.5888,-0.5726,-0.5631,-0.5557,-0.5557,-0.5425,-0.5439,-0.5403,-0.5525,-0.5599,-0.562,-0.5898,-0.6554,-0.7747,-0.7768,-0.9219,0.8574,0.756,0.63,0.5229,0.3739,0.2638,0.2653,0.1371,-0.0421,-0.2899,-0.477,-0.6676,-0.8659,-0.9446,-0.9842,-0.9865,-0.9928,-1.007,-0.9865,-0.9307,-0.8866,-0.8866,-0.9429,-0.9446,-0.8655,-0.8713,-0.8611,-0.8337,-0.8347,-0.8326,-0.7982,-0.7969,-0.7969,-0.7969,-0.7979,-0.7263,-0.5732,-0.5632,-0.6448,-0.7989,-0.6437,-0.6439,-0.7989,-0.6337,-0.5674,-0.5779,-0.7219,-0.7767,-0.7712,-0.7753,-0.7732,-0.7533,-0.6034,-0.5503,-0.5812,-0.684,-0.7268,-0.7168,-0.7115,-0.6183,-0.5095,-0.5097,-0.5099,-0.5099,-0.5099,-0.5099,-0.5099,-0.5099,-0.6017,-0.657,-0.42,-0.3255,-0.3285,-0.4699,-0.4989,-0.4851,-0.4622,-0.5448,-0.6288,-0.6281,-0.6281,-0.6298,-0.6359,-0.6318,-0.6302,-0.6359,-0.6308,-0.6268,-0.6281,-0.6197,-0.6022,-0.5653,-0.5704,-0.5725,-0.5599,-0.5589,-0.5525,-0.5439,-0.5428,-0.5428,-0.5428,-0.5369,-0.5372,-0.5379,-0.4408,-0.4436,-0.5413,-0.5477,-0.5785,-0.6272,-0.6429,-0.7516,1.0029,0.9528,0.9542,0.9342,0.7472,0.5638,0.5705,0.4191,0.248,0.142,-0.0549,-0.2981,-0.547,-0.6231,-0.649,-0.6502,-0.7124,-0.75,-0.7299,-0.7519,-0.7639,-0.7639,-0.7714,-0.7345,-0.627,-0.7138,-0.7621,-0.7243,-0.7302,-0.7255,-0.6926,-0.6879,-0.6859,-0.6859,-0.7585,-0.7074,-0.5135,-0.3618,-0.4225,-0.6877,-0.4931,-0.5016,-0.6822,-0.4148,-0.3323,-0.4069,-0.5303,-0.6136,-0.6579,-0.6695,-0.7169,-0.75,-0.5639,-0.4547,-0.4207,-0.5689,-0.6198,-0.6192,-0.6834,-0.6014,-0.4385,-0.304,-0.2592,-0.2592,-0.2592,-0.2592,-0.2592,-0.2592,-0.3855,-0.4766,-0.3042,-0.1315,-0.0428,-0.2188,-0.2624,-0.2556,-0.2275,-0.3443,-0.4706,-0.5335,-0.5416,-0.5416,-0.5416,-0.5416,-0.5655,-0.6224,-0.5774,-0.5662,-0.6234,-0.5657,-0.5287,-0.5481,-0.5497,-0.5535,-0.5532,-0.5532,-0.5464,-0.5308,-0.5342,-0.5397,-0.5315,-0.5401,-0.5415,-0.5401,-0.3631,-0.3113,-0.3921,-0.4403,-0.4897,-0.5395,-0.5631,-0.6205,1.2218,1.2284,1.2178,1.1513,0.991,0.8575,0.8742,0.8719,0.7853,0.4918,0.3381,0.2488,0.2564,0.0898,-0.0451,-0.0333,-0.1887,-0.3227,-0.3226,-0.4015,-0.4583,-0.4583,-0.4585,-0.3462,-0.0557,-0.294,-0.448,-0.415,-0.4455,-0.4526,-0.413,-0.4158,-0.4117,-0.4117,-0.6673,-0.7922,-0.7918,-0.2718,-0.1511,-0.4151,-0.4026,-0.4088,-0.4034,-0.1322,-0.1496,-0.3887,-0.1367,-0.174,-0.4071,-0.3821,-0.5456,-0.7926,-0.7299,-0.5782,-0.3969,-0.4059,-0.395,-0.402,-0.6302,-0.7045,-0.6221,-0.1616,-0.009,-0.009,-0.009,-0.009,-0.009,-0.009,-0.018,-0.018,-0.009,-0.0087,-0.0,-0.0084,-0.0081,-0.0079,-0.0078,-0.0157,-0.0782,-0.2812,-0.3202,-0.3202,-0.3202,-0.3202,-0.3915,-0.6002,-0.4545,-0.3933,-0.6013,-0.4493,-0.3848,-0.5623,-0.5562,-0.5396,-0.5386,-0.5386,-0.5315,-0.5148,-0.5287,-0.5315,-0.5088,-0.5305,-0.5401,-0.5373,-0.3622,-0.1862,-0.0193,-0.1929,-0.3708,-0.5392,-0.5398,-0.5616,1.3551,1.3667,1.3689,1.273,1.2056,1.1751,1.1828,1.1315,1.0221,0.7886,0.6966,0.6605,0.6605,0.6182,0.5856,0.5934,0.5322,0.4241,0.2228,0.18,0.1692,0.1452,0.1478,0.1827,0.2908,0.0224,-0.1438,-0.1384,-0.1486,0.0105,0.3766,0.394,0.3115,0.1402,0.0401,-0.0,-0.0,0.1706,0.2096,0.1085,0.107,0.0193,-0.1345,-0.0374,-0.0463,-0.1304,-0.0363,-0.0543,-0.1371,-0.1262,-0.1802,-0.2632,-0.2433,-0.1977,-0.0989,0.2243,0.3408,0.2953,-0.0986,-0.0358,0.2598,0.4224,0.3678,0.2413,0.2413,0.2413,0.2413,0.2413,0.1253,-0.0,-0.0,-0.0,-0.0,-0.0,-0.0,-0.0,-0.0,-0.0,-0.024,-0.0943,-0.1019,-0.1019,-0.1019,-0.3377,-0.5021,-0.432,-0.2359,-0.2316,-0.582,-0.3256,-0.1247,-0.1907,-0.2965,-0.362,-0.3618,-0.4706,-0.5365,-0.5311,-0.513,-0.4598,-0.3547,-0.4716,-0.5395,-0.542,-0.243,-0.0631,-0.0,-0.0643,-0.1833,-0.3668,-0.4833,-0.5487,1.6183,1.6357,1.6493,1.5451,1.4983,1.4641,1.4121,1.3136,1.1937,1.0732,1.0278,1.0071,1.0015,1.0134,1.023,1.0166,0.9865,0.9201,0.7555,0.7709,0.7522,0.641,0.6155,0.6052,0.6051,0.4352,0.3088,0.3008,0.2024,0.2936,0.634,0.7522,0.7181,0.5534,0.5432,0.5432,0.5432,0.5298,0.5134,0.4844,0.4843,0.4043,0.2538,0.1656,0.1277,0.1277,0.1262,0.1254,0.1254,0.1254,0.1254,0.1254,0.1254,0.1254,0.1613,0.4757,0.6391,0.6576,0.2599,0.3317,0.6025,0.685,0.6109,0.483,0.483,0.483,0.483,0.483,0.3755,0.2324,0.1519,0.1321,0.1302,0.1302,0.1281,0.1252,0.1142,0.1226,0.1221,0.1103,0.1104,0.1108,0.1099,-0.1245,-0.2614,-0.1198,0.0074,-0.0218,-0.36,-0.1666,-0.0,-0.0,-0.1073,-0.1743,-0.174,-0.2815,-0.373,-0.4381,-0.4847,-0.4568,-0.3381,-0.343,-0.3487,-0.3472,-0.1166,-0.0,-0.0,-0.0,-0.0587,-0.1806,-0.4228,-0.546,1.9717,2.0186,2.037,1.936,1.843,1.7377,1.6037,1.4657,1.3685,1.3567,1.328,1.2911,1.2795,1.2805,1.274,1.2432,1.1831,1.1607,1.2361,1.2949,1.2346,0.9868,0.9328,0.9151,0.9075,0.9078,0.891,0.8659,0.5901,0.421,0.4236,0.6619,0.7989,0.7985,0.7985,0.7985,0.7985,0.7746,0.7405,0.7158,0.7111,0.7132,0.7027,0.4782,0.3749,0.3749,0.3749,0.3749,0.3749,0.3749,0.3749,0.3749,0.3749,0.3751,0.3844,0.3749,0.5193,0.6834,0.4559,0.3748,0.4107,0.637,0.7101,0.7098,0.7098,0.7098,0.7098,0.7098,0.7101,0.6554,0.4376,0.3785,0.3819,0.3819,0.3759,0.3677,0.3348,0.3555,0.3645,0.3317,0.3264,0.3289,0.3294,0.3062,0.2838,0.2842,0.2836,0.2161,0.035,0.0137,0.0135,0.0135,0.0067,-0.0,-0.0,-0.0,-0.072,-0.248,-0.4175,-0.4877,-0.4282,-0.1535,-0.0,-0.0,-0.0,-0.0,-0.0,-0.0,-0.0065,-0.0201,-0.3558,-0.519,1.9505,2.0091,2.0555,2.0522,2.0567,2.0499,2.0192,1.9869,1.8854,1.6568,1.589,1.5034,1.2765,1.2572,1.2663,1.2607,1.2705,1.2866,1.3038,1.3272,1.3108,1.2374,0.0,1.2243,1.2214,1.1227,1.0454,1.0152,0.8295,0.7171,0.725,0.7743,0.7969,0.7952,0.7952,0.7952,0.7952,0.7805,0.7657,0.7513,0.7362,0.7238,0.7055,0.6468,0.618,0.6189,0.6189,0.6189,0.6189,0.6189,0.6189,0.6189,0.6189,0.634,0.6509,0.6308,0.67,0.7238,0.6468,0.6166,0.6269,0.6907,0.7078,0.7064,0.7064,0.7064,0.7064,0.7064,0.7078,0.6999,0.6361,0.6248,0.6231,0.6231,0.6207,0.6147,0.6108,0.602,0.5879,0.5779,0.5592,0.5454,0.55,0.5231,0.4927,0.4745,0.47,0.4074,0.2235,0.202,0.2011,0.2011,0.0804,-0.0,-0.0,-0.0,-0.0201,-0.0659,-0.109,-0.1321,-0.1123,-0.0418,-0.0,-0.0,-0.0,-0.0,-0.0,-0.0,-0.0719,-0.2008,-0.1607,-0.282,2.1025,2.1704,2.2159,2.1698,2.1944,2.211,2.1512,2.1288,2.0611,1.8895,1.8294,1.762,1.5888,1.5326,1.5181,1.5065,1.5003,1.5076,1.5186,1.5125,1.4962,0.0,1.4218,1.3948,1.3378,1.2426,1.1745,1.1631,0.9568,0.83,0.8191,0.8102,0.7952,0.8038,0.8038,0.8007,0.794,0.7851,0.7706,0.7499,0.7411,0.7295,0.7071,0.7071,0.7074,0.7081,0.7081,0.7081,0.7081,0.7081,0.7081,0.7081,0.7081,0.7224,0.7379,0.7193,0.7214,0.7275,0.7177,0.7061,0.7071,0.7071,0.7061,0.7139,0.7139,0.7139,0.7139,0.7139,0.7061,0.7071,0.7071,0.7074,0.7081,0.7081,0.7081,0.7044,0.699,0.692,0.6873,0.6743,0.651,0.6281,0.6281,0.6088,0.5832,0.5617,0.554,0.5173,0.403,0.3887,0.3892,0.3892,0.295,0.1742,0.0134,-0.0,-0.0,-0.0,-0.0,-0.0,-0.0,-0.0,-0.0,-0.0,-0.0,-0.0,-0.0,-0.0,-0.052,-0.1515,-0.2135,-0.2613,2.3037,2.373,2.405,2.2907,2.2917,2.291,2.1718,2.1181,2.0849,2.0704,2.0342,2.0102,1.9874,1.9216,1.8604,1.8459,0.0,1.7695,1.7789,1.7709,1.7308,1.6402,1.6033,1.5327,1.4201,1.3662,1.3195,1.3095,1.051,0.8745,0.8279,0.8244,0.8137,0.8038,0.8038,0.7977,0.7841,0.7841,0.7692,0.74,0.74,0.7312,0.7139,0.7228,0.7316,0.7312,0.7489,0.7573,0.7573,0.7573,0.7573,0.7573,0.7573,0.7602,0.7634,0.7591,0.7514,0.7457,0.7503,0.7489,0.7316,0.7139,0.7139,0.7139,0.7139,0.7139,0.7139,0.7139,0.7139,0.7139,0.7139,0.7139,0.7139,0.7139,0.7139,0.7105,0.6983,0.7021,0.7007,0.6749,0.6464,0.6338,0.6338,0.6132,0.5983,0.585,0.5796,0.5681,0.5423,0.541,0.5413,0.5393,0.5393,0.4097,0.1004,0.0469,0.0266,-0.0,-0.0,-0.0,-0.0,-0.0,-0.0,-0.0,-0.0,-0.0,-0.0,-0.0,-0.0,-0.0065,-0.3193,-0.3159,2.3367,2.3506,2.3806,2.3625,2.3842,2.414,2.3851,2.3794,0.0,2.2003,2.1692,2.1173,1.9829,1.9597,1.9724,2.015,2.0006,1.9626,1.8984,1.976,1.9861,0.0,1.9373,1.9628,1.8636,1.6803,1.5386,1.4503,1.2653,1.1089,0.992,0.9685,0.9118,0.8038,0.8038,0.8028,0.8001,0.7997,0.7851,0.756,0.756,0.7414,0.7139,0.8101,0.8627,0.8627,0.9575,1.0005,1.0005,1.0005,1.0005,1.0005,1.0005,1.0219,1.0481,1.0133,0.9602,0.9196,0.9772,0.9405,0.8452,0.7404,0.7139,0.7139,0.7139,0.7139,0.7139,0.7139,0.7139,0.7139,0.7139,0.7139,0.7139,0.7139,0.7139,0.7132,0.7109,0.6932,0.6763,0.6712,0.6464,0.6338,0.6338,0.6132,0.602,0.5993,0.5783,0.5606,0.5555,0.5552,0.5508,0.5379,0.5376,0.5176,0.4495,0.308,0.1603,0.0067,-0.0,-0.0,-0.0,-0.0,-0.0,-0.0,-0.0,-0.0,-0.0,-0.0,-0.0,-0.0,-0.0664,-0.1412,2.5062,2.4722,2.4819,2.5413,2.5228,2.4966,2.4966,0.0,0.0,2.2843,2.2537,2.2292,2.1535,2.109,0.0,2.1225,2.0741,2.0249,1.9838,2.0345,2.0435,1.9862,2.0176,2.0297,2.0074,1.8927,1.7761,1.6623,1.5692,1.4074,1.1213,1.1025,1.0681,1.0092,0.9998,0.9947,0.9845,0.9271,0.9144,0.9537,0.8706,0.8659,0.9194,0.9625,0.9749,0.9836,1.0351,1.0611,1.0611,1.0611,1.0611,1.0611,1.0611,1.0742,1.0904,1.0691,1.0392,1.0093,1.0507,1.0269,0.9662,0.9139,0.8532,0.8013,0.8013,0.7577,0.7228,0.7841,0.7577,0.7228,0.7841,0.8013,0.8013,0.8013,0.8448,0.8678,0.7903,0.8102,0.8294,0.8201,0.7964,0.7859,0.7859,0.7782,0.7684,0.766,0.7415,0.702,0.6429,0.6333,0.6067,0.5442,0.5432,0.5372,0.5379,0.4631,0.3754,0.2883,0.1045,-0.0,-0.0,-0.0,-0.0,-0.0,-0.0,-0.0,-0.0,-0.0,-0.0,-0.0,-0.0,-0.0471,2.6637,2.6092,2.5862,2.679,2.628,2.5614,2.5614,2.5231,2.4542,2.3627,2.3299,2.3135,2.3135,2.2509,2.2108,0.0,2.1468,2.0848,2.0724,2.0872,2.0976,2.0841,2.0814,2.0763,2.0933,2.0498,1.9755,1.8537,1.8198,1.6307,1.2533,1.2042,1.1945,1.1945,1.1945,1.1763,1.1577,1.0724,1.0626,1.1349,1.0168,1.0153,1.1184,1.1133,1.1142,1.1189,1.1262,1.1419,1.1462,1.1413,1.1391,1.1391,1.1391,1.1419,1.1456,1.1408,1.1246,1.111,1.1322,1.1214,1.1042,1.1305,1.0443,0.9235,0.9235,0.8623,0.8009,0.8973,0.8623,0.8097,0.9061,0.9235,0.9235,0.9235,0.9923,1.0292,0.907,0.9363,0.9792,0.9577,0.9366,0.9296,0.9296,0.9296,0.922,0.9061,0.8907,0.8379,0.719,0.6971,0.6491,0.5505,0.5428,0.5432,0.5372,0.5376,0.5379,0.5389,0.2759,0.096,0.0497,0.0181,-0.0,-0.0,-0.0,-0.0,-0.0,-0.0,-0.0,-0.0,-0.0,-0.0,2.7012,2.6423,2.6456,2.6539,2.6467,2.6373,2.6373,0.0,2.4787,2.4713,2.38,2.3135,2.3135,2.2998,2.3144,0.0,2.2891,2.2242,2.1888,2.2503,2.282,2.2429,0.0,2.3249,2.2768,2.1829,2.0767,1.9813,1.8442,1.6567,1.3872,1.2522,1.1945,1.1945,1.1945,1.1935,1.1818,1.1721,1.1707,1.167,1.1556,1.144,1.1506,1.226,1.2727,1.3027,1.3521,1.3887,1.4102,1.3841,1.3737,1.3737,1.3737,1.3893,1.4089,1.3835,1.328,1.2738,1.3474,1.3033,1.2328,1.3385,1.226,1.0438,1.0438,1.0351,1.0265,1.0438,1.0351,1.0265,1.0438,1.0438,1.0438,1.0438,1.0524,1.0464,1.008,0.9935,0.9792,0.9577,0.9366,0.9296,0.9296,0.9296,0.9215,0.8905,0.8709,0.8219,0.7031,0.6785,0.635,0.5495,0.5428,0.5428,0.5428,0.5428,0.5369,0.5379,0.5096,0.4025,0.205,0.0685,-0.0,-0.0,-0.0,-0.0,-0.0,-0.0,-0.0,-0.0,-0.0,-0.0,3.0866,2.9874,2.9095,2.9791,2.8457,2.7069,2.7383,0.0,2.5998,2.4978,2.4457,2.3796,2.2889,2.2764,2.2812,2.2998,2.2734,2.2781,2.3593,2.3398,2.334,2.389,2.3555,2.3248,2.3123,2.2608,2.1919,2.0785,1.9579,1.8295,1.7338,1.5393,1.4274,1.4274,1.4123,1.4039,1.4039,1.3128,1.3077,1.3876,1.29,1.2785,1.3568,1.3749,1.3767,1.3822,1.4381,1.4482,1.4262,1.4322,1.4249,1.4088,1.4088,1.4162,1.4249,1.4128,1.3894,1.3623,1.3952,1.3822,1.347,1.3913,1.3476,1.2601,1.1815,1.1123,1.0783,1.1466,1.1123,1.0783,1.1466,1.1638,1.1638,1.1638,1.2169,1.2403,1.1232,1.1479,1.1769,1.1252,1.1166,1.1099,1.1099,1.0966,1.0828,1.0713,1.0339,0.9485,0.803,0.7631,0.692,0.5557,0.5428,0.5428,0.5428,0.5428,0.5428,0.5369,0.5422,0.5019,0.4182,0.3379,0.203,0.0062,-0.0,-0.0,-0.0,-0.0,-0.0,-0.0,-0.0,-0.0,3.3221,3.2206,3.1328,3.2364,3.0392,2.8369,0.0,0.0,2.6971,2.6008,2.5176,2.4336,2.3217,2.2656,2.2324,2.2324,2.2324,2.2874,2.4441,2.3931,2.3957,2.5296,2.4511,2.3786,2.3807,2.3378,2.2589,2.1382,2.0477,1.9852,1.9497,1.7848,1.6929,1.6929,1.6536,1.6281,1.5922,1.4792,1.4618,1.5391,1.4134,1.4142,1.5084,1.4783,1.4543,1.4362,1.4596,1.4516,1.4222,1.4342,1.4269,1.4088,1.4088,1.4088,1.4088,1.4088,1.4088,1.4088,1.4088,1.4088,1.4088,1.4088,1.4088,1.3913,1.3112,1.2254,1.1821,1.2595,1.2248,1.1821,1.2595,1.2851,1.2851,1.2851,1.347,1.3748,1.2339,1.2632,1.3026,1.2425,1.2305,1.2305,1.2305,1.2058,1.1837,1.175,1.1316,1.0422,0.887,0.8254,0.7442,0.5947,0.5557,0.5428,0.5428,0.5428,0.5428,0.5428,0.5401,0.5389,0.5343,0.5123,0.3934,0.1556,0.1058,0.0822,0.0783,0.0783,0.0791,0.0807,0.0807,0.0543,3.2667,3.2607,3.2745,3.3425,3.1974,3.0507,3.1048,2.9126,2.7454,2.7977,2.5987,2.4198,2.4198,2.297,2.1894,2.1894,2.1894,2.2436,2.3981,2.4209,2.4868,2.6812,2.6151,2.553,2.5406,2.3984,2.2589,2.1382,2.1293,2.0755,1.9579,1.9497,1.9497,1.9497,1.9052,1.8232,1.7153,1.6751,1.6149,1.5398,1.5391,1.5391,1.5384,1.509,1.4957,1.4923,1.4349,1.4255,1.4496,1.4208,1.4088,1.4088,1.4088,1.4088,1.4088,1.4088,1.4088,1.4088,1.4088,1.4088,1.4088,1.4088,1.4088,1.4088,1.4088,1.4088,1.4088,1.4088,1.4088,1.4088,1.4088,1.4088,1.4088,1.4088,1.4088,1.3928,1.334,1.3206,1.3026,1.2425,1.2305,1.2305,1.2305,1.2058,1.177,1.1476,1.1182,1.0555,0.9438,0.8549,0.7632,0.6785,0.5947,0.5428,0.5428,0.5428,0.5428,0.5428,0.5425,0.5291,0.5138,0.5272,0.5279,0.5081,0.3462,0.2666,0.2676,0.2676,0.2676,0.2678,0.2678,0.1723,3.4942,3.4468,3.3704,3.3908,3.1917,2.997,2.9945,2.9346,2.8224,2.6349,2.5598,2.4649,2.2524,2.1757,2.1338,2.1035,2.124,2.1869,2.316,2.3166,2.3825,2.5995,2.5546,2.4693,2.3904,2.3388,2.295,2.258,2.2492,2.2403,2.1952,2.1952,2.1096,1.9036,1.8682,1.8441,1.8321,1.7746,1.7147,1.6624,1.6109,1.5476,1.4796,1.4703,1.4549,1.4376,1.4589,1.4509,1.4229,1.4342,1.4269,1.4088,1.4088,1.4088,1.4088,1.4088,1.4088,1.4088,1.4088,1.4088,1.4088,1.4088,1.4088,1.4088,1.4088,1.4088,1.4088,1.4088,1.4088,1.4041,1.3834,1.3781,1.3734,1.3534,1.3487,1.338,1.2979,1.306,1.3026,1.2425,1.2465,1.2545,1.2338,1.1897,1.153,1.1443,1.1009,1.0399,0.9414,0.9075,0.8549,0.7697,0.6789,0.6075,0.5425,0.5428,0.5428,0.5428,0.5428,0.5342,0.5291,0.536,0.5363,0.5304,0.4835,0.4527,0.4573,0.4573,0.4573,0.4573,0.4573,0.359,0.0,3.5,3.4742,3.4927,3.2877,0.0,3.079,2.9916,2.8518,2.6494,2.5615,2.4434,2.174,2.0601,1.9998,1.9316,1.9878,2.0926,2.222,2.2818,2.3805,2.548,2.5171,2.4407,2.3243,2.2965,2.2832,2.2676,2.2812,2.2832,2.2676,2.2969,2.2072,1.978,1.9901,1.986,1.9562,1.8837,1.8168,1.7679,1.704,1.636,1.5698,1.5275,1.4935,1.4678,1.4642,1.4429,0.0,1.4282,1.4249,1.4088,1.4088,1.4088,1.4088,1.4088,1.4088,1.4088,1.4088,1.4088,1.4088,1.4088,1.4412,1.4734,1.4734,1.4412,1.4088,1.4088,1.4088,1.4015,1.3721,1.3559,1.3492,1.328,1.3213,1.3126,1.2889,1.2899,1.2893,1.2398,1.2452,1.2518,1.2338,1.1911,1.1557,1.1443,1.1022,1.0553,0.9868,0.953,0.9075,0.8549,0.7437,0.6461,0.5943,0.5624,0.5428,0.5428,0.5428,0.5428,0.5428,0.5428,0.5393,0.5457,0.5457,0.5488,0.5549,0.5494,0.544,0.5382,0.5386,0.48,0.0,3.4156,3.5498,3.6094,3.428,3.2392,0.0,0.0,0.0,2.767,2.571,2.3536,2.1342,1.955,1.8,1.7044,1.8145,1.9627,2.1105,2.2919,2.4431,2.5264,2.5002,2.4336,2.3283,2.2845,2.2463,2.207,2.2404,2.2453,2.1977,2.2703,2.25,2.1318,2.2051,2.1997,2.0893,2.0126,1.9274,1.846,1.8103,1.7846,1.7762,1.6661,1.6064,1.5786,1.4734,1.4334,1.4334,1.4334,1.4334,1.4334,1.4334,1.4334,1.4334,1.4334,1.4334,1.4334,1.4334,1.4334,1.4334,1.4334,1.4977,1.5779,1.5779,1.5137,1.4334,1.4334,1.4334,1.4266,1.396,1.3797,1.3804,1.3512,1.3423,1.3335,1.2986,1.2988,1.2886,1.2385,1.2405,1.2399,1.2305,1.2058,1.1777,1.1496,1.1189,1.0895,1.0692,0.9926,0.9402,0.9402,0.7892,0.685,0.6785,0.5947,0.5428,0.5428,0.5428,0.5428,0.5428,0.5428,0.543,0.5569,0.5586,0.565,0.5769,0.5647,0.5511,0.5428,0.5372,0.5386,2.6989,0.0,3.3351,3.3497,3.3036,3.2061,0.0,0.0,0.0,0.0,0.0,2.1945,1.9175,1.7698,1.6809,1.6428,1.7369,1.8419,1.8957,2.1449,2.3133,2.2777,2.4089,2.4078,2.189,2.3238,2.3929,2.3031,2.3748,2.3849,2.3031,2.3145,2.2808,2.1738,2.1924,2.1783,2.1115,2.0659,2.0024,1.9339,1.8876,1.8279,1.7384,1.7138,1.7008,1.6927,1.669,1.6527,1.6527,1.6527,1.6527,1.6527,1.6527,1.6527,1.6527,1.6527,1.6527,1.6527,1.6527,1.6527,1.6527,1.6527,1.669,1.6927,1.6927,1.6764,1.6527,1.6527,1.6527,1.6448,1.6166,1.615,1.6055,1.5705,1.5427,1.5059,1.4414,1.463,1.4492,1.2955,1.3236,1.345,1.2486,1.2058,1.1844,1.1777,1.1323,1.0969,1.0902,1.0566,1.0301,1.0301,0.9326,0.842,0.7767,0.6272,0.5428,0.5428,0.5428,0.5428,0.5428,0.5428,0.5446,0.5413,0.5532,0.5549,0.5464,0.5549,0.5511,0.5428,0.5432,0.5382,2.3065,2.7559,3.1731,3.2088,3.2138,3.1619,0.0,0.0,0.0,0.0,0.0,0.0,1.7728,1.669,1.6094,1.5411,1.6049,1.7175,1.8422,2.0498,2.1913,2.2221,2.3277,2.3552,2.2705,2.3742,2.4172,2.348,2.4139,2.4161,2.3403,2.3791,2.353,2.2668,2.24,2.2029,2.1533,2.1094,2.0659,2.0295,1.9963,1.9432,1.8789,1.831,1.8069,1.8069,1.7496,1.7342,1.7342,1.7342,1.7342,1.7317,1.7064,1.6998,1.6982,1.6809,1.6858,1.6998,1.6998,1.7113,1.7342,1.7342,1.7658,1.8069,1.8069,1.839,1.863,1.7577,1.713,1.7029,1.6901,1.6929,1.6838,1.6463,1.6221,1.5988,1.5578,1.5648,1.5258,1.3787,1.3746,1.3586,1.2472,1.2171,1.1977,1.1703,1.1396,1.1096,1.0828,1.0719,1.0624,1.0624,0.9849,0.9139,0.8613,0.7381,0.6276,0.5428,0.5428,0.5428,0.5428,0.5428,0.5463,0.5464,0.5681,0.5718,0.5562,0.5647,0.561,0.5464,0.5463,0.5428,1.9738,2.4792,2.9428,3.0495,3.0933,3.0716,2.9297,0.0,0.0,0.0,0.0,0.0,0.0,1.6313,0.0,1.4914,1.5273,1.6604,1.8903,1.9944,2.0974,2.2324,2.2534,2.2918,2.3668,2.4175,2.4124,2.3553,2.4045,2.4147,2.3654,2.4273,2.4374,2.3537,2.3026,2.259,2.2149,2.1469,2.1133,2.1123,2.0752,2.0566,2.0566,1.9678,1.9283,1.9195,1.823,1.7819,1.7819,1.776,1.7734,1.762,1.7291,1.713,1.7046,1.6707,1.6775,1.708,1.708,1.7333,1.7734,1.7734,1.8426,1.9283,1.9283,1.9797,2.0159,1.8292,1.7581,1.7327,1.7405,1.7483,1.7398,1.7081,1.6953,1.6927,1.6835,1.6521,1.5921,1.4674,1.4332,1.3797,1.2526,1.2445,1.2256,1.1577,1.1456,1.1229,1.0695,1.0651,1.0624,1.0624,0.9913,0.9466,0.9338,0.8619,0.7507,0.5885,0.5818,0.5752,0.5624,0.5491,0.5433,0.5586,0.5833,0.5911,0.58,0.5779,0.5708,0.5586,0.5433,0.5428,1.7451,2.0302,2.3697,2.6272,2.794,2.8508,2.6987,0.0,0.0,0.0,0.0,0.0,0.0,1.6706,1.5774,0.0,1.7547,1.8419,2.01,2.0168,2.0321,2.1333,2.1847,2.2007,2.1664,2.3899,2.4847,2.3414,2.4626,2.5042,2.413,2.4214,2.4059,2.3514,2.3446,2.3375,2.3229,2.1517,2.0664,2.0664,2.0596,2.0566,2.0566,2.0411,2.0323,2.0323,2.0157,2.0079,2.0051,1.9688,1.9459,1.9459,1.9468,1.923,1.8953,1.9239,1.9163,1.8924,1.8924,1.9192,1.9459,1.9459,1.987,2.0323,2.0323,2.0226,2.0012,2.0062,2.0032,1.9984,2.0062,2.0062,2.0042,1.9975,1.9678,1.9212,1.8695,1.8655,1.7972,1.5249,1.5799,1.5744,1.2774,1.2952,1.3114,1.1992,1.159,1.1303,1.0969,1.0715,1.0624,1.0624,1.0498,1.011,0.9338,0.9204,0.8683,0.7637,0.7572,0.7242,0.6523,0.5815,0.5433,0.5586,0.5633,0.5705,0.58,0.5681,0.561,0.5586,0.5433,0.5428,1.5463,1.7694,2.0073,2.1963,2.4563,2.6345,2.5362,0.0,0.0,0.0,0.0,0.0,0.0,0.0,1.8271,1.8995,1.9387,1.9654,1.9756,1.9463,1.9571,2.0469,2.0839,2.1327,2.2315,2.3706,2.4487,2.4523,2.517,2.5523,2.5424,2.5142,2.4876,2.461,2.4132,2.386,2.386,2.2731,2.1897,2.1375,2.0867,2.0566,2.0566,2.0566,2.0566,2.0557,2.0312,2.0215,2.0185,1.9746,1.958,1.9551,1.9316,1.9102,1.8984,1.9414,1.9453,1.9316,1.9551,1.9756,1.9912,1.9912,2.0215,2.0566,2.0566,2.042,2.0312,2.0508,2.0391,2.0273,2.0508,2.0566,2.0566,2.0566,2.041,2.0101,1.9591,1.9418,1.8689,1.651,1.6549,1.6085,1.3477,1.3382,1.3273,1.2053,1.1757,1.1503,1.1049,1.0875,1.0735,1.0645,1.0624,1.0428,1.004,0.9977,0.9454,0.8091,0.8027,0.7827,0.7437,0.6985,0.6836,0.6927,0.6963,0.6781,0.6371,0.6299,0.6062,0.5586,0.5433,0.5428,1.4058,1.5878,1.7607,1.8827,2.1749,2.4253,2.3986,0.0,0.0,0.0,0.0,0.0,0.0,2.0493,2.0807,2.099,2.1105,2.0893,2.0153,1.9515,1.9579,2.0514,2.0552,2.1296,2.3227,2.3513,2.3981,2.4931,2.5259,2.5548,2.5862,2.5699,2.5598,2.5598,2.5037,2.4767,2.4767,2.414,2.3368,2.2328,2.1375,2.0934,2.0934,2.0712,2.0508,2.0391,2.0059,1.9853,1.9746,1.9424,1.9228,1.9111,1.8877,1.873,1.8601,1.9014,1.9131,1.9199,1.9619,1.9834,1.9912,1.9912,2.0215,2.0566,2.0566,2.0566,2.0566,2.0566,2.0322,2.0146,2.0478,2.0566,2.0566,2.0566,2.0566,2.0478,2.0137,1.9736,1.9033,1.7743,1.7286,1.6378,1.4221,1.3935,1.3561,1.2124,1.187,1.1683,1.1162,1.1096,1.0982,1.0695,1.0661,1.0661,1.0661,1.0665,1.0066,0.8755,0.8447,0.8291,0.8291,0.8091,0.7987,0.8038,0.8092,0.773,0.6936,0.6912,0.6427,0.5586,0.5433,0.5428,1.3607,1.465,1.6131,1.815,2.0392,0.0,2.2687,2.3478,0.0,2.2807,0.0,0.0,0.0,2.1342,2.2073,2.3056,2.2635,2.2309,2.2643,2.1755,2.1374,2.2238,2.2032,2.2135,2.3056,2.3617,2.3779,2.329,2.428,2.4669,2.4205,2.5071,2.5598,2.5598,2.6045,2.6321,2.6321,2.5346,2.4409,2.3368,2.2403,2.1886,2.1886,2.1011,2.0342,1.9961,1.9922,1.9697,1.9336,1.9297,1.9053,1.8721,1.9092,1.8994,1.8572,1.8672,1.8682,1.874,1.918,1.959,1.9912,1.9912,2.0215,2.0566,2.0566,2.0566,2.0566,2.0566,2.0547,2.0527,2.0557,2.0566,2.0566,2.0566,2.0566,2.0557,2.0527,2.0176,1.9553,1.8595,1.8403,1.7565,1.479,1.4735,1.4403,1.2189,1.187,1.1757,1.1436,1.1396,1.1283,1.0995,1.0962,1.0962,1.0962,1.0715,1.0675,1.0804,0.9792,0.9204,0.9204,0.842,0.8058,0.8203,0.8083,0.7722,0.7057,0.6844,0.6305,0.5586,0.5433,0.5428,1.2979,1.3852,1.502,1.6656,0.0,0.0,0.0,2.2919,2.3262,2.3464,2.3262,0.0,0.0,2.3083,2.4251,2.3815,2.4079,2.4179,2.3626,2.2983,2.2273,2.1504,2.1625,2.193,2.231,2.2578,2.2947,2.3603,2.4067,2.4368,2.4506,2.4569,2.4757,2.5109,2.5322,2.5598,2.5912,2.5921,2.5721,2.5346,2.3062,2.2027,2.1952,2.1001,2.0322,1.9902,1.9639,1.9277,1.8867,1.8603,1.8398,1.8262,1.8428,1.8711,1.9014,1.874,1.8975,1.9414,1.9316,1.9561,1.9912,1.9912,2.0215,2.0566,2.0566,2.0381,2.0156,2.0156,2.0156,2.0225,2.0498,2.0566,2.0566,2.0566,2.0566,2.042,1.9883,1.9844,1.9529,1.8447,1.8389,1.7821,1.5339,1.5039,1.4474,1.2435,1.2138,1.2031,1.1737,1.1703,1.159,1.1289,1.1102,1.0995,1.0995,1.0895,1.0955,1.1243,1.0555,1.011,1.011,0.9779,0.963,0.9669,0.9637,0.9226,0.8487,0.7846,0.7086,0.6301,0.5649,0.5428,1.2321,1.2967,1.3721,0.0,0.0,0.0,2.0997,2.2201,2.2903,2.3609,2.3442,2.2874,2.2051,0.0,2.4671,2.4398,2.484,2.5047,2.45,2.3835,2.2916,2.1679,2.194,2.2275,2.2321,2.2333,2.2701,2.3616,2.3891,2.4092,2.428,2.4268,2.4356,2.4556,2.4732,2.4996,2.5347,2.5749,2.5937,2.5937,2.3544,2.263,2.2914,2.1741,2.0852,2.0196,1.9683,1.9112,1.8428,1.8271,1.8213,1.8213,1.8213,1.8564,1.9082,1.9053,1.9414,1.9893,1.9746,1.9873,2.0117,2.0117,2.0322,2.0537,2.04,2.0146,1.9883,1.9756,1.9717,1.9814,2.0244,2.0469,2.0566,2.0566,2.0566,2.0371,1.9648,1.9707,1.9609,1.8603,1.8535,1.8033,1.6173,1.5735,1.5084,1.3448,1.2952,1.2663,1.2456,1.222,1.1891,1.1597,1.1303,1.1169,1.1263,1.1182,1.1256,1.155,1.1022,1.0735,1.0828,1.0742,1.0759,1.0759,1.0672,1.0174,0.9274,0.842,0.7567,0.6654,0.5818,0.5428,1.1706,1.1772,1.218,0.0,0.0,0.0,1.873,2.1035,2.2805,2.3238,2.2175,2.1284,2.1628,2.2026,2.2954,2.486,2.4722,2.4657,2.54,2.4283,2.3393,2.3393,2.3393,2.3363,2.326,2.327,2.3236,2.3075,2.3665,2.374,2.3103,2.4192,2.4556,2.4017,2.4531,2.4808,2.482,2.4755,2.4755,2.4755,2.3767,2.3902,2.4898,2.3367,2.2024,2.0794,2.018,1.9185,1.8037,1.8457,1.8562,1.8562,1.8562,1.8562,1.8679,1.959,1.9912,1.998,2.041,2.0634,2.0566,2.0566,2.0566,2.0478,2.0049,1.9912,1.9824,1.9404,1.9277,1.9375,1.9795,2.0225,2.0557,2.0566,2.0566,2.0449,2.0,1.9912,1.9785,1.9355,1.8926,1.827,1.7324,1.6838,1.628,1.5376,1.4386,1.3745,1.3673,1.2879,1.2191,1.1904,1.1603,1.155,1.1844,1.1597,1.1557,1.1857,1.1329,1.1129,1.1416,1.1142,1.0995,1.0995,1.0708,1.0174,0.9344,0.842,0.7567,0.6719,0.5815,0.5428,1.1535,1.1675,0.0,1.306,0.0,0.0,0.0,1.9412,0.0,0.0,2.2222,2.1629,2.1379,2.2648,2.3467,2.2695,2.4065,2.4946,2.4321,2.4665,2.4408,2.3017,2.3261,2.3122,2.2142,2.2043,2.2173,2.251,2.2711,2.2899,2.3065,2.3391,2.3753,2.3991,2.4155,2.4431,2.482,2.4198,2.3923,2.3857,2.3568,2.3589,2.3739,2.1989,2.1172,2.1059,2.0228,1.9515,1.8865,1.8408,1.8193,1.8193,1.8193,1.8564,1.9082,1.9033,1.959,2.0352,2.0166,2.0312,2.0566,2.0566,2.0566,2.0478,2.0049,1.9707,1.9385,1.8945,1.8828,1.8857,1.8984,1.9336,1.9814,2.042,2.0566,2.0361,1.9629,1.9707,1.9609,1.8584,1.8516,1.8184,1.696,1.6657,1.628,1.5376,1.495,1.453,1.3818,1.3455,1.2905,1.1968,1.179,1.177,1.1864,1.179,1.1864,1.2151,1.2011,1.1764,1.1436,1.0949,1.0882,1.1289,1.0815,1.0597,1.0464,0.9421,0.8484,0.7567,0.6724,0.6009,1.1416,1.1459,0.0,1.2886,1.3938,1.5198,1.6759,0.0,0.0,0.0,2.2103,2.1782,2.1522,2.2742,2.3386,2.1989,2.3151,2.4012,2.3376,2.3731,2.3626,2.2367,2.2608,2.2485,2.1594,2.1524,2.1644,2.1945,2.2184,2.246,2.2786,2.2699,2.2788,2.3132,2.3145,2.3166,2.3152,2.2946,2.2687,2.2348,2.2348,2.2337,2.2205,2.2014,2.1867,2.177,2.0643,2.0006,1.9759,1.9233,1.8854,1.8539,1.872,1.8953,1.9277,1.918,1.9746,2.0527,2.0264,2.0234,2.0303,2.0303,2.0195,1.998,1.9541,1.9228,1.8936,1.8506,1.8506,1.8562,1.8562,1.8965,1.9463,2.0146,2.0303,2.0117,1.9434,1.9619,1.9541,1.8262,1.835,1.8286,1.7301,1.7157,1.6932,1.6367,1.6009,1.5367,1.445,1.4314,1.4022,1.3256,1.3233,1.3027,1.2677,1.2606,1.2539,1.2291,1.2084,1.1897,1.1777,1.1329,1.1189,1.1423,1.0969,1.0762,1.0822,0.9802,0.9011,0.8484,0.7242,0.6396,1.1682,0.0,0.0,1.3277,1.3892,0.0,1.6659,1.8484,2.013,2.1521,0.0,2.1803,2.1942,2.2555,2.2824,2.2108,2.2188,2.2339,2.2437,2.1959,2.154,2.1445,2.1445,2.1372,2.1251,2.1316,2.13,2.1312,2.1863,2.2259,2.2309,2.2092,2.199,2.1942,2.1942,2.1545,2.0778,2.1483,2.1444,2.0719,2.0719,2.0719,2.0794,2.2769,2.3315,2.2567,2.1296,2.0719,2.0719,2.0655,2.0139,1.9473,1.9817,1.9795,1.9486,1.9846,2.0279,2.0653,2.0585,2.0244,1.9902,1.9873,1.96,1.9209,1.8769,1.8562,1.8555,1.8125,1.8281,1.8584,1.8584,1.8877,1.9277,1.9697,1.9824,1.9746,1.9316,1.9531,1.9443,1.8242,1.832,1.8457,1.8076,1.8008,1.8008,1.8008,1.7285,1.6358,1.5446,1.5305,1.5305,1.5234,1.5234,1.4807,1.3882,1.3745,1.3317,1.2445,1.1797,1.1744,1.2278,1.1971,1.169,1.147,1.1156,1.0862,1.0601,0.9798,0.9402,0.9274,0.7702,0.685,1.355,1.3481,0.0,0.0,1.6848,1.7769,1.8161,1.8369,1.89,2.0549,2.0846,2.1174,2.2075,2.2368,2.2159,2.1142,2.1456,2.142,2.0489,2.0644,2.0476,1.9405,1.9251,1.9064,1.8511,1.8976,1.9539,1.9987,2.1051,2.1857,2.2284,2.2645,2.2625,2.2204,2.2179,2.212,2.193,2.1428,2.1327,2.1616,2.1616,2.1616,2.1628,2.1406,2.1591,2.2044,2.1737,2.1616,2.1553,2.091,2.0462,2.0344,2.0444,2.0577,2.0787,2.05,2.0679,2.0995,2.0266,1.999,1.9853,1.9531,1.9365,1.9209,1.8769,1.8562,1.8555,1.8125,1.8076,1.8144,1.8144,1.8213,1.8389,1.8809,1.917,1.9297,1.8867,1.8848,1.873,1.8125,1.8086,1.8115,1.8027,1.8008,1.8008,1.8008,1.7862,1.7364,1.6428,1.628,1.6,1.5305,1.5234,1.5092,1.4879,1.4171,1.36,1.3382,1.2615,1.2171,1.2298,1.1577,1.1369,1.1764,1.1256,1.0962,1.0902,1.054,0.9977,0.9274,0.8941,0.8027,1.4103,0.0,0.0,1.762,0.0,1.8909,1.8525,1.8212,1.8405,1.9683,2.0333,2.0951,2.2105,2.2309,2.1945,2.084,2.0972,2.0848,1.9888,2.0029,1.9953,1.9233,1.9181,1.8879,1.8167,1.8768,1.9218,1.9173,2.0372,2.1217,2.1506,2.1675,2.1589,2.1308,2.1296,2.1122,2.0688,2.0629,2.0711,2.0857,2.0857,2.1245,2.1877,2.1803,2.2051,2.2445,2.2445,2.2445,2.2445,2.199,2.1553,2.1239,2.1239,2.1206,2.123,2.125,2.1232,2.1199,2.1209,2.0498,1.9615,1.9595,1.9173,1.8633,1.8408,1.833,1.8291,1.8076,1.8154,1.8262,1.8057,1.8154,1.8311,1.833,1.8662,1.8916,1.8682,1.8562,1.8516,1.8086,1.8008,1.8008,1.8008,1.8008,1.8008,1.8008,1.8008,1.7794,1.7354,1.7285,1.7079,1.6585,1.6515,1.6367,1.5939,1.5367,1.4657,1.3745,1.31,1.2659,1.2298,1.173,1.1557,1.1864,1.1289,1.0995,1.0995,1.0701,1.0364,0.9913,0.9466,0.8812,0.0,0.0,1.788,1.926,1.9642,0.0,1.8735,1.8262,1.8269,1.911,2.0009,2.0854,2.1793,2.2043,2.1807,2.0702,2.0514,2.0351,1.9706,1.9592,1.9579,1.9423,1.9423,1.9202,1.8555,1.9202,1.9371,1.8768,1.9941,2.0718,2.0718,2.0531,2.0363,2.028,2.0268,1.9912,1.9202,1.9912,2.017,2.0011,2.0011,2.0714,2.1993,2.2687,2.2977,2.3078,2.3078,2.3078,2.3078,2.3078,2.2689,2.2125,2.2125,2.1875,2.157,2.1936,2.1823,2.1535,2.2176,2.1087,1.9451,1.9737,1.8947,1.8008,1.8008,1.8008,1.8008,1.8008,1.8262,1.8447,1.8105,1.8271,1.8437,1.8096,1.8271,1.8525,1.8525,1.8525,1.8428,1.8076,1.8008,1.8008,1.8008,1.8008,1.8008,1.8008,1.8008,1.8008,1.8008,1.8008,1.8008,1.8008,1.8008,1.7716,1.6922,1.6706,1.586,1.4099,1.3562,1.3013,1.2291,1.1997,1.187,1.187,1.1343,1.1042,1.0995,1.0701,1.0624,1.0561,0.9849,0.949,0.0,0.0,2.0375,0.0,2.103,2.0841,0.0,0.0,1.8269,1.911,2.0009,2.0563,2.0511,2.1117,2.123,2.01,1.9911,1.9666,1.8939,1.8874,1.8608,1.795,1.7907,1.7841,1.7743,1.8394,1.8821,1.8715,1.9941,2.0718,2.0718,2.1124,2.1088,2.0669,2.0657,2.0603,2.0481,2.0603,2.0809,2.123,2.123,2.1584,2.2234,2.2364,2.2686,2.3078,2.3078,2.3078,2.3078,2.3078,2.3017,2.2944,2.2944,2.2921,2.2801,2.2543,2.2379,2.224,2.1643,2.0722,1.9785,1.9473,1.8771,1.8008,1.8008,1.8008,1.8008,1.8008,1.8047,1.8076,1.8027,1.8047,1.8076,1.8018,1.8057,1.8096,1.8096,1.8096,1.8076,1.8018,1.8008,1.8008,1.8008,1.8008,1.8008,1.8008,1.8008,1.8008,1.8008,1.8008,1.8008,1.8008,1.8008,1.794,1.7794,1.707,1.614,1.5092,1.4124,1.315,1.2009,1.1891,1.187,1.187,1.1536,1.1243,1.0995,1.0701,1.0624,1.0624,1.0498,1.0174,1.4793,1.7513,1.9879,0.0,2.1071,2.085,2.038,1.9512,1.8721,1.8596,1.9233,2.0048,2.0557,2.1088,2.123,2.0413,2.0322,2.0245,1.9914,2.0181,2.0243,1.9927,1.9608,1.9206,1.8826,1.9073,1.915,1.8715,1.9658,2.0188,2.0188,2.0413,2.0426,2.0188,2.0188,2.0188,2.0188,2.0188,2.0464,2.1083,2.1343,2.1606,2.1857,2.2171,2.2611,2.3053,2.2811,2.2849,2.3053,2.2799,2.2862,2.3078,2.3078,2.3078,2.314,2.3306,2.2983,2.2509,2.2714,2.1847,2.0563,2.0162,1.9431,1.8664,1.8144,1.8008,1.8008,1.8008,1.8008,1.8008,1.8008,1.8008,1.8008,1.8008,1.8008,1.8008,1.8008,1.8008,1.8008,1.8008,1.8008,1.8008,1.8008,1.8008,1.8008,1.8008,1.8008,1.8008,1.8008,1.8008,1.8008,1.8008,1.8008,1.8008,1.8008,1.7647,1.7001,1.607,1.5579,1.4585,1.2971,1.2892,1.2599,1.1942,1.1577,1.1363,1.1236,1.0942,1.0802,1.0795,1.0698,1.0607,0.0,0.0,1.8185,2.001,2.0284,2.0209,0.0,2.0074,1.9431,1.8787,1.9365,2.0211,2.1099,2.1338,2.1269,2.0966,2.1121,2.1244,2.1244,2.1803,2.2214,2.2214,2.1803,2.1305,2.0746,2.0617,2.0296,1.9728,1.9936,2.0067,2.0012,1.9874,1.9798,1.9798,1.9798,1.9798,1.9798,1.9798,2.0024,2.0504,2.0865,2.1142,2.1292,2.1707,2.2196,2.2698,2.2422,2.2548,2.2899,2.2485,2.2636,2.3078,2.3078,2.3078,2.3128,2.3615,2.3306,2.2766,2.3505,2.2714,2.1269,2.0767,2.0139,1.9431,1.8337,1.8134,1.8269,1.8076,1.8008,1.8008,1.8008,1.8008,1.8076,1.8269,1.8337,1.8269,1.8076,1.8008,1.8008,1.8008,1.8008,1.8008,1.8008,1.8008,1.8008,1.8008,1.8008,1.8008,1.8008,1.8008,1.8008,1.8008,1.8008,1.8008,1.8008,1.8008,1.7579,1.6636,1.6349,1.5466,1.3697,1.3411,1.2884,1.1948,1.165,1.1463,1.1316,1.1022,1.0922,1.0989,1.0768,1.0982,0.0,1.3834,0.0,1.8218,1.8774,0.0,0.0,2.059,2.0526,2.0462,2.1164,2.1803,2.1842,2.139,2.1103,2.1419,2.204,2.2485,2.2485,2.3142,2.3603,2.3603,2.3553,2.3553,2.3502,2.2939,2.2491,2.2379,2.1365,2.0693,2.0643,2.01,1.9798,1.9798,1.9798,1.9798,1.9798,1.9798,1.9823,1.9849,1.9874,2.0175,2.0756,2.0794,2.1054,2.1606,2.2096,2.2334,2.2347,2.2322,2.2636,2.3078,2.3078,2.3078,2.3078,2.3115,2.3115,2.3055,2.3115,2.2604,2.1714,2.0858,2.059,2.0204,1.8529,1.8596,1.9044,1.8202,1.8008,1.8008,1.8008,1.8008,1.8202,1.9044,1.9243,1.8977,1.8212,1.8008,1.8008,1.8008,1.8008,1.8008,1.8008,1.8008,1.8008,1.8008,1.8008,1.8008,1.8008,1.8008,1.8008,1.8008,1.8008,1.8008,1.8008,1.8008,1.7579,1.6636,1.579,1.4662,1.3367,1.2725,1.2237,1.1877,1.1857,1.157,1.1015,1.0722,1.0722,1.0995,1.0982,1.1283,0.0,0.0,0.0,1.4998,1.6694,1.8247,1.9749,2.071,2.1424,2.1933,2.2238,2.2625,2.32,2.2468,2.2035,2.2631,2.2991,2.342,2.3853,2.4531,2.4936,2.4936,2.4581,2.4319,2.4319,2.3758,2.3312,2.3327,2.2893,2.245,2.1955,2.1407,2.0849,2.0404,1.9987,1.9798,1.9798,1.9798,1.9798,1.9798,1.9798,1.9911,2.0125,2.0542,2.0577,2.0439,2.1004,2.1455,2.1807,2.2171,2.2422,2.2636,2.3,2.3078,2.3027,2.2736,2.2611,2.2611,2.2611,2.2421,2.2054,2.1572,2.1195,2.0726,1.9911,1.9673,1.9617,1.9662,1.9299,1.8977,1.9497,1.9233,1.9044,1.9955,2.0139,2.0074,1.9759,1.8787,1.8008,1.8008,1.8008,1.8008,1.8008,1.8008,1.8008,1.8008,1.8008,1.8008,1.8008,1.8008,1.8008,1.8008,1.8008,1.8008,1.8008,1.8008,1.7862,1.7501,1.7148,1.6235,1.456,1.4316,1.3438,1.1942,1.1683,1.1483,1.1269,1.0982,1.0982,1.1269,1.1082,1.141,0.8091,0.0,0.0,0.0,1.469,1.7007,1.8603,2.0511,2.2151,2.2997,2.3425,2.394,2.4691,2.404,2.3529,2.4008,2.4338,2.4718,2.5229,2.5855,2.6273,2.6273,2.5904,2.5678,2.5678,2.5077,2.4668,2.4624,2.4258,2.3784,2.3272,2.2719,2.2007,2.1118,2.045,2.0055,1.9798,1.9623,1.9623,1.9798,1.9623,1.9635,1.9811,2.02,2.0162,1.9836,2.0413,2.092,2.1242,2.1606,2.187,2.2071,2.2435,2.2585,2.2535,2.2171,2.2033,2.2071,2.2246,2.2184,2.2006,2.168,2.1548,2.132,2.0546,2.0409,2.0489,2.0565,2.0204,1.989,2.0462,2.0398,2.0333,2.091,2.1049,2.1049,2.1049,1.9694,1.8462,1.8462,1.8202,1.8008,1.8008,1.8008,1.8008,1.8008,1.8008,1.8008,1.8008,1.8008,1.8008,1.8008,1.8008,1.8008,1.8008,1.8008,1.8008,1.8008,1.7716,1.7001,1.572,1.5021,1.3991,1.2513,1.1864,1.1577,1.1577,1.1082,1.1096,1.1563,1.1276,1.1557,0.0,0.0,0.0,0.0,1.2917,1.5263,1.6973,1.9894,2.2579,2.3734,2.4734,2.5658,2.6256,2.5915,2.5508,2.5508,2.6068,2.651,2.651,2.7152,2.7625,2.7625,2.7625,2.7625,2.7625,2.6991,2.6624,2.652,2.5445,2.4748,2.4551,2.3996,2.3118,2.1885,2.1199,2.0497,1.985,1.9334,1.9271,1.9825,1.9271,1.9296,1.9773,1.9798,1.9798,1.9836,2.0401,2.0693,2.0693,2.0731,2.0991,2.1468,2.1481,2.1493,2.1493,2.1468,2.1468,2.1543,2.2083,2.1907,2.1431,2.1127,2.1592,2.1956,2.0236,2.0777,2.1705,2.0887,2.0643,2.0655,2.0655,2.1302,2.1939,2.1939,2.1939,2.1939,2.1939,2.059,1.9365,1.9365,1.8664,1.8086,1.8076,1.8086,1.8095,1.8008,1.8008,1.8008,1.8008,1.8008,1.8008,1.8008,1.8008,1.8008,1.8008,1.8008,1.8008,1.8008,1.7139,1.6636,1.6636,1.4799,1.3745,1.3673,1.2506,1.1942,1.1877,1.1009,1.1029,1.1864,1.1583,1.1757,0.6523,0.0,0.0,0.0,0.0,0.0,1.576,1.8522,2.1405,2.4354,2.6015,2.7261,2.8341,2.8033,2.7635,2.7635,2.699,2.6669,2.7203,2.7458,2.7625,2.7625,2.7625,2.7625,2.7625,2.741,2.7315,2.7291,2.6965,2.6564,2.5959,2.4469,2.3248,2.2478,2.18,2.1376,2.1183,2.0215,1.9791,1.9934,1.928,1.9058,1.9246,1.9623,1.9798,1.9811,1.9974,2.0037,2.01,2.0928,2.1117,2.0983,2.133,2.1493,2.1443,2.1041,2.0891,2.097,2.1066,2.1071,2.0978,2.1294,2.1263,2.1137,2.1047,2.128,2.1663,2.1809,2.1703,2.1553,2.1553,2.2125,2.2763,2.2763,2.2763,2.2763,2.2763,2.1928,2.0974,2.0333,2.0358,2.0356,1.9944,1.9705,1.9359,1.9029,1.8395,1.8008,1.8008,1.8008,1.8008,1.8008,1.8008,1.8008,1.8008,1.8008,1.8008,1.8008,1.7794,1.7285,1.6636,1.607,1.5155,1.3745,1.3148,1.2678,1.2178,1.151,1.1423,1.187,1.1997,1.2144,0.6009,0.6396,0.0,0.7962,0.0,0.0,1.3476,1.6873,2.047,2.3634,2.6128,2.8138,2.9532,2.9432,2.9055,2.8904,2.8209,2.7685,2.761,2.7625,2.7625,2.7625,2.7625,2.7625,2.7625,2.7625,2.7625,2.7625,2.7625,2.7408,2.6982,2.5596,2.4448,2.3547,2.2865,2.2133,2.1351,2.0438,1.9925,1.9892,1.9285,1.9102,1.9351,1.9671,1.9788,1.9798,1.9798,1.9798,1.9836,2.0275,2.0401,2.0338,2.0665,2.079,2.074,2.0426,2.03,2.0338,2.063,2.0567,2.0401,2.0953,2.0928,2.0781,2.1041,2.1305,2.1606,2.2159,2.2342,2.2384,2.2384,2.2763,2.3078,2.3078,2.3078,2.3078,2.3078,2.2763,2.2125,2.1302,2.1084,2.0992,2.0635,2.0106,1.9681,1.9341,1.8596,1.8008,1.8008,1.8008,1.8008,1.8008,1.8008,1.8008,1.8008,1.8008,1.8008,1.8008,1.8008,1.7725,1.7217,1.6784,1.607,1.4942,1.3978,1.3057,1.2305,1.171,1.1577,1.1877,1.2171,1.2305,0.0,0.0,0.0,0.6679,0.8398,0.0,1.0866,1.4955,1.932,2.1823,2.5069,2.7983,2.9652,2.9831,2.9613,2.9283,2.9291,2.8902,2.7845,2.771,2.7675,2.7625,2.7625,2.7625,2.7625,2.7625,2.7625,2.7625,2.7625,2.7625,2.7625,2.6871,2.5957,2.4854,2.4094,2.2815,2.1035,2.0351,1.9931,1.9803,1.9182,1.9195,1.9693,1.9838,1.985,1.9724,1.9826,1.9826,1.9687,1.9269,1.9371,1.9798,1.9736,1.9748,1.9798,1.9798,1.9798,1.9874,2.0388,2.0238,1.9886,2.0401,2.0618,2.0618,2.0618,2.1004,2.1619,2.2234,2.2761,2.3078,2.3078,2.3078,2.3078,2.3078,2.3078,2.3078,2.3078,2.3078,2.2884,2.2199,2.1474,2.0978,2.0921,2.0183,1.9615,1.9441,1.8721,1.8144,1.8008,1.8008,1.8008,1.8008,1.8008,1.8008,1.8008,1.8008,1.8008,1.8008,1.8008,1.8008,1.8008,1.7207,1.6706,1.6636,1.4657,1.3317,1.2445,1.1777,1.1657,1.1924,1.2184,1.2305,0.5545,0.5589,0.5848,0.6646,0.7158,0.0,1.0104,1.2781,1.576,1.9269,2.2322,2.5063,2.739,2.7807,2.793,2.8306,2.8446,2.8484,2.8338,2.8319,2.814,2.766,2.7625,2.7625,2.7625,2.7625,2.7625,2.7625,2.7625,2.7625,2.7625,2.6437,2.5687,2.5411,2.4238,2.3199,2.2317,2.1265,2.0425,1.9843,1.9197,1.896,1.9092,2.013,2.0053,1.9217,2.0167,2.0067,1.9178,1.9506,1.9703,1.9761,1.9346,1.9434,1.9798,1.9798,1.9798,1.9823,1.9924,1.9899,1.9823,1.9936,1.9974,1.9974,1.9974,2.0677,2.1694,2.2686,2.299,2.3078,2.3078,2.3078,2.3078,2.3078,2.3078,2.3078,2.3078,2.3078,2.3065,2.2884,2.3121,2.3157,2.2702,2.2285,2.1636,2.0518,1.9628,1.8787,1.8076,1.8008,1.8008,1.8008,1.8008,1.8008,1.8008,1.8008,1.8008,1.8008,1.8008,1.8008,1.8008,1.7794,1.7354,1.6627,1.4657,1.36,1.3455,1.2542,1.2158,1.2218,1.2278,1.2305,0.561,0.5607,0.5637,0.6188,0.6198,0.0,0.0,1.0289,1.3237,1.6259,1.9487,2.2369,2.4307,2.5665,2.6548,2.672,2.7322,2.7683,2.7502,2.8341,2.8826,2.8543,2.8222,2.8042,2.8042,2.776,2.7625,2.7625,2.7625,2.7625,2.7625,2.6946,2.6288,2.563,2.4956,2.3834,2.2203,2.1588,2.0803,1.9794,1.9445,1.9276,1.9305,1.995,1.9929,1.9441,2.0052,1.9966,1.94,1.9353,1.9526,1.9756,1.921,1.931,1.9784,1.951,1.9572,1.9798,1.9798,1.9798,1.9798,1.9798,1.9798,1.9798,1.9798,2.0589,2.1606,2.2159,2.2711,2.3078,2.3078,2.3078,2.3078,2.3078,2.3078,2.3078,2.3078,2.3078,2.3078,2.3078,2.3364,2.3477,2.3128,2.2665,2.1922,2.0752,1.9879,1.8977,1.8144,1.8008,1.8008,1.8008,1.8008,1.8008,1.8008,1.8008,1.8008,1.8008,1.8008,1.8008,1.8008,1.8008,1.7579,1.6636,1.5649,1.4657,1.3673,1.3237,1.2732,1.2305,1.2305,1.2305,0.5671,0.5706,0.5724,0.5755,0.5621,0.5543,0.0,0.0,0.0,1.3178,1.6259,1.8995,2.0348,2.249,2.4076,2.417,2.5389,2.6236,2.6043,2.7623,2.8835,2.8837,2.8451,2.8181,2.8304,2.791,2.7625,2.7625,2.7625,2.7625,2.7625,2.7505,2.6841,2.5644,2.548,2.4283,2.1904,2.1754,2.1081,1.9884,1.975,1.9723,1.9695,1.9825,1.9817,1.964,1.985,1.9836,1.9598,1.921,1.9335,1.9739,1.9199,1.9311,1.9732,1.9317,1.9517,1.9977,1.9977,2.0054,2.0181,2.0181,2.0093,1.999,2.0114,2.069,2.138,2.1594,2.2284,2.289,2.2849,2.2975,2.3053,2.294,2.3002,2.304,2.294,2.3002,2.304,2.3,2.2975,2.2952,2.3053,2.2567,2.1815,2.0974,2.0139,1.9233,1.8327,1.8076,1.8008,1.8008,1.8008,1.8008,1.8008,1.8008,1.8047,1.8125,1.8135,1.8135,1.8135,1.8057,1.7647,1.6853,1.6706,1.572,1.3954,1.3818,1.3244,1.2305,1.2305,1.2305,0.582,0.5779,0.5813,0.5949,0.5864,0.592,0.6599,0.0,0.8909,1.045,0.0,1.3672,1.4944,0.0,0.0,1.9724,2.1645,2.3285,2.4115,2.5607,2.6743,2.6904,2.6886,2.7063,2.765,2.7625,2.7625,2.7625,2.7625,2.7625,2.7625,2.7021,2.6363,2.563,2.5046,2.4044,2.2619,2.1994,2.1335,2.0587,1.9974,1.9683,1.9737,2.031,2.0,1.9061,2.0147,1.9982,1.9018,1.9427,1.9642,1.9649,1.9112,1.9287,1.9789,1.9744,2.0112,2.0675,2.0675,2.1049,2.1459,2.1459,2.1099,2.0742,2.1208,2.1041,2.0966,2.1945,2.2309,2.2297,2.1807,2.2397,2.2952,2.2523,2.2774,2.294,2.251,2.2786,2.2987,2.2498,2.2397,2.256,2.299,2.3005,2.2702,2.1877,2.0974,2.0139,1.9233,1.8462,1.8008,1.8008,1.8008,1.8008,1.8008,1.8008,1.8164,1.8545,1.8494,1.8494,1.8494,1.8213,1.794,1.7862,1.7001,1.607,1.5021,1.4099,1.3244,1.2305,1.2305,1.2305,0.5884,0.5882,0.6092,0.6141,0.6009,0.6011,0.6298,0.6533,0.6954,0.8103,0.0,0.0,0.0,0.0,0.0,0.0,1.7401,1.9273,2.0308,2.1747,2.3682,2.6147,2.6816,2.72,2.7595,2.7625,2.7625,2.7625,2.7625,2.7625,2.7625,2.7305,2.6823,2.6077,2.5469,2.4491,2.3111,2.2546,2.1739,2.0722,2.0423,2.0079,1.969,1.9989,1.9834,1.9384,1.9916,1.9834,1.9369,1.9603,1.969,1.9669,1.9461,1.9512,1.9698,1.939,1.9661,2.024,2.024,2.0625,2.1222,2.16,2.152,2.1291,2.112,2.1133,2.1261,2.1327,2.1594,2.1782,2.1543,2.2071,2.2523,2.197,2.2259,2.2585,2.2359,2.2246,2.2209,2.2297,2.2058,2.1907,2.2133,2.2447,2.2464,2.1954,2.1164,2.0268,1.9431,1.8529,1.8008,1.8008,1.8008,1.8008,1.8008,1.8008,1.8184,1.8533,1.8562,1.8562,1.8562,1.8232,1.8008,1.8008,1.7579,1.6932,1.6,1.5579,1.4871,1.3947,1.2806,1.2586,0.5927,0.5947,0.63,0.6218,0.6134,0.6079,0.6037,0.5864,0.5906,0.6476,0.7307,0.0,0.0,0.0,1.1444,1.1632,0.0,1.4732,1.6477,1.798,2.039,2.4566,2.6076,2.7004,2.756,2.7625,2.7625,2.7625,2.7625,2.7625,2.7625,2.7625,2.7315,2.6731,2.6,2.5077,2.3996,2.3147,2.2113,2.0976,2.0797,2.0348,1.969,1.969,1.969,1.969,1.969,1.969,1.969,1.969,1.969,1.969,1.969,1.9701,1.9648,1.9239,1.9487,2.0063,2.0245,2.0739,2.1403,2.1811,2.1834,2.1625,2.1358,2.1319,2.1315,2.1027,2.1104,2.123,2.1066,2.1556,2.1945,2.1393,2.1681,2.2046,2.1895,2.1656,2.1556,2.1807,2.1543,2.1305,2.1455,2.182,2.2085,2.2019,2.1269,2.0434,1.9738,1.8921,1.8269,1.8008,1.8008,1.8008,1.8008,1.8115,1.8359,1.8789,1.8818,1.876,1.8643,1.8232,1.8008,1.8008,1.8125,1.7615,1.6636,1.6675,1.6395,1.5517,1.3682,1.3103,0.5837,0.602,0.6217,0.6061,0.6135,0.6207,0.6057,0.602,0.5973,0.5823,0.5868,0.5868,0.5929,0.7166,0.8364,0.9047,0.881,0.0,0.0,1.4802,1.7163,2.1436,2.3926,2.5898,2.7444,2.7625,2.7625,2.7625,2.7625,2.7625,2.7625,2.7625,2.7576,2.7488,2.6228,2.5561,2.545,2.3618,2.2338,2.1665,2.1021,2.0348,1.969,1.969,1.969,1.969,1.969,1.969,1.969,1.969,1.969,1.969,1.969,1.969,1.972,1.9683,2.0117,2.075,2.1431,2.2073,2.2646,2.2672,2.2246,2.1796,2.236,2.1745,2.0941,2.1457,2.1171,2.0618,1.9999,2.0677,2.138,2.0869,2.1117,2.1368,2.0882,2.1129,2.133,2.0869,2.0756,2.092,2.1393,2.1506,2.1707,2.2201,2.1534,2.0906,2.0598,1.9824,1.8911,1.8076,1.8008,1.8008,1.8008,1.8379,1.8799,1.9238,1.9268,1.9072,1.8652,1.8232,1.8008,1.8008,1.8408,1.79,1.6636,1.6964,1.6955,1.6498,1.487,1.3978,0.5957,0.6027,0.6224,0.6067,0.6146,0.6247,0.6196,0.6101,0.6017,0.5962,0.5952,0.5922,0.582,0.6252,0.678,0.6958,0.7454,0.8494,0.0,1.2734,1.5606,1.9484,2.2602,2.508,2.6707,2.6905,2.7096,2.7595,2.7171,2.7111,2.7595,2.8008,2.8138,2.8015,2.719,2.6667,2.6548,2.4757,2.3268,2.2164,2.1635,2.0782,1.969,1.969,1.969,1.969,1.969,1.969,1.969,1.969,1.969,1.969,1.969,1.969,1.969,1.969,1.9824,2.0124,2.0812,2.1485,2.2088,2.2562,2.2817,2.2849,2.2189,2.1732,2.1237,2.0565,2.0243,2.0049,1.9849,2.0376,2.0803,2.0225,2.0526,2.0891,2.0756,2.0514,2.0426,2.068,2.0351,2.015,2.0338,2.069,2.1255,2.2171,2.1885,2.154,2.1467,2.0719,2.0074,1.9759,1.9177,1.8844,1.8844,1.8725,1.8818,1.9258,1.9014,1.8916,1.9062,1.8652,1.8428,1.8428,1.8848,1.8705,1.791,1.8052,1.7919,1.751,1.6482,1.5591,0.5943,0.6027,0.6224,0.6067,0.6146,0.6338,0.6338,0.6183,0.6125,0.6176,0.6146,0.6098,0.6047,0.6115,0.6129,0.6105,0.6663,0.7584,0.0,1.1816,1.4656,1.7425,2.0734,2.3483,2.548,2.6136,2.6556,2.6797,2.6843,2.7069,2.75,2.8158,2.8669,2.8995,2.7875,2.7373,2.7481,2.5607,2.4021,2.2656,2.2164,2.1212,1.9909,1.9782,1.969,1.969,1.969,1.969,1.969,1.969,1.969,1.969,1.969,1.969,1.969,1.969,1.9839,2.0154,2.0827,2.1335,2.1844,2.2712,2.3131,2.3167,2.2534,2.2072,2.1506,2.0706,2.0131,1.9798,1.9798,2.0075,2.0263,1.9886,2.0087,2.0351,2.0351,2.0062,1.9911,2.0288,2.0062,1.9874,2.0075,2.0577,2.1204,2.1907,2.2002,2.1982,2.1916,2.1591,2.1247,2.0913,2.0223,1.9729,1.9551,1.9211,1.915,1.9277,1.916,1.9014,1.8838,1.8701,1.8562,1.8562,1.8916,1.8916,1.8562,1.8562,1.8418,1.8018,1.7577,1.6617]},{"header":{"parameterUnit":"m.s-1","parameterCategory":1,"la1":30.6,"la2":29.2853,"lo1":-89.7004,"lo2":-87.6739,"dy":0.0162,"dx":0.0183,"nx":112,"ny":82,"refTime":"2023-04-27T12:00:00:Z","depth":0,"parameterNumber":3,"parameterNumberName":"V-component_of_WINDS"},"data":[0.0,0.0,0.0,0.0,0.0,0.0,0.0,0.0,0.0,0.0,0.0,0.0,0.0,0.0,0.0,0.0,0.0,0.0,0.0,0.0,0.0,0.0,0.0,0.0,0.0,0.0,0.0,0.0,0.0,0.0,0.0,0.0,0.0,0.0,0.0,0.0,0.0,0.0,0.0,0.0,0.0,0.0,0.0,0.0,0.0,0.0,0.0,0.0,0.0,0.0,0.0,0.0,0.0,0.0,0.0,0.0,0.0,0.0,0.0,0.0,0.0,0.0,0.0,0.0,0.0,0.0,0.0,0.0,0.0,0.0,0.0,0.0,0.0,0.0,0.0,0.0,0.0,0.0,0.0,0.0,0.0,0.0,0.0,0.0,0.0,0.0,0.0,0.0,0.0,0.0,-3.3048,-3.2053,-3.2831,-3.3201,-3.2651,-3.5096,-3.6048,-3.46,0.0,0.0,0.0,0.0,0.0,0.0,0.0,0.0,0.0,0.0,0.0,0.0,0.0,0.0,0.0,0.0,0.0,0.0,0.0,0.0,0.0,0.0,0.0,0.0,0.0,0.0,0.0,0.0,0.0,0.0,0.0,0.0,0.0,0.0,0.0,0.0,0.0,0.0,0.0,0.0,0.0,0.0,0.0,0.0,0.0,0.0,0.0,0.0,0.0,0.0,0.0,0.0,0.0,0.0,0.0,0.0,0.0,0.0,0.0,0.0,0.0,0.0,0.0,0.0,0.0,0.0,0.0,0.0,0.0,0.0,0.0,0.0,0.0,0.0,0.0,0.0,0.0,0.0,0.0,0.0,0.0,0.0,0.0,0.0,0.0,0.0,0.0,0.0,0.0,0.0,0.0,0.0,0.0,0.0,0.0,0.0,0.0,0.0,0.0,0.0,0.0,0.0,0.0,0.0,-3.08,-3.0839,-3.1399,-3.199,-3.2559,-3.3852,-3.4323,-3.3654,0.0,0.0,0.0,0.0,0.0,0.0,0.0,0.0,0.0,0.0,0.0,0.0,0.0,0.0,0.0,0.0,0.0,0.0,0.0,0.0,0.0,0.0,0.0,0.0,0.0,0.0,0.0,0.0,0.0,0.0,0.0,0.0,0.0,0.0,0.0,0.0,0.0,0.0,0.0,0.0,0.0,0.0,0.0,0.0,0.0,0.0,0.0,0.0,0.0,0.0,0.0,0.0,0.0,0.0,0.0,0.0,0.0,0.0,0.0,0.0,0.0,0.0,0.0,0.0,0.0,0.0,0.0,0.0,0.0,0.0,0.0,0.0,0.0,0.0,0.0,0.0,0.0,0.0,0.0,0.0,0.0,0.0,0.0,0.0,0.0,0.0,0.0,0.0,0.0,0.0,0.0,0.0,0.0,0.0,0.0,0.0,0.0,0.0,0.0,0.0,0.0,0.0,0.0,-3.062,-2.9922,-2.9936,-3.0239,-3.0841,-3.1854,-3.2773,-3.3506,-3.4069,-3.5337,0.0,0.0,0.0,0.0,0.0,0.0,0.0,0.0,0.0,0.0,0.0,0.0,0.0,0.0,0.0,0.0,0.0,0.0,0.0,0.0,0.0,0.0,0.0,0.0,0.0,0.0,0.0,0.0,0.0,0.0,0.0,0.0,0.0,0.0,0.0,0.0,0.0,0.0,0.0,0.0,0.0,0.0,0.0,0.0,0.0,0.0,0.0,0.0,0.0,0.0,0.0,0.0,0.0,0.0,0.0,0.0,0.0,0.0,0.0,0.0,0.0,0.0,0.0,0.0,0.0,0.0,0.0,0.0,0.0,0.0,0.0,0.0,0.0,0.0,0.0,0.0,0.0,0.0,0.0,0.0,0.0,0.0,0.0,0.0,0.0,0.0,0.0,0.0,0.0,0.0,0.0,0.0,0.0,0.0,0.0,0.0,0.0,0.0,0.0,0.0,0.0,0.0,-3.0122,-2.9457,-2.9191,-2.925,-2.971,-3.0789,-3.1419,-3.2316,-3.3527,-3.4323,0.0,0.0,0.0,0.0,0.0,0.0,0.0,0.0,0.0,0.0,0.0,0.0,0.0,0.0,0.0,0.0,0.0,0.0,0.0,0.0,0.0,0.0,0.0,0.0,0.0,0.0,0.0,0.0,0.0,0.0,0.0,0.0,0.0,0.0,0.0,0.0,0.0,0.0,0.0,0.0,0.0,0.0,0.0,0.0,0.0,0.0,0.0,0.0,0.0,0.0,0.0,0.0,0.0,0.0,0.0,0.0,0.0,0.0,0.0,0.0,0.0,0.0,0.0,0.0,0.0,0.0,0.0,0.0,0.0,0.0,0.0,0.0,0.0,0.0,0.0,0.0,0.0,0.0,0.0,0.0,0.0,0.0,0.0,0.0,0.0,0.0,0.0,0.0,0.0,0.0,0.0,0.0,0.0,0.0,0.0,0.0,0.0,0.0,0.0,0.0,0.0,0.0,-2.942,-2.8966,-2.8511,-2.8411,-2.8636,-2.9218,-2.955,-2.9894,-3.0307,-3.2106,0.0,0.0,0.0,0.0,0.0,0.0,0.0,0.0,0.0,0.0,0.0,0.0,0.0,0.0,0.0,0.0,0.0,0.0,0.0,0.0,0.0,0.0,0.0,0.0,0.0,0.0,0.0,0.0,0.0,0.0,0.0,0.0,0.0,0.0,0.0,0.0,0.0,0.0,0.0,0.0,0.0,0.0,0.0,0.0,0.0,0.0,0.0,0.0,0.0,0.0,0.0,0.0,0.0,0.0,0.0,0.0,0.0,0.0,0.0,0.0,0.0,0.0,0.0,0.0,0.0,0.0,0.0,0.0,0.0,0.0,0.0,0.0,0.0,0.0,0.0,0.0,0.0,0.0,0.0,0.0,0.0,0.0,0.0,0.0,0.0,0.0,0.0,0.0,0.0,0.0,0.0,0.0,0.0,0.0,0.0,0.0,0.0,0.0,0.0,0.0,0.0,0.0,-2.919,-2.8617,-2.7853,-2.7426,-2.7413,-2.8053,-2.8285,-2.912,-3.0947,0.0,0.0,0.0,0.0,0.0,0.0,0.0,0.0,0.0,0.0,0.0,0.0,0.0,0.0,0.0,0.0,0.0,0.0,0.0,0.0,0.0,0.0,0.0,0.0,0.0,0.0,0.0,0.0,0.0,0.0,0.0,0.0,0.0,0.0,0.0,0.0,0.0,0.0,0.0,0.0,0.0,0.0,0.0,0.0,0.0,0.0,0.0,0.0,0.0,0.0,0.0,0.0,0.0,0.0,0.0,0.0,0.0,0.0,0.0,0.0,0.0,0.0,0.0,0.0,0.0,0.0,0.0,0.0,0.0,0.0,0.0,0.0,0.0,0.0,0.0,0.0,0.0,0.0,0.0,0.0,0.0,0.0,0.0,0.0,0.0,0.0,0.0,0.0,0.0,0.0,0.0,0.0,0.0,0.0,0.0,0.0,0.0,0.0,0.0,0.0,0.0,0.0,-2.9438,-2.8624,-2.781,-2.7186,-2.6167,-2.5855,-2.6716,-2.6866,-2.7811,-2.9929,0.0,0.0,0.0,0.0,0.0,0.0,0.0,0.0,0.0,0.0,0.0,0.0,0.0,0.0,0.0,0.0,0.0,0.0,0.0,0.0,0.0,0.0,0.0,0.0,0.0,0.0,0.0,0.0,0.0,0.0,0.0,0.0,0.0,0.0,0.0,0.0,0.0,0.0,0.0,0.0,0.0,0.0,0.0,0.0,0.0,0.0,0.0,0.0,0.0,0.0,0.0,0.0,0.0,0.0,0.0,0.0,0.0,0.0,0.0,0.0,0.0,0.0,0.0,0.0,0.0,0.0,0.0,0.0,0.0,0.0,0.0,0.0,0.0,0.0,0.0,0.0,0.0,0.0,0.0,0.0,0.0,0.0,0.0,0.0,0.0,0.0,0.0,0.0,0.0,0.0,0.0,0.0,0.0,0.0,0.0,0.0,0.0,0.0,0.0,0.0,0.0,0.0,-2.919,-2.7567,-2.65,-2.647,-2.4648,-2.3881,-2.508,-2.5221,-2.5587,0.0,0.0,0.0,0.0,0.0,0.0,0.0,0.0,0.0,0.0,0.0,0.0,0.0,0.0,0.0,0.0,0.0,0.0,0.0,0.0,0.0,0.0,0.0,0.0,0.0,0.0,0.0,0.0,0.0,0.0,0.0,0.0,0.0,0.0,0.0,0.0,0.0,0.0,0.0,0.0,0.0,0.0,0.0,0.0,0.0,0.0,0.0,0.0,0.0,0.0,0.0,0.0,0.0,0.0,0.0,0.0,0.0,0.0,0.0,0.0,0.0,0.0,0.0,0.0,0.0,0.0,0.0,0.0,0.0,0.0,0.0,0.0,0.0,0.0,0.0,0.0,0.0,0.0,0.0,0.0,0.0,0.0,0.0,0.0,0.0,0.0,0.0,0.0,0.0,0.0,0.0,0.0,0.0,0.0,0.0,0.0,0.0,0.0,0.0,0.0,0.0,0.0,0.0,-2.8048,-2.6658,-2.5592,-2.5083,-2.4398,-2.4151,-2.461,-2.5335,-2.6234,-2.73,0.0,0.0,0.0,0.0,0.0,0.0,0.0,0.0,0.0,0.0,0.0,0.0,0.0,0.0,0.0,0.0,0.0,0.0,0.0,0.0,0.0,0.0,0.0,0.0,0.0,0.0,0.0,0.0,0.0,0.0,0.0,0.0,0.0,0.0,0.0,0.0,0.0,0.0,0.0,0.0,0.0,0.0,0.0,0.0,0.0,0.0,0.0,0.0,0.0,0.0,0.0,0.0,0.0,0.0,0.0,0.0,0.0,0.0,0.0,0.0,0.0,0.0,0.0,0.0,0.0,0.0,0.0,0.0,0.0,0.0,0.0,0.0,0.0,0.0,0.0,0.0,0.0,0.0,0.0,0.0,0.0,0.0,0.0,0.0,0.0,0.0,0.0,0.0,0.0,0.0,0.0,0.0,0.0,0.0,0.0,0.0,0.0,0.0,0.0,0.0,0.0,0.0,-2.7528,-2.5945,-2.4762,-2.4418,-2.4084,-2.4036,-2.4368,-2.5373,-2.6137,-2.652,0.0,0.0,0.0,0.0,0.0,0.0,0.0,0.0,0.0,0.0,0.0,0.0,0.0,0.0,0.0,0.0,0.0,0.0,0.0,0.0,0.0,0.0,0.0,0.0,0.0,0.0,0.0,0.0,0.0,0.0,0.0,0.0,0.0,0.0,0.0,0.0,0.0,0.0,0.0,0.0,0.0,0.0,0.0,0.0,0.0,0.0,0.0,0.0,0.0,0.0,0.0,0.0,0.0,0.0,0.0,0.0,0.0,0.0,0.0,0.0,0.0,0.0,0.0,0.0,0.0,0.0,0.0,0.0,0.0,0.0,0.0,0.0,0.0,0.0,0.0,0.0,0.0,0.0,0.0,0.0,0.0,0.0,0.0,0.0,0.0,0.0,0.0,0.0,0.0,0.0,0.0,0.0,0.0,0.0,0.0,0.0,0.0,0.0,0.0,0.0,0.0,0.0,-2.7425,-2.5364,-2.4046,-2.4312,-2.3785,-2.3685,-2.4409,-2.5411,-2.5683,-2.4941,0.0,0.0,0.0,0.0,0.0,0.0,0.0,0.0,0.0,0.0,0.0,0.0,0.0,0.0,0.0,0.0,0.0,0.0,0.0,0.0,0.0,0.0,0.0,0.0,0.0,0.0,0.0,0.0,0.0,0.0,0.0,0.0,0.0,0.0,0.0,0.0,0.0,0.0,0.0,0.0,0.0,0.0,0.0,0.0,0.0,0.0,0.0,0.0,0.0,0.0,0.0,0.0,0.0,0.0,0.0,0.0,0.0,0.0,0.0,0.0,-3.6811,-3.6582,0.0,0.0,0.0,0.0,0.0,0.0,0.0,0.0,0.0,0.0,0.0,0.0,0.0,0.0,0.0,0.0,0.0,0.0,0.0,0.0,0.0,0.0,0.0,0.0,0.0,0.0,0.0,0.0,0.0,0.0,0.0,0.0,0.0,0.0,0.0,0.0,0.0,0.0,0.0,0.0,-2.7146,-2.4991,-2.3615,-2.3761,-2.3559,-2.3842,-2.4925,-2.5615,-2.5841,-2.5463,-2.6825,0.0,0.0,0.0,0.0,0.0,0.0,0.0,0.0,0.0,0.0,0.0,0.0,0.0,0.0,0.0,0.0,0.0,0.0,0.0,0.0,0.0,0.0,0.0,0.0,0.0,0.0,0.0,0.0,0.0,0.0,0.0,0.0,0.0,0.0,0.0,0.0,0.0,0.0,0.0,0.0,0.0,0.0,0.0,0.0,0.0,0.0,0.0,0.0,0.0,0.0,0.0,0.0,0.0,0.0,0.0,0.0,0.0,0.0,0.0,-3.7334,-3.7275,0.0,0.0,0.0,0.0,0.0,0.0,0.0,0.0,0.0,0.0,0.0,0.0,0.0,0.0,0.0,0.0,0.0,0.0,0.0,0.0,0.0,0.0,0.0,0.0,0.0,0.0,0.0,0.0,0.0,0.0,0.0,0.0,0.0,0.0,0.0,0.0,0.0,0.0,0.0,0.0,-2.7453,-2.5668,-2.447,-2.4567,-2.4456,-2.4717,-2.56,-2.5863,-2.5893,-2.5627,-2.6529,0.0,0.0,0.0,0.0,0.0,0.0,0.0,0.0,0.0,0.0,0.0,0.0,0.0,0.0,0.0,0.0,0.0,0.0,0.0,0.0,0.0,0.0,0.0,0.0,0.0,0.0,0.0,0.0,0.0,0.0,0.0,0.0,0.0,0.0,0.0,0.0,0.0,0.0,0.0,0.0,0.0,0.0,0.0,0.0,0.0,0.0,0.0,0.0,0.0,0.0,0.0,0.0,0.0,-3.87,-3.8954,-3.9526,-3.9385,-3.9403,-3.9438,-3.8053,-3.8192,-3.9403,-3.9335,0.0,0.0,0.0,0.0,0.0,0.0,0.0,0.0,0.0,0.0,0.0,0.0,0.0,0.0,0.0,0.0,0.0,0.0,0.0,0.0,0.0,0.0,-3.4842,-3.4909,-3.519,-3.4868,-3.2769,0.0,0.0,0.0,0.0,0.0,0.0,0.0,0.0,0.0,0.0,0.0,-2.801,-2.6598,-2.5601,-2.5574,-2.545,-2.5608,-2.6134,-2.6048,-2.5893,-2.5627,-2.6167,-2.6625,0.0,0.0,0.0,0.0,0.0,0.0,0.0,0.0,0.0,0.0,0.0,0.0,0.0,0.0,0.0,0.0,0.0,0.0,0.0,0.0,0.0,0.0,0.0,0.0,0.0,0.0,0.0,0.0,0.0,0.0,0.0,0.0,-3.5947,-3.6149,0.0,0.0,0.0,0.0,0.0,0.0,0.0,0.0,0.0,0.0,0.0,0.0,0.0,-3.8593,-3.8456,-3.9228,-3.9611,-3.9554,-4.0231,-4.0353,-3.998,-3.935,-3.9401,-3.9946,-3.9129,0.0,-3.934,-3.872,0.0,0.0,0.0,0.0,0.0,0.0,0.0,0.0,0.0,0.0,0.0,0.0,0.0,0.0,0.0,0.0,0.0,0.0,0.0,0.0,0.0,0.0,-3.5042,-3.4387,-3.398,-3.3656,-3.3276,-3.4516,-3.5313,-3.3942,-3.3583,-3.3699,0.0,0.0,0.0,0.0,0.0,0.0,-2.8398,-2.6717,-2.556,-2.5444,-2.5419,-2.557,-2.5975,-2.6026,-2.5893,-2.5627,-2.5693,-2.619,-2.7191,-2.7067,0.0,0.0,0.0,0.0,0.0,0.0,0.0,0.0,0.0,0.0,0.0,0.0,0.0,0.0,0.0,0.0,0.0,0.0,0.0,0.0,0.0,0.0,0.0,0.0,0.0,0.0,0.0,0.0,0.0,-3.5533,-3.668,-3.6142,-3.714,-3.734,0.0,0.0,0.0,0.0,0.0,0.0,0.0,0.0,0.0,-3.816,-3.9249,-3.9626,-3.9223,-4.037,-4.0594,-3.9939,-4.0295,-4.0336,-4.0121,-4.0075,-4.022,-4.0559,-4.0545,-4.0648,-4.0689,-3.9929,-3.9713,-3.9884,0.0,0.0,0.0,0.0,-3.9339,-3.938,-3.9137,-3.9084,-3.911,-3.8775,0.0,0.0,0.0,0.0,0.0,0.0,0.0,-3.6632,-3.663,-3.6131,-3.5531,-3.5042,-3.5318,-3.5591,-3.5179,-3.622,-3.6549,-3.4174,-3.4523,-3.499,-3.4466,-3.349,0.0,0.0,0.0,-2.9691,-2.9489,-2.8434,-2.7561,-2.7076,-2.6693,-2.6461,-2.6508,-2.6191,-2.6059,-2.6201,-2.6429,-2.6864,-2.7619,-2.8109,-2.9206,0.0,0.0,0.0,0.0,0.0,0.0,0.0,0.0,0.0,0.0,0.0,0.0,0.0,0.0,0.0,0.0,0.0,0.0,0.0,0.0,0.0,0.0,0.0,0.0,0.0,0.0,0.0,0.0,-3.6255,-3.7456,-3.6283,-3.8136,-3.8778,0.0,0.0,0.0,0.0,0.0,0.0,-3.9184,-3.9383,-3.9446,-3.9319,-4.0491,-4.0827,-4.0234,-4.1296,-4.1375,-4.0514,-4.0514,-4.0514,-4.0563,-4.0967,-4.1133,-4.1178,-4.1621,-4.181,-4.174,-4.1085,-4.0806,-4.0762,-4.0357,-4.0345,-4.0463,-4.0062,-4.0161,-4.0507,-4.0565,-4.0811,-4.1005,-4.0467,-3.9841,-3.9203,-3.8597,0.0,0.0,0.0,0.0,-3.7116,-3.7578,-3.6946,-3.6204,-3.6027,-3.6748,-3.7283,-3.6725,-3.7338,-3.7312,-3.4863,-3.5423,-3.6011,-3.5048,-3.4036,0.0,-3.3557,-3.1888,-3.0573,-3.0573,-2.9874,-2.9179,-2.8587,-2.7936,-2.7412,-2.7172,-2.6571,-2.6332,-2.6691,-2.7083,-2.747,-2.7897,-2.8793,-2.9595,-3.0191,0.0,0.0,0.0,0.0,0.0,0.0,0.0,0.0,0.0,0.0,0.0,0.0,0.0,0.0,0.0,0.0,0.0,0.0,0.0,0.0,0.0,0.0,0.0,0.0,0.0,0.0,0.0,0.0,0.0,-3.701,-3.9847,0.0,0.0,0.0,0.0,-3.9996,-3.9714,-3.9751,-4.0197,-4.0958,-4.1333,-4.1268,-4.2134,-4.2315,-4.1697,-4.1775,-4.175,-4.1707,-4.1707,-4.1707,-4.1725,-4.175,-4.175,-4.1768,-4.181,-4.181,-4.1782,-4.1468,-4.1337,-4.134,-4.1113,-4.1056,-4.0979,-4.0175,-4.0377,-4.0895,-3.9619,-4.0029,-4.1156,-4.1343,-4.1212,-4.0983,-4.0946,-4.0359,0.0,0.0,-3.9987,-3.8992,-3.8994,-3.806,-3.712,-3.7135,-3.717,-3.7188,-3.7152,-3.7208,-3.7208,-3.7046,-3.6463,-3.6252,-3.6905,0.0,-3.4376,-3.5087,-3.3009,-3.1341,-3.1341,-3.0226,-2.9355,-2.919,-2.8484,-2.797,-2.7769,-2.708,-2.6657,-2.6691,-2.7083,-2.747,-2.7897,-2.8273,-2.9007,-3.0191,-3.0767,0.0,0.0,0.0,0.0,0.0,0.0,0.0,0.0,0.0,0.0,0.0,0.0,0.0,0.0,0.0,0.0,0.0,0.0,0.0,0.0,0.0,0.0,0.0,0.0,0.0,0.0,0.0,0.0,-3.9081,-4.0901,0.0,-3.9829,-4.0272,-4.0809,-4.1037,-4.1441,-4.1718,-4.1827,-4.2102,-4.2104,-4.1658,-4.2318,-4.24,-4.181,-4.2162,-4.2162,-4.181,-4.181,-4.181,-4.1793,-4.2203,-4.2382,-4.2382,-4.2734,-4.2885,-4.2885,-4.2796,-4.2559,-4.2208,-4.1953,-4.1882,-4.1846,-4.1552,-4.1625,-4.1867,-4.1915,-4.2258,-4.2472,-4.1567,-4.1181,-4.102,-4.0487,-4.0487,-4.0836,-4.1662,-4.0793,-3.9644,-3.9823,-3.8762,-3.7578,-3.7248,-3.7022,-3.6879,-3.6879,-3.6741,-3.6789,-3.7297,-3.73,-3.7238,-3.7212,-3.6452,-3.5847,-3.5749,-3.3883,-3.2491,-3.2491,-3.1362,-3.0375,-2.9817,-2.9554,-2.8955,-2.7891,-2.7793,-2.7583,-2.7117,-2.8147,-2.8602,-2.8228,-2.908,-2.9599,-2.9672,-3.0002,-3.0915,0.0,0.0,0.0,0.0,0.0,0.0,0.0,0.0,0.0,0.0,0.0,0.0,0.0,0.0,0.0,0.0,0.0,0.0,0.0,0.0,0.0,0.0,0.0,0.0,0.0,-3.9793,-4.1218,-4.007,-4.1781,-4.2404,-4.0697,-4.139,-4.2062,-4.24,-4.2788,-4.3041,-4.2977,-4.2976,-4.2808,-4.2404,-4.2752,-4.279,-4.2386,-4.2752,-4.2752,-4.2386,-4.2386,-4.2386,-4.2386,-4.279,-4.2976,-4.2976,-4.3339,-4.3497,-4.3497,-4.3497,-4.3139,-4.2559,-4.2679,-4.269,-4.269,-4.269,-4.2525,-4.2341,-4.2598,-4.2873,-4.2873,-4.1534,-4.1111,-4.102,-4.0469,-4.0689,-4.1222,-4.1754,-4.0928,-3.9928,-4.0138,-3.9164,-3.8099,-3.7791,-3.7334,-3.6971,-3.6971,-3.6608,-3.645,-3.6982,-3.7466,-3.7757,-3.7702,-3.741,-3.705,-3.6702,-3.517,-3.3981,-3.3719,-3.2708,-3.1743,-3.0967,-3.0711,-3.0022,-2.8698,-2.8876,-2.8704,-2.7967,-2.8969,-2.9493,-2.925,-2.996,-3.0298,-3.0213,-3.0244,-3.1045,-3.2709,0.0,0.0,0.0,0.0,0.0,0.0,0.0,0.0,0.0,0.0,0.0,0.0,0.0,0.0,0.0,0.0,0.0,0.0,0.0,0.0,0.0,0.0,0.0,-3.9237,-4.1055,-4.1834,-3.997,-4.2629,-4.3924,-4.2234,-4.3278,-4.4004,-4.3986,-4.366,-4.3497,-4.3497,-4.3497,-4.3497,-4.3497,-4.3497,-4.3497,-4.3497,-4.3497,-4.3497,-4.3497,-4.3497,-4.3497,-4.3497,-4.3497,-4.3497,-4.3497,-4.3497,-4.3497,-4.3497,-4.3513,-4.3073,-4.2448,-4.3185,-4.3513,-4.3477,-4.3513,-4.3018,-4.2209,-4.1438,-4.1658,-4.2154,-4.1364,-4.1107,-4.1126,-4.1107,-4.1107,-4.1144,-4.1144,-4.0556,-3.9913,-3.9913,-3.9326,-3.8719,-3.8719,-3.8077,-3.747,-3.747,-3.6798,-3.6229,-3.6248,-3.689,-3.7698,-3.8487,-3.8231,-3.7928,-3.7873,-3.6791,0.0,-3.4889,-3.4127,-3.3365,-3.2588,-3.1859,-3.1097,-3.0305,-3.0295,-2.997,-2.9171,-2.9448,-2.9999,-3.0839,-3.0743,-3.1019,-3.1747,-3.1479,-3.1852,-3.2878,0.0,0.0,0.0,0.0,0.0,0.0,0.0,0.0,0.0,0.0,0.0,0.0,0.0,0.0,0.0,0.0,0.0,0.0,0.0,0.0,0.0,-4.1369,-4.2472,-4.1635,-4.2256,-4.3013,-4.3606,-4.4257,-4.4461,-4.3985,-4.4288,-4.4257,-4.3701,-4.3529,-4.3497,-4.3497,-4.3497,-4.3497,-4.3497,-4.3497,-4.3497,-4.3497,-4.3497,-4.3497,-4.3497,-4.3497,-4.3497,-4.3497,-4.3497,-4.3497,-4.3497,-4.3497,-4.3497,-4.3513,-4.3772,-4.3719,-4.3521,-4.3505,-4.3277,-4.3064,-4.3658,-4.3513,-4.2978,-4.2754,-4.2435,-4.1958,-4.1135,-4.1266,-4.164,-4.106,-4.1285,-4.1753,-4.1753,-4.1008,-4.0253,-4.0483,-3.9778,-3.8999,-3.8999,-3.7941,-3.6859,-3.6654,-3.5495,-3.4669,-3.5257,-3.6046,-3.6688,-3.6909,-3.7809,-3.8063,-3.6912,-3.6164,-3.5436,-3.4613,-3.3514,-3.2747,-3.2502,-3.2323,-3.188,-3.1133,-3.0826,-3.0309,-2.9521,-3.0366,-3.0746,-3.0417,-3.1654,-3.1979,-3.1243,-3.1851,-3.2254,0.0,0.0,0.0,0.0,0.0,0.0,0.0,0.0,0.0,0.0,0.0,0.0,0.0,0.0,0.0,0.0,0.0,0.0,0.0,0.0,0.0,0.0,-4.3712,-4.4825,-4.4706,-4.4495,-4.4653,-4.5401,-4.513,-4.4912,-4.4912,-4.4763,-4.4463,-4.3999,-4.3804,-4.3693,-4.3693,-4.3563,-4.3497,-4.3497,-4.3497,-4.3497,-4.3497,-4.3497,-4.3497,-4.3479,-4.3646,-4.3693,-4.3726,-4.3868,-4.3962,-4.3962,-4.3962,-4.3962,-4.3992,-4.4165,-4.4027,-4.3727,0.0,0.0,0.0,0.0,-4.3302,-4.2725,-4.241,-4.1933,-4.1361,-4.0575,-4.0613,-4.0915,-4.0443,-4.0632,-4.1009,-4.1009,-4.0503,-4.0045,-4.0244,-3.9814,-3.9314,-3.9314,-3.8059,-3.6831,-3.667,-3.5337,-3.4333,-3.4773,-3.5813,0.0,-3.6192,-3.7275,-3.7771,-3.6486,-3.6072,-3.5593,-3.4745,-3.4134,-3.3622,-3.3259,-3.3223,-3.2897,-3.2145,-3.2064,0.0,0.0,0.0,-3.1138,-3.0559,-3.2008,0.0,0.0,0.0,-3.2718,-3.2879,-3.3733,0.0,0.0,-3.5813,-3.5876,0.0,0.0,0.0,0.0,0.0,0.0,0.0,0.0,0.0,0.0,0.0,0.0,0.0,0.0,0.0,0.0,-4.5979,-4.6966,-4.7735,-4.7201,-4.6587,-4.6156,-4.5638,-4.5339,-4.5401,-4.4993,-4.4693,-4.4624,-4.4261,-4.4058,-4.4058,-4.3791,0.0,0.0,0.0,-4.3631,-4.3631,-4.3631,-4.3631,-4.3631,-4.3943,-4.4058,-4.4087,-4.4447,-4.458,-4.458,-4.458,-4.458,-4.4606,-4.4537,-4.4096,-4.3478,-4.4109,-4.4506,-4.4543,-4.3629,-4.2791,-4.203,-4.1264,0.0,0.0,-3.9917,-3.9712,-3.9712,-3.9712,-3.9712,-3.9712,-3.9712,-3.969,-3.9668,-3.969,-3.9668,-3.9645,-3.9645,-3.8383,-3.7133,-3.7112,-3.5826,-3.4694,-3.4694,-3.592,-3.6753,-3.6017,-3.6826,-3.7292,-3.6408,-3.6233,-3.5938,-3.5091,-3.5249,-3.5104,-3.434,-3.4265,0.0,-3.3239,-3.3445,-3.2992,-3.1581,-3.1415,-3.1299,-3.1164,-3.1941,-3.2492,-3.2712,-3.2808,-3.3116,-3.3623,-3.3582,-3.4226,-3.5504,-3.5547,-3.5861,0.0,0.0,0.0,0.0,0.0,0.0,0.0,0.0,0.0,0.0,0.0,0.0,0.0,0.0,0.0,-4.5388,-4.6877,-4.8053,-4.8595,-4.8796,-4.8521,-4.7471,-4.6652,-4.629,-4.6629,-4.5997,-4.5315,-4.4636,-4.4527,-4.4474,-4.4474,-4.4419,-4.4392,-4.4392,-4.4392,-4.4392,-4.4392,-4.4392,-4.4392,-4.4392,-4.4447,0.0,-4.4501,-4.4553,-4.458,-4.458,-4.458,-4.458,-4.4568,-4.4132,-4.4013,-4.4039,-4.3268,-4.3811,-4.484,-4.3599,-4.3023,-4.2774,-4.1911,-4.1163,-4.053,-4.0394,-4.0336,-4.0336,-4.0336,-4.0336,0.0,-4.0336,-4.0176,-4.0062,-4.0266,-4.0157,-4.0002,-4.0002,-3.8728,-3.7414,-3.7154,-3.5826,-3.4694,-3.4694,-3.5486,-3.609,-3.5922,-3.7152,-3.7662,-3.6201,-3.5972,-3.5668,-3.4864,-3.4795,-3.4781,-3.4612,-3.4593,-3.4536,-3.4367,-3.3235,-3.2367,-3.2068,-3.1371,-3.1356,-3.2184,-3.1778,-3.1558,-3.1599,-3.2252,-3.2559,-3.2505,-3.3808,-3.4811,-3.5522,-3.5945,-3.6314,0.0,0.0,0.0,0.0,0.0,0.0,0.0,0.0,0.0,0.0,0.0,-4.3001,-4.4316,0.0,-4.6683,-4.773,-4.9135,-5.0018,-4.9834,-4.9958,-4.9717,-4.8727,-4.8002,-4.7521,-4.729,-4.7082,-4.645,-4.5173,-4.5304,-4.529,-4.4868,-4.4682,-4.458,-4.458,-4.458,-4.458,-4.458,-4.458,-4.458,-4.4606,-4.4757,-4.4849,-4.4849,-4.5011,-4.5096,-4.5096,-4.5096,-4.5096,-4.508,-4.4804,-4.4805,-4.4855,-4.3827,-4.3714,-4.402,-4.3342,-4.2547,-4.1797,-4.1797,-4.1239,-4.0489,-4.0489,-4.0489,-4.0489,-4.0489,-4.0489,-4.0489,-4.0489,-4.0463,-4.0415,-4.0492,-4.0447,-4.0266,-3.9806,-3.8714,-3.7625,-3.7029,-3.5963,-3.5105,-3.5105,-3.5753,-3.6306,-3.6287,-3.6955,-3.7148,-3.6058,-3.5562,-3.5166,-3.4751,-3.4453,-3.4262,-3.4262,-3.4262,-3.4262,-3.4262,-3.2996,-3.2015,-3.1563,-3.0858,-3.069,-3.1238,-3.0983,-3.1057,-3.1492,-3.1881,-3.2195,-3.2365,-3.3636,-3.4526,-3.5057,-3.5776,-3.6454,0.0,0.0,0.0,0.0,0.0,0.0,0.0,-4.4526,-4.4573,-4.5399,-4.5514,-4.5896,-4.7261,-4.8365,-4.9248,-4.9915,-5.0919,-5.1395,-5.0685,-5.0648,-5.0458,-4.9822,-4.9163,-4.8491,-4.7678,-4.7913,-4.7394,-4.572,-4.6108,-4.6061,-4.5239,-4.4943,-4.4781,-4.4781,-4.4819,-4.4819,-4.4819,-4.4819,-4.4838,-4.4862,-4.5094,-4.522,-4.5258,-4.5476,-4.5528,-4.5413,-4.522,-4.522,-4.5336,-4.5182,-4.5124,-4.5047,-4.4182,-4.347,-4.2896,-4.2874,-4.195,-4.0835,-4.1393,-4.1123,-4.0543,-4.0562,-4.0562,-4.0562,-4.0562,-4.0562,-4.0562,-4.0562,-4.0639,-4.0693,-4.0593,-4.0511,-4.0296,-3.9546,-3.8565,-3.7623,-3.6892,-3.6103,-3.5526,-3.5493,-3.6026,-3.6526,-3.668,-3.6584,-3.6385,-3.6103,-3.5363,-3.487,-3.487,-3.4425,-3.4063,-3.391,-3.3872,-3.3757,-3.3433,-3.2604,-3.1726,-3.0856,-3.035,-3.0075,-3.0075,-3.0299,-3.0737,-3.1448,-3.1621,-3.191,-3.2367,-3.3223,-3.3913,-3.445,-3.515,-3.6162,-4.465,-4.5168,-4.5781,-4.5816,-4.5898,-4.6387,0.0,-4.7615,-4.7211,-4.8095,-4.8663,-4.9087,-4.9278,-4.965,-4.9978,-5.0073,-5.022,-5.0291,-5.0196,-5.047,-5.068,-5.0584,-4.9507,-4.8602,-4.8068,-4.8068,-4.7394,-4.572,-4.6376,-4.6473,-4.5589,-4.5513,-4.5495,-4.5495,-4.5591,-4.5667,-4.5667,-4.5667,-4.5687,-4.5744,-4.5627,-4.5627,-4.5818,-4.5663,-4.5316,-4.4741,-4.3857,-4.3855,-4.4393,-4.3662,-4.3412,-4.3376,-4.2566,-4.2244,-4.2194,-4.1995,-4.1816,-4.1566,-4.1008,-4.0773,-4.0696,-4.0754,-4.0773,-4.0773,-4.0773,-4.0773,-4.0773,-4.0773,-4.0773,-4.0791,-4.0762,-4.0242,-3.9704,-3.9588,-3.8319,-3.7074,-3.6916,-3.6205,-3.5584,-3.5526,-3.557,-3.5872,-3.6584,-3.6122,-3.5858,-3.6507,-3.5936,-3.5417,-3.5417,-3.5336,-3.5018,-3.423,-3.4153,-3.3557,-3.2058,-3.1821,-3.1386,-3.0522,-3.0381,-3.0355,-3.0355,-3.0379,-3.0456,-3.0641,-3.1333,-3.1756,-3.1872,-3.2615,-3.3327,-3.3891,-3.3987,-3.5018,-4.5706,-4.642,-4.7061,-4.6799,-4.7509,-4.8326,-4.8599,-4.834,-4.8299,-4.9153,-4.9536,-4.9868,-5.0394,-5.0968,-5.1231,-5.0749,-5.1075,-5.1207,-5.0749,-5.0835,-5.0933,-5.0933,-5.0872,-5.0352,-4.9086,-4.9413,-4.8836,-4.6683,-4.7336,-4.7221,-4.5853,-4.5776,-4.5776,-4.5776,-4.5834,-4.5854,-4.5854,-4.5866,-4.5877,-4.5892,-4.58,-4.5819,-4.5892,-4.5814,-4.5389,-4.4647,-4.3724,-4.3492,-4.3739,-4.3415,-4.3299,-4.3275,-4.2937,-4.2516,-4.2022,-4.1431,-4.1219,-4.1178,-4.087,-4.0764,-4.0757,-4.0776,-4.0796,-4.0796,-4.0796,-4.0796,-4.0796,-4.0796,-4.0868,-4.0901,-4.082,-4.024,-3.9532,-3.8975,-3.7896,-3.685,-3.6328,-3.5917,-3.5661,-3.5622,-3.5622,-3.5718,-3.6065,-3.5834,-3.5738,-3.6065,-3.5776,-3.5545,-3.5622,-3.4705,-3.3724,-3.2897,-3.2769,-3.2468,-3.1756,-3.1698,-3.1333,-3.0456,-3.0398,-3.0398,-3.0398,-3.0448,-3.0467,-3.0506,-3.0878,-3.1072,-3.1095,-3.1877,-3.2398,-3.2645,-3.3072,-3.3903,-4.6189,-4.6833,-4.7429,-4.7508,-4.8549,-4.9484,-4.9123,-4.9138,-4.9391,-5.0038,-5.0309,-5.0557,-5.0977,-5.1676,-5.192,-5.1111,-5.1502,-5.1725,-5.1122,-5.107,-5.1112,-5.1112,-5.1614,-5.1451,-5.0156,-5.079,-5.0245,-4.7754,-4.8141,-4.7832,-4.6341,-4.6032,-4.5896,-4.5896,-4.594,-4.5963,-4.5964,-4.5971,-4.5978,-4.6012,-4.5947,-4.58,-4.5645,-4.5142,-4.472,-4.4286,-4.3191,-4.2982,-4.3371,-4.2879,-4.2842,-4.3082,-4.2833,-4.2374,-4.1781,-4.1132,-4.0861,-4.0822,-4.0838,-4.0849,-4.0859,-4.0903,-4.0914,-4.0914,-4.0914,-4.0914,-4.0914,-4.0914,-4.0971,-4.1033,-4.0942,-4.0154,-3.9236,-3.8532,-3.7525,-3.6551,-3.5904,-3.5753,-3.5746,-3.5697,-3.5705,-3.5705,-3.5705,-3.5705,-3.5707,-3.5751,-3.5451,-3.5251,-3.5353,-3.3807,-3.2463,-3.1896,-3.1576,-3.1391,-3.1371,-3.1371,-3.0987,-3.0102,-3.0294,-3.0225,-2.9763,-3.0244,-3.0321,-2.9867,-3.0114,-3.025,-3.0294,-3.084,-3.1358,-3.1811,-3.2346,-3.3075,-4.5598,-4.5844,-4.6256,-4.7954,-4.8709,-4.9259,-5.0221,-5.0741,-5.102,-5.1072,-5.1588,-5.1796,-5.1049,-5.1457,-5.1658,-5.0839,-5.0844,-5.0933,-5.0913,-5.1014,-5.1103,-5.1103,-5.1123,-5.1113,-5.1052,-5.1772,-5.1211,-4.8651,-4.8487,-4.8108,-4.7202,-4.6357,-4.5909,-4.5909,-4.6023,-4.6102,-4.6082,-4.6092,-4.6167,-4.6279,-4.6016,-4.5579,-4.4976,-4.328,-4.2845,-4.3342,-4.1755,-4.1956,-4.3266,-4.1583,-4.1439,-4.2251,-4.1393,-4.1139,-4.1216,-4.1207,-4.1021,-4.0818,-4.0944,-4.1001,-4.1015,-4.114,-4.1191,-4.1191,-4.1191,-4.1191,-4.1191,-4.1191,-4.1191,-4.1191,-4.1191,-3.9922,-3.8633,-3.8594,-3.7285,-3.6015,-3.5918,-3.5898,-3.5851,-3.5729,-3.5696,-3.5696,-3.5696,-3.5696,-3.5743,-3.5868,-3.5117,-3.4523,-3.4539,-3.3016,-3.1917,-3.1891,-3.1148,-3.0602,-3.0544,-3.0544,-3.014,-2.9198,-2.9987,-2.9763,-2.8137,-2.9706,-2.9867,-2.8303,-2.8974,-2.9394,-2.9531,-2.9429,-3.0203,-3.1792,-3.1831,-3.2685,-4.4322,-4.541,-4.6585,-4.7928,-4.8806,-4.9423,-4.9746,-5.0005,-5.024,-5.0501,-5.036,-5.0172,-5.0172,-5.0344,-5.0423,-5.0138,-5.0639,-5.1035,-5.1025,-5.1531,-5.1691,-5.1171,-5.2088,-5.2312,-5.1206,-5.1347,-5.0702,-4.8769,-4.863,-4.8008,-4.6547,-4.6199,-4.5988,-4.5896,-4.5936,-4.5976,-4.5976,-4.5964,-4.5714,-4.5221,-4.4557,-4.4179,-4.4022,-4.2869,-4.2478,-4.2675,-4.16,-4.1442,-4.1892,-4.1309,-4.1269,-4.1538,-4.1256,-4.1163,-4.1199,-4.1091,-4.1011,-4.0948,-4.1082,-4.1073,-4.1011,-4.1053,-4.1007,-4.0925,-4.0925,-4.0925,-4.0925,-4.0925,-4.0996,-4.1074,-4.1074,-4.0273,-3.9453,-3.9453,-3.8574,-3.7559,-3.6953,-3.6836,-3.664,-3.6023,-3.5903,-3.5903,-3.5903,-3.5896,-3.5723,-3.5185,-3.4822,-3.4199,-3.3006,-3.2336,-3.1733,-3.1172,-3.0795,-3.0587,-3.0568,-3.0577,-3.0429,-3.0121,-2.9855,-2.9448,-2.8885,-2.8954,-2.8756,-2.8214,-2.849,-2.8938,-2.957,-2.9485,-2.9963,-3.0995,-3.0953,-3.1518,-4.3284,-4.4636,-4.5937,-4.7203,-4.8255,-4.9033,-4.9246,-4.9457,-4.972,-4.9954,-4.9411,-4.8955,-4.9226,-4.9261,-4.9182,-4.8876,-4.9595,-5.0258,-5.0552,-5.0825,-5.109,-5.128,-5.2,-5.2111,-5.1127,-5.1026,-5.0491,-4.9185,-4.8806,-4.7996,-4.6582,-4.6188,-4.5986,-4.5898,-4.5891,-4.5891,-4.5891,-4.5611,-4.506,-4.4228,-4.3343,-4.2974,-4.3031,-4.2155,-4.1797,-4.1797,-4.1289,-4.1055,-4.1055,-4.1055,-4.1055,-4.1055,-4.1055,-4.1055,-4.1042,-4.0955,-4.093,-4.094,-4.1031,-4.0999,-4.0926,-4.0935,-4.0874,-4.0809,-4.0809,-4.0809,-4.0809,-4.0809,-4.0863,-4.093,-4.0929,-4.0349,-3.9783,-3.9783,-3.9139,-3.8241,-3.7385,-3.7441,-3.7304,-3.6116,-3.6135,-3.6253,-3.596,-3.5642,-3.5176,-3.4295,-3.3906,-3.332,-3.2221,-3.1792,-3.1387,-3.082,-3.0723,-3.0693,-3.0634,-3.0633,-3.0377,-2.9757,-2.9764,-2.9255,-2.8039,-2.8446,-2.84,-2.7772,-2.812,-2.873,-2.9609,-2.9551,-2.9916,-3.063,-3.0568,-3.0968,-4.2526,-4.3536,-4.4441,-4.5888,-4.7088,-4.8069,-4.8635,-4.9089,-4.9348,-4.934,-4.871,-4.8183,-4.8173,-4.8211,-4.7966,-4.7219,-4.7896,-4.8815,-4.9576,-4.9183,-4.9519,-5.1365,-5.095,-5.0605,-5.0817,-5.0836,-5.0529,-4.974,-4.8942,-4.8117,-4.7232,-4.6366,-4.5892,-4.5873,-4.5873,-4.5873,-4.5873,-4.5081,-4.4248,-4.3358,-4.2495,-4.2056,-4.1994,-4.1168,-4.0805,-4.0805,-4.0805,-4.0805,-4.0805,-4.0805,-4.0805,-4.0805,-4.0805,-4.0824,-4.0855,-4.0805,-4.0823,-4.0838,-4.0801,-4.0785,-4.079,-4.0795,-4.0793,-4.0773,-4.0773,-4.0773,-4.0773,-4.0773,-4.0793,-4.0805,-4.0781,-4.0232,-3.966,-3.966,-3.9038,-3.8183,-3.7331,-3.7782,-3.7852,-3.6098,-3.6397,-3.6669,-3.5845,-3.5003,-3.416,-3.3316,-3.2415,-3.1899,-3.2088,-3.1406,-3.0879,-3.0879,-3.0898,-3.084,-3.0703,-3.0703,-2.9991,-2.8349,-2.9708,-2.9145,-2.5938,-2.8122,-2.8652,-2.7109,-2.7832,-2.8672,-2.9609,-2.9609,-2.998,-3.0683,-3.0634,-3.1014,-4.1828,-4.3085,-4.4334,-4.5294,-4.6195,-4.6865,-4.6998,-4.7093,-4.7257,-4.7444,-4.681,-4.6271,-4.6421,-4.6919,-4.7259,-4.7051,-4.8258,-4.9306,-4.9523,-4.9967,-5.0232,-5.0096,0.0,-5.051,-4.9914,-5.0125,-4.9713,-4.828,-4.8277,-4.7983,-4.7101,-4.6271,-4.5776,-4.568,-4.568,-4.568,-4.568,-4.4833,-4.3987,-4.3159,-4.2294,-4.1582,-4.1058,-4.0839,-4.0745,-4.0803,-4.0803,-4.0803,-4.0803,-4.0803,-4.0803,-4.0803,-4.0803,-4.1195,-4.1682,-4.0982,-4.1138,-4.1582,-4.0839,-4.0648,-4.0731,-4.0727,-4.0658,-4.0581,-4.0581,-4.0581,-4.0581,-4.0581,-4.0658,-4.0731,-4.0737,-4.0596,-4.048,-4.048,-4.0326,-3.994,-3.9116,-3.911,-3.8756,-3.7012,-3.633,-3.5956,-3.5732,-3.4488,-3.3467,-3.3237,-3.1921,-3.0944,-3.0994,-3.0813,-3.0676,-3.0676,-3.0712,-3.0742,-3.0703,-3.0781,-3.0663,-3.0208,-2.9374,-2.8817,-2.8591,-2.738,-2.7109,-2.7949,-2.7559,-2.8086,-2.9609,-2.9609,-2.9952,-3.0637,-3.0661,-3.0691,-4.0822,-4.2141,-4.3489,-4.4243,-4.4992,-4.5585,-4.587,-4.5652,-4.549,-4.5616,-4.4997,-4.4447,-4.4557,-4.5475,-4.6038,-4.5686,-4.7225,-4.8553,-4.8907,-4.909,-4.9323,0.0,-4.9584,-4.9457,-4.9493,-4.9378,-4.8922,-4.7985,-4.8101,-4.7681,-4.6451,-4.5951,-4.568,-4.5586,-4.5586,-4.5413,-4.5028,-4.4528,-4.3701,-4.2527,-4.2027,-4.1373,-4.062,-4.062,-4.0639,-4.0677,-4.0677,-4.0677,-4.0677,-4.0677,-4.0677,-4.0677,-4.0677,-4.0969,-4.1319,-4.0796,-4.0912,-4.1258,-4.07,-4.0562,-4.062,-4.062,-4.0562,-4.0489,-4.0489,-4.0489,-4.0489,-4.0489,-4.0562,-4.062,-4.062,-4.0639,-4.0677,-4.0677,-4.0677,-4.0466,-3.9642,-3.9754,-3.9484,-3.7762,-3.6454,-3.5622,-3.5622,-3.4526,-3.35,-3.3121,-3.2242,-3.1334,-3.0615,-3.0554,-3.0593,-3.0593,-3.0639,-3.0673,-3.0703,-3.0762,-3.0664,-3.0351,-2.9766,-2.9141,-2.8496,-2.7422,-2.7129,-2.7715,-2.7246,-2.7676,-2.9023,-2.9414,-2.9781,-3.0177,-3.0531,-3.0631,-3.9901,-4.1102,-4.2292,-4.2856,-4.3558,-4.4245,-4.4776,-4.4406,-4.3958,-4.3898,-4.3377,-4.2864,-4.2863,-4.393,-4.4638,-4.4021,0.0,-4.7015,-4.7897,-4.7364,-4.7553,-4.9378,-4.8266,-4.788,-4.9121,-4.8442,-4.7984,-4.8032,-4.7903,-4.7185,-4.5781,-4.5589,-4.5568,-4.5586,-4.5586,-4.524,-4.447,-4.447,-4.3624,-4.197,-4.197,-4.147,-4.0489,-4.0473,-4.0457,-4.0438,-4.0406,-4.037,-4.037,-4.037,-4.037,-4.037,-4.037,-4.0523,-4.0696,-4.0466,-4.054,-4.0729,-4.0482,-4.0406,-4.0457,-4.0489,-4.0489,-4.0489,-4.0489,-4.0489,-4.0489,-4.0489,-4.0489,-4.0489,-4.0489,-4.0489,-4.0489,-4.0489,-4.0489,-4.0296,-3.9604,-3.9815,-3.9738,-3.8277,-3.6661,-3.5493,-3.5493,-3.4776,-3.393,-3.3179,-3.2872,-3.2218,-3.0756,-3.0679,-3.0698,-3.0583,-3.0583,-3.0606,-3.0667,-3.068,-3.0428,-2.9785,-3.0351,-2.9746,-2.7617,-2.791,-2.7871,-2.7363,-2.7129,-2.7422,-2.8301,-2.918,-2.9609,-2.9609,-3.0379,-3.0697,-3.9868,-4.0713,-4.1442,-4.1545,-4.2141,-4.2668,-4.2808,-4.2705,0.0,-4.2493,-4.2345,-4.2236,-4.2043,-4.2754,-4.3533,-4.3961,-4.4413,-4.5136,-4.6403,-4.5993,-4.595,0.0,-4.62,-4.6241,-4.7616,-4.6801,-4.632,-4.6706,-4.6411,-4.6187,-4.6173,-4.5564,-4.5322,-4.5586,-4.5586,-4.5528,-4.5374,-4.5355,-4.4528,-4.2874,-4.2874,-4.2047,-4.0489,-4.0267,-4.0158,-4.0158,-3.9882,-3.9757,-3.9757,-3.9757,-3.9757,-3.9757,-3.9757,-4.0609,-4.1651,-4.0268,-4.0779,-4.1913,-4.0317,-3.9943,-4.0195,-4.0441,-4.0489,-4.0489,-4.0489,-4.0489,-4.0489,-4.0489,-4.0489,-4.0489,-4.0489,-4.0489,-4.0489,-4.0489,-4.0489,-4.045,-4.0315,-3.9315,-3.8354,-3.8065,-3.6661,-3.5493,-3.5493,-3.4776,-3.4141,-3.3987,-3.2795,-3.1795,-3.1506,-3.1487,-3.1237,-3.0506,-3.0487,-3.0521,-3.053,-3.0587,-3.0583,-3.0508,-3.0039,-2.9883,-3.0215,-2.8281,-2.7832,-2.9121,-2.7734,-2.7422,-2.8301,-2.918,-2.957,-2.9531,-3.0442,-3.0788,-3.8778,-3.9757,-4.05,-4.0084,-4.0569,-4.1143,-4.1143,0.0,0.0,-4.0999,-4.1079,-4.1057,-4.0931,-4.1841,0.0,-4.3039,-4.3729,-4.4432,-4.5086,-4.4903,-4.484,-4.514,-4.4529,-4.4538,-4.5622,-4.4862,-4.4517,-4.5059,-4.4936,-4.4978,-4.5393,-4.5057,-4.4919,-4.5055,-4.5096,-4.4868,-4.441,-4.4573,-4.3961,-4.2578,-4.2317,-4.1628,-4.0633,-4.0091,-3.984,-3.9819,-3.9668,-3.9599,-3.9599,-3.9599,-3.9599,-3.9599,-3.9599,-4.009,-4.0693,-3.9901,-4.0182,-4.0862,-3.9909,-3.9709,-3.9861,-3.9984,-4.0138,-4.0285,-4.0285,-4.0389,-4.0473,-4.0339,-4.0389,-4.0473,-4.0339,-4.0285,-4.0285,-4.0285,-4.0176,-3.9967,-3.9729,-3.8532,-3.7412,-3.6992,-3.5925,-3.5088,-3.5088,-3.4745,-3.4306,-3.3851,-3.3105,-3.2333,-3.1599,-3.1479,-3.1213,-3.0475,-3.0417,-3.0467,-3.0506,-3.053,-3.0571,-3.0646,-2.9923,-2.9492,-2.9492,-2.7891,-2.7187,-2.7559,-2.6758,-2.6758,-2.7637,-2.8496,-2.9141,-2.957,-3.0488,-3.0856,-3.769,-3.8683,-3.9446,-3.8798,-3.9145,-3.9631,-3.9631,-3.9226,-3.9086,-3.9714,-3.9952,-4.007,-4.007,-4.1028,-4.1799,0.0,-4.2591,-4.3223,-4.3694,-4.3515,-4.3487,-4.3941,-4.3152,-4.3047,-4.4135,-4.3217,-4.2853,-4.367,-4.3664,-4.3905,-4.4438,-4.4553,-4.458,-4.458,-4.458,-4.4285,-4.3586,-4.3824,-4.3426,-4.2353,-4.1949,-4.1491,-4.1022,-4.0145,-3.9838,-4.0008,-3.9602,-3.9496,-3.9646,-3.9477,-3.9402,-3.9402,-3.9402,-3.9496,-3.9627,-3.9458,-3.9545,-3.9726,-3.9483,-3.9432,-3.9481,-3.9427,-3.9664,-4.0002,-4.0002,-4.0139,-4.0266,-4.0062,-4.0139,-4.0248,-4.0042,-4.0002,-4.0002,-4.0002,-3.9797,-3.9441,-3.8898,-3.7904,-3.6866,-3.6054,-3.5262,-3.4694,-3.4694,-3.4694,-3.4411,-3.3524,-3.3241,-3.2693,-3.1454,-3.1123,-3.0868,-3.0444,-3.0398,-3.0417,-3.0467,-3.0487,-3.0506,-3.0564,-3.003,-2.934,-2.8492,-2.7675,-2.6934,-2.625,-2.6074,-2.6406,-2.7285,-2.8144,-2.8926,-2.9629,-3.0488,-3.0996,-3.735,-3.7911,-3.796,-3.7902,-3.7976,-3.8017,-3.8017,0.0,-3.8908,-3.8978,-3.961,-4.007,-4.007,-4.0239,-4.0493,0.0,-4.0255,-4.0127,-4.2046,-4.1231,-4.1169,-4.3086,0.0,-4.2159,-4.4208,-4.2384,-4.1653,-4.2977,-4.2925,-4.316,-4.3998,-4.4401,-4.458,-4.458,-4.458,-4.4542,-4.4492,-4.4518,-4.4077,-4.3177,-4.3127,-4.2693,-4.1845,-4.0734,-4.0673,-4.1315,-3.9549,-3.9215,-3.9823,-3.9086,-3.8792,-3.8792,-3.8792,-3.9234,-3.9786,-3.9068,-3.9404,-4.0095,-3.9132,-3.8952,-3.9099,-3.8873,-3.9181,-3.9645,-3.9645,-3.9668,-3.969,-3.9645,-3.9668,-3.969,-3.9645,-3.9645,-3.9645,-3.9645,-3.9622,-3.9396,-3.8628,-3.7737,-3.6866,-3.6054,-3.5262,-3.4694,-3.4694,-3.4694,-3.4392,-3.3525,-3.2789,-3.2069,-3.139,-3.0605,-3.0199,-3.0386,-3.0398,-3.0398,-3.0398,-3.0398,-3.0448,-3.0506,-3.0455,-3.0064,-2.9323,-2.8527,-2.8047,-2.7969,-2.7246,-2.7305,-2.8184,-2.9062,-2.9512,-2.9629,-3.0488,-3.1328,-3.4888,-3.5919,-3.6578,-3.614,-3.626,-3.6582,-3.7006,0.0,-3.7303,-3.8646,-3.9139,-3.9408,-3.9446,-3.9428,-3.9512,-3.9834,-3.9377,-3.926,-4.0052,-4.0121,-4.0223,-4.0557,-4.0594,-4.0883,-4.1715,-4.0996,-4.0793,-4.1688,-4.1987,-4.2329,-4.2645,-4.3468,-4.3931,-4.3931,-4.3466,-4.3206,-4.3206,-4.294,-4.2772,-4.2705,-4.1866,-4.1493,-4.1449,-4.0503,-3.9981,-3.9859,-4.0055,-3.979,-3.9184,-3.935,-3.9148,-3.8707,-3.8707,-3.8909,-3.9148,-3.8817,-3.8964,-3.9287,-3.886,-3.8762,-3.8844,-3.875,-3.8862,-3.9073,-3.9257,-3.9438,-3.9552,-3.9339,-3.9438,-3.9552,-3.9339,-3.9289,-3.9289,-3.9289,-3.9189,-3.8747,-3.7617,-3.697,-3.6222,-3.489,-3.4364,-3.416,-3.416,-3.3751,-3.3324,-3.2971,-3.1819,-3.1024,-3.1049,-3.0324,-2.9973,-3.0355,-3.0398,-3.0398,-3.0398,-3.0398,-3.0398,-3.0448,-2.9982,-2.9597,-2.9293,-2.8551,-2.8149,-2.8203,-2.7891,-2.8164,-2.9082,-2.9434,-2.9863,-3.0391,-3.0742,-3.1094,-3.2932,-3.4086,-3.4947,-3.4554,-3.4655,-3.5032,0.0,0.0,-3.6119,-3.7842,-3.84,-3.857,-3.8639,-3.8654,-3.8667,-3.8667,-3.8667,-3.8639,-3.855,-3.9051,-3.9287,-3.8952,-3.9036,-3.9391,-4.0016,-4.0087,-4.0336,-4.0856,-4.1296,-4.1621,-4.181,-4.2562,-4.2977,-4.2977,-4.225,-4.1867,-4.2026,-4.1484,-4.1567,-4.2286,-4.1342,-4.1071,-4.1442,-4.0616,-3.9955,-3.946,-4.0102,-3.9882,-3.9074,-3.9405,-3.9203,-3.8707,-3.8707,-3.8707,-3.8707,-3.8707,-3.8707,-3.8707,-3.8707,-3.8707,-3.8707,-3.8707,-3.8707,-3.875,-3.8905,-3.9163,-3.9275,-3.9054,-3.9144,-3.9275,-3.9054,-3.8971,-3.8971,-3.8971,-3.8844,-3.829,-3.6877,-3.6427,-3.5789,-3.4137,-3.3807,-3.3807,-3.3807,-3.3128,-3.2522,-3.2284,-3.1091,-3.0268,-3.0433,-3.0019,-2.9848,-3.0241,-3.0355,-3.0398,-3.0398,-3.0398,-3.0398,-3.0398,-2.9867,-2.9433,-2.9183,-2.8687,-2.844,-2.8493,-2.8515,-2.8973,-2.9892,-2.9892,-3.0204,-3.081,-3.081,-3.1108,-3.2242,-3.2607,-3.2745,-3.328,-3.3255,-3.3293,-3.3883,-3.4865,-3.5778,-3.646,-3.7287,-3.7801,-3.7801,-3.7853,-3.7922,-3.7922,-3.7922,-3.79,-3.7824,-3.7817,-3.8112,-3.883,-3.7696,-3.7672,-3.988,-4.0115,-4.0336,-4.0856,-4.0903,-4.1178,-4.175,-4.181,-4.181,-4.181,-4.1091,-4.0949,-4.1412,-4.0691,-4.0996,-4.2304,-4.2286,-4.2286,-4.2268,-4.146,-4.1093,-4.1001,-3.9423,-3.9166,-3.9827,-3.9038,-3.8707,-3.8707,-3.8707,-3.8707,-3.8707,-3.8707,-3.8707,-3.8707,-3.8707,-3.8707,-3.8707,-3.8707,-3.8707,-3.8707,-3.8707,-3.8707,-3.8707,-3.8707,-3.8707,-3.8707,-3.8707,-3.8707,-3.8707,-3.8707,-3.8707,-3.8267,-3.6652,-3.6285,-3.5789,-3.4137,-3.3807,-3.3807,-3.3807,-3.3128,-3.2339,-3.1531,-3.0723,-3.0014,-2.9483,-2.957,-2.978,-2.9984,-3.0241,-3.0398,-3.0398,-3.0398,-3.0398,-3.0398,-3.0379,-3.0006,-2.914,-2.9156,-2.9194,-2.919,-2.9249,-2.9724,-3.0586,-3.0586,-3.0586,-3.0606,-3.0606,-3.1554,-2.7919,-2.9051,-3.0082,-3.0264,-3.0688,-3.1307,-3.2536,-3.3025,-3.3785,-3.5608,-3.6558,-3.7064,-3.7118,-3.7121,-3.6958,-3.6434,-3.6789,-3.6942,-3.6355,-3.7619,-3.8314,-3.7472,-3.7873,-3.876,-3.9981,-4.0104,-4.0154,-4.0319,-4.0368,-4.0417,-4.0642,-4.0642,-4.0741,-4.1055,-4.0294,-4.0233,-4.0909,-3.9626,-3.991,-4.1669,-4.0634,-4.0315,-4.0653,-4.0396,-3.9974,-3.9496,-4.0084,-3.9863,-3.9093,-3.9405,-3.9203,-3.8707,-3.8707,-3.8707,-3.8707,-3.8707,-3.8707,-3.8707,-3.8707,-3.8707,-3.8707,-3.8707,-3.8707,-3.8707,-3.8707,-3.8707,-3.8707,-3.8707,-3.8707,-3.8579,-3.801,-3.7863,-3.7734,-3.7184,-3.7055,-3.6762,-3.5661,-3.5881,-3.5789,-3.4137,-3.4247,-3.4468,-3.3899,-3.2687,-3.1678,-3.1439,-3.0246,-2.9365,-2.9409,-2.9454,-2.957,-2.9763,-3.0003,-3.0196,-3.0379,-3.0398,-3.0398,-3.0398,-3.0398,-3.0294,-3.0006,-3.0013,-3.0033,-3.0083,-3.0102,-3.0289,-3.0598,-3.0598,-3.0598,-3.0598,-3.0598,-3.0905,0.0,-2.6735,-2.7512,-2.7782,-2.8329,0.0,-3.039,-3.1251,-3.2376,-3.4372,-3.5419,-3.6055,-3.6541,-3.6412,-3.6078,-3.5761,-3.6233,-3.6429,-3.5907,-3.7419,-3.8096,-3.6901,-3.803,-3.8871,-3.8874,-3.9379,-3.9546,-3.9276,-3.9512,-3.9546,-3.9276,-3.9783,-3.9819,-3.9242,-3.9269,-3.9617,-4.033,-3.8837,-3.8961,-4.0659,-3.9424,-3.9013,-3.9347,-3.9534,-3.9163,-3.8488,-3.969,-3.9643,0.0,-3.9239,-3.9148,-3.8707,-3.8707,-3.8707,-3.8707,-3.8707,-3.8707,-3.8707,-3.8707,-3.8707,-3.8707,-3.8707,-3.8546,-3.8382,-3.8382,-3.8546,-3.8707,-3.8707,-3.8707,-3.8505,-3.7698,-3.7507,-3.7323,-3.6486,-3.6303,-3.6064,-3.5174,-3.544,-3.5422,-3.4064,-3.4211,-3.4394,-3.3899,-3.2724,-3.1751,-3.1439,-3.0283,-2.9393,-2.928,-2.933,-2.9454,-2.957,-2.9829,-3.0075,-3.0222,-3.0343,-3.0398,-3.0398,-3.0398,-3.0398,-3.0398,-3.0398,-3.0583,-3.0948,-3.0948,-3.1121,-3.1468,-3.116,-3.0852,-3.0525,-3.0544,-3.0741,0.0,-2.5389,-2.5204,-2.5746,-2.6423,-2.718,0.0,0.0,0.0,-3.2976,-3.3964,-3.4894,-3.6051,-3.5634,-3.5327,-3.5733,-3.5998,-3.6148,-3.619,-3.7037,-3.7441,-3.6932,-3.7954,-3.82,-3.6901,-3.802,-3.8518,-3.7843,-3.8417,-3.8501,-3.7874,-3.9125,-3.8971,-3.6924,-3.8193,-3.9078,-3.9502,-3.8052,-3.8032,-3.9363,-3.8602,-3.827,-3.8309,-3.8779,-3.8544,-3.7877,-3.8382,-3.8596,-3.8596,-3.8596,-3.8596,-3.8596,-3.8596,-3.8596,-3.8596,-3.8596,-3.8596,-3.8596,-3.8596,-3.8596,-3.8596,-3.8596,-3.8267,-3.7859,-3.7859,-3.8183,-3.8596,-3.8596,-3.8596,-3.8413,-3.7589,-3.7399,-3.7168,-3.638,-3.6142,-3.5904,-3.52,-3.4971,-3.4696,-3.4027,-3.3853,-3.3835,-3.3807,-3.3128,-3.2357,-3.1586,-3.0742,-2.9934,-2.9177,-2.924,-2.9372,-2.9372,-2.9712,-2.9969,-2.9984,-3.0241,-3.0398,-3.0398,-3.0398,-3.0398,-3.0398,-3.0398,-3.0794,-3.1583,-3.1679,-3.2045,-3.2718,-3.2025,-3.1256,-3.0398,-3.0467,-3.0941,-2.5612,0.0,-2.357,-2.49,-2.5349,-2.6079,0.0,0.0,0.0,0.0,0.0,-3.4281,-3.4592,-3.4735,-3.4849,-3.503,-3.4836,-3.4823,-3.5466,-3.5874,-3.6488,-3.7536,-3.6918,-3.6551,-3.6793,-3.6653,-3.6672,-3.7036,-3.6744,-3.6725,-3.7036,-3.7402,-3.7586,-3.7652,-3.7973,-3.7919,-3.7512,-3.6514,-3.6688,-3.7955,-3.7248,-3.7066,-3.7494,-3.7607,-3.7537,-3.736,-3.7487,-3.756,-3.756,-3.756,-3.756,-3.756,-3.756,-3.756,-3.756,-3.756,-3.756,-3.756,-3.756,-3.756,-3.756,-3.756,-3.7487,-3.736,-3.736,-3.7433,-3.756,-3.756,-3.756,-3.7381,-3.6524,-3.6274,-3.606,-3.5275,-3.465,-3.4429,-3.5232,-3.4677,-3.4141,-3.4649,-3.448,-3.4146,-3.3844,-3.3128,-3.254,-3.2357,-3.1109,-3.0136,-2.9953,-2.943,-2.9089,-2.9089,-2.9355,-2.9607,-2.9765,-3.0155,-3.0398,-3.0398,-3.0398,-3.0398,-3.0398,-3.0398,-3.0494,-3.0698,-3.1371,-3.1468,-3.0987,-3.1468,-3.1256,-3.0398,-3.0417,-3.0525,-2.761,-2.5143,-2.2949,-2.3421,-2.4108,-2.5038,0.0,0.0,0.0,0.0,0.0,0.0,-3.4237,-3.4603,-3.4712,-3.4615,-3.5013,-3.541,-3.5769,-3.5684,-3.5935,-3.68,-3.6188,-3.5752,-3.5811,-3.5532,-3.5336,-3.5307,-3.5287,-3.532,-3.5359,-3.5945,-3.6233,-3.5927,-3.6554,-3.7028,-3.7297,-3.6535,-3.6514,-3.7185,-3.6388,-3.6165,-3.6481,-3.6724,-3.6843,-3.6843,-3.7097,-3.719,-3.719,-3.719,-3.719,-3.7137,-3.6803,-3.6661,-3.6626,-3.6254,-3.636,-3.6661,-3.6661,-3.6909,-3.719,-3.719,-3.702,-3.6843,-3.6843,-3.6684,-3.6563,-3.7058,-3.6945,-3.6518,-3.6038,-3.5895,-3.5701,-3.4906,-3.4394,-3.4287,-3.4989,-3.4337,-3.387,-3.4558,-3.4238,-3.3839,-3.3808,-3.344,-3.2908,-3.2155,-3.1311,-3.0485,-2.9751,-2.925,-2.8994,-2.8994,-2.9225,-2.9434,-2.9551,-2.9883,-3.0174,-3.0398,-3.0398,-3.0398,-3.0398,-3.0398,-3.059,-3.0987,-3.2218,-3.2429,-3.1545,-3.2025,-3.1814,-3.0987,-3.059,-3.0398,-2.9962,-2.682,-2.3619,-2.2979,-2.3629,-2.4542,-2.4912,0.0,0.0,0.0,0.0,0.0,0.0,-3.4394,0.0,-3.43,-3.5549,-3.6434,-3.6312,-3.5795,-3.5429,-3.5382,-3.5202,-3.479,-3.4118,-3.4048,-3.3821,-3.3173,-3.3709,-3.3852,-3.3316,-3.4505,-3.4649,-3.3614,-3.4789,-3.5976,-3.723,-3.6814,-3.6603,-3.6586,-3.5943,-3.5622,-3.5622,-3.6054,-3.6266,-3.6291,-3.6764,-3.6943,-3.6943,-3.6819,-3.6767,-3.6735,-3.6048,-3.5713,-3.5537,-3.5028,-3.5169,-3.5608,-3.5608,-3.6136,-3.6767,-3.6767,-3.6556,-3.6266,-3.6266,-3.5899,-3.563,-3.6689,-3.645,-3.5922,-3.5884,-3.5846,-3.5671,-3.5021,-3.4758,-3.4705,-3.4902,-3.4251,-3.3758,-3.4361,-3.3764,-3.331,-3.3726,-3.3734,-3.3221,-3.1806,-3.1476,-3.0852,-2.9384,-2.9067,-2.8994,-2.8994,-2.9203,-2.9351,-2.9392,-2.957,-2.9832,-3.0273,-3.0286,-3.0299,-3.0343,-3.0367,-3.0814,-3.1679,-3.3083,-3.3526,-3.2891,-3.2776,-3.2372,-3.1679,-3.0814,-3.0398,-2.9774,-2.8462,-2.738,-2.7087,-2.6169,-2.5782,-2.7343,0.0,0.0,0.0,0.0,0.0,0.0,-3.2611,-3.3071,0.0,-3.4812,-3.5573,-3.5708,-3.5108,-3.4499,-3.3975,-3.2852,-3.1871,-3.1229,-3.1145,-3.1097,-3.1072,-3.1098,-3.1341,-3.1877,-3.2133,-3.2662,-3.3582,-3.3797,-3.4011,-3.4277,-3.5285,-3.5791,-3.5791,-3.5673,-3.5622,-3.5622,-3.5711,-3.5739,-3.5739,-3.581,-3.5854,-3.5803,-3.5155,-3.4925,-3.4925,-3.4763,-3.4337,-3.3843,-3.4354,-3.4218,-3.3792,-3.3792,-3.4269,-3.4925,-3.4925,-3.53,-3.5739,-3.5739,-3.5209,-3.4837,-3.564,-3.5769,-3.5684,-3.564,-3.564,-3.5606,-3.5487,-3.4959,-3.4839,-3.5913,-3.4719,-3.38,-3.507,-3.4074,-3.3194,-3.3716,-3.3522,-3.3081,-3.2507,-3.1843,-3.1054,-3.0136,-2.9439,-2.8994,-2.8994,-2.904,-2.9156,-2.9392,-2.9414,-2.9551,-2.9799,-2.9815,-2.9877,-3.0042,-3.0267,-3.0814,-3.1679,-3.1948,-3.2352,-3.2891,-3.2218,-3.1814,-3.1679,-3.0814,-3.0398,-3.0679,-3.0039,-2.962,-2.9279,-2.7764,-2.6576,-2.7197,0.0,0.0,0.0,0.0,0.0,0.0,0.0,-3.2793,-3.4267,-3.4092,-3.3871,-3.4218,-3.3711,-3.3059,-3.2442,-3.1785,-3.1177,-3.0574,-3.0479,-3.051,-3.0556,-3.0533,-3.0824,-3.1536,-3.1186,-3.1274,-3.1928,-3.2316,-3.2541,-3.2541,-3.3859,-3.4704,-3.5052,-3.5424,-3.5622,-3.5622,-3.5622,-3.5622,-3.5605,-3.5182,-3.5013,-3.4962,-3.4201,-3.3914,-3.3863,-3.3457,-3.3085,-3.2882,-3.3626,-3.3694,-3.3457,-3.3863,-3.4218,-3.4489,-3.4489,-3.5013,-3.5622,-3.5622,-3.5368,-3.5182,-3.552,-3.5318,-3.5115,-3.552,-3.5622,-3.5622,-3.5622,-3.5351,-3.5169,-3.5343,-3.4321,-3.3543,-3.4039,-3.3193,-3.2617,-3.3357,-3.3332,-3.306,-3.2672,-3.2302,-3.1604,-3.0356,-2.9879,-2.9494,-2.9049,-2.8994,-2.9044,-2.916,-2.9181,-2.9314,-2.9678,-2.9696,-2.9729,-2.9829,-2.9958,-3.0213,-3.0613,-3.1085,-3.1565,-3.2029,-3.1665,-3.1552,-3.1679,-3.0814,-3.0398,-3.1026,-3.0664,-3.0497,-3.0129,-2.8732,-2.7413,-2.7231,0.0,0.0,0.0,0.0,0.0,0.0,-3.0961,-3.1736,-3.3267,-3.2498,-3.1867,-3.2409,-3.2159,-3.1639,-3.0994,-3.0758,-3.0414,-2.9863,-2.9961,-3.0014,-2.9843,-3.0103,-3.0447,-3.0821,-3.0627,-3.0507,-3.0507,-3.1195,-3.1559,-3.1559,-3.2772,-3.3684,-3.4382,-3.5052,-3.5362,-3.5362,-3.5515,-3.552,-3.5318,-3.4742,-3.4387,-3.4201,-3.3643,-3.3305,-3.3102,-3.2696,-3.2442,-3.2381,-3.2933,-3.3136,-3.3254,-3.3981,-3.4353,-3.4489,-3.4489,-3.5013,-3.5622,-3.5622,-3.5622,-3.5622,-3.5622,-3.5199,-3.4895,-3.547,-3.5622,-3.5622,-3.5622,-3.5622,-3.547,-3.4878,-3.4184,-3.3641,-3.3546,-3.2683,-3.2317,-3.3301,-3.3232,-3.2943,-3.2645,-3.2614,-3.21,-3.0668,-3.0485,-3.0173,-2.9384,-2.9292,-2.9292,-2.9292,-2.9104,-2.9233,-2.9795,-2.9701,-2.9644,-2.9644,-2.9678,-2.9808,-2.9996,-3.0467,-3.1004,-3.1611,-3.1177,-3.124,-3.1679,-3.0814,-3.0398,-2.9686,-2.9382,-2.9556,-2.933,-2.8854,0.0,-2.9169,-2.8864,0.0,-2.9323,0.0,0.0,0.0,-2.8841,-2.8508,-2.8728,-2.9234,-2.9875,-3.06,-3.064,-3.0384,-2.9781,-2.9105,-2.846,-2.7846,-2.8396,-2.8464,-2.788,-2.8936,-2.94,-2.8846,-2.9879,-3.0507,-3.0507,-3.1177,-3.1507,-3.1507,-3.2296,-3.2986,-3.3684,-3.4333,-3.4688,-3.4688,-3.5316,-3.5233,-3.4573,-3.4506,-3.4117,-3.3491,-3.3423,-3.3,-3.2425,-3.3068,-3.2899,-3.233,-3.2341,-3.2357,-3.2459,-3.322,-3.3931,-3.4489,-3.4489,-3.5013,-3.5622,-3.5622,-3.5622,-3.5622,-3.5622,-3.5588,-3.5554,-3.5605,-3.5622,-3.5622,-3.5622,-3.5622,-3.5605,-3.5554,-3.4945,-3.4559,-3.4973,-3.3545,-3.2689,-3.4014,-3.3291,-3.2541,-3.2601,-3.2614,-3.2302,-3.1421,-3.1311,-3.0999,-3.021,-3.0118,-3.0118,-3.0118,-2.9439,-2.9329,-3.0092,-2.9697,-2.9414,-2.9414,-2.9607,-3.0072,-3.0882,-3.0166,-3.0684,-3.2504,-3.0871,-3.0647,-3.1679,-3.0814,-3.0398,-3.0391,-3.0047,-2.9962,-3.0048,0.0,0.0,0.0,-2.9335,-2.9114,-2.8976,-2.9114,0.0,0.0,-2.8505,-2.8269,-2.8256,-2.8569,-2.8562,-2.8032,-2.8636,-2.8896,-2.828,-2.831,-2.8323,-2.8174,-2.8385,-2.8464,-2.8255,-2.8682,-2.9041,-2.9205,-2.928,-2.9505,-2.9924,-3.0178,-3.0507,-3.0881,-3.1585,-3.2048,-3.2296,-3.3871,-3.4576,-3.4624,-3.5299,-3.5199,-3.4472,-3.4015,-3.3389,-3.2679,-3.2222,-3.1867,-3.163,-3.1918,-3.2408,-3.2933,-3.2459,-3.2865,-3.3626,-3.3457,-3.388,-3.4489,-3.4489,-3.5013,-3.5622,-3.5622,-3.5301,-3.4912,-3.4912,-3.4912,-3.503,-3.5504,-3.5622,-3.5622,-3.5622,-3.5622,-3.5368,-3.4438,-3.437,-3.4168,-3.294,-3.2502,-3.2483,-3.3082,-3.2811,-3.2702,-3.3259,-3.3348,-3.3054,-3.2247,-3.2155,-3.1843,-3.1017,-3.0503,-3.021,-3.021,-2.9934,-3.0099,-3.0889,-2.9807,-2.9156,-2.9156,-2.9228,-2.9421,-2.9758,-2.9439,-2.9714,-3.0603,-3.0067,-3.0095,-3.0628,-3.0477,-3.0398,-3.0306,-2.9822,-2.9763,0.0,0.0,0.0,-3.0408,-3.0003,-2.9446,-2.9286,-2.8692,-2.8247,-2.8352,0.0,-2.7642,-2.7336,-2.7227,-2.6743,-2.5593,-2.624,-2.6713,-2.6298,-2.6615,-2.7022,-2.7564,-2.758,-2.7784,-2.8269,-2.8472,-2.8712,-2.8936,-2.8921,-2.9026,-2.9265,-2.9475,-2.9789,-3.0208,-3.0687,-3.0911,-3.0911,-3.2554,-3.355,-3.3971,-3.4457,-3.4363,-3.3778,-3.3084,-3.2446,-3.1918,-3.1647,-3.1546,-3.1546,-3.1546,-3.2154,-3.3051,-3.3,-3.3626,-3.4455,-3.4201,-3.4421,-3.4844,-3.4844,-3.5199,-3.5571,-3.5334,-3.4895,-3.4438,-3.4218,-3.415,-3.432,-3.5064,-3.5453,-3.5622,-3.5622,-3.5622,-3.5284,-3.4032,-3.4134,-3.3964,-3.2222,-3.2104,-3.2366,-3.2616,-3.244,-3.2533,-3.3284,-3.3522,-3.3424,-3.2876,-3.2902,-3.2669,-3.1861,-3.1054,-3.0687,-3.0944,-3.0723,-3.0925,-3.1733,-3.0283,-2.9494,-2.9751,-2.9512,-2.936,-2.936,-2.9122,-2.9134,-2.9412,-2.9607,-2.9796,-3.0013,-3.0286,-3.0398,-2.8974,-2.842,-2.8694,0.0,0.0,0.0,-3.2442,-3.1186,-2.972,-3.0421,-2.8898,-2.7612,-2.8186,-2.72,-2.6059,-2.5298,-2.483,-2.4231,-2.348,-2.3552,-2.3701,-2.3701,-2.3701,-2.4193,-2.5495,-2.5618,-2.6148,-2.75,-2.8203,-2.8293,-2.7655,-2.8831,-2.9265,-2.8622,-2.9235,-2.9564,-2.9579,-2.9633,-2.9633,-2.9633,-3.0283,-3.129,-3.2594,-3.2609,-3.2498,-3.2327,-3.1677,-3.1308,-3.1241,-3.1968,-3.2313,-3.2313,-3.2313,-3.2313,-3.2517,-3.3931,-3.4489,-3.4607,-3.5351,-3.556,-3.5622,-3.5622,-3.5622,-3.547,-3.4726,-3.4489,-3.4336,-3.3609,-3.3389,-3.3558,-3.4286,-3.503,-3.5605,-3.5622,-3.5622,-3.5419,-3.4641,-3.4489,-3.4269,-3.3525,-3.278,-3.2457,-3.2928,-3.2345,-3.1951,-3.2417,-3.289,-3.3184,-3.3214,-3.355,-3.3495,-3.2706,-3.188,-3.1733,-3.254,-3.1861,-3.1751,-3.2577,-3.1127,-3.0577,-3.1366,-3.0613,-3.021,-3.021,-2.942,-2.9134,-2.9411,-2.9607,-2.9796,-2.9999,-3.0267,-3.0398,-3.005,-2.945,0.0,-3.0399,0.0,0.0,0.0,-3.1833,0.0,0.0,-2.896,-2.8061,-2.7736,-2.6991,-2.6177,-2.5427,-2.4382,-2.3365,-2.2287,-2.2111,-2.2366,-2.2917,-2.3363,-2.4154,-2.5471,-2.5583,-2.5961,-2.6826,-2.7066,-2.729,-2.761,-2.8,-2.8308,-2.8592,-2.8786,-2.9116,-2.9579,-3.0015,-3.021,-3.0262,-3.0438,-3.0742,-3.1218,-3.2144,-3.1987,-3.1075,-3.1298,-3.108,-3.0634,-3.1251,-3.1512,-3.1512,-3.1512,-3.2154,-3.3051,-3.2966,-3.3931,-3.525,-3.4928,-3.5182,-3.5622,-3.5622,-3.5622,-3.547,-3.4726,-3.4134,-3.3575,-3.2814,-3.2611,-3.2662,-3.2882,-3.3491,-3.432,-3.5368,-3.5622,-3.5267,-3.3998,-3.4134,-3.3964,-3.2188,-3.207,-3.2304,-3.2236,-3.1998,-3.1951,-3.2417,-3.2616,-3.2827,-3.3154,-3.3302,-3.3184,-3.2661,-3.2394,-3.2339,-3.2596,-3.2394,-3.2596,-3.3385,-3.2999,-3.232,-3.1421,-3.0081,-2.9898,-3.1017,-2.9714,-2.9315,-2.9964,-2.9653,-2.9589,-2.9796,-3.0018,-3.0209,-3.0533,-3.0246,0.0,-3.1109,-3.1123,-3.1333,-3.2715,0.0,0.0,0.0,-2.8805,-2.8387,-2.7922,-2.7345,-2.6667,-2.586,-2.4718,-2.3494,-2.2183,-2.1746,-2.1744,-2.2269,-2.2608,-2.3385,-2.4732,-2.487,-2.523,-2.6153,-2.6437,-2.6767,-2.7156,-2.7659,-2.8141,-2.8566,-2.8581,-2.8865,-2.95,-2.9635,-2.9834,-3.0064,-3.0064,-3.0049,-3.0146,-3.072,-3.0656,-3.0101,-3.0461,-3.037,-2.9995,-3.0335,-3.0617,-3.0855,-3.1156,-3.2176,-3.3389,-3.322,-3.4201,-3.5554,-3.5098,-3.5047,-3.5165,-3.5165,-3.4979,-3.4607,-3.3846,-3.3305,-3.2797,-3.2053,-3.2053,-3.2313,-3.2313,-3.2848,-3.3711,-3.4895,-3.5165,-3.4844,-3.366,-3.3981,-3.3846,-3.163,-3.1782,-3.2156,-3.1699,-3.16,-3.1677,-3.195,-3.2109,-3.24,-3.284,-3.2921,-3.2834,-3.2604,-3.2549,-3.2653,-3.2812,-3.2839,-3.3095,-3.377,-3.3201,-3.2687,-3.2357,-3.1127,-3.0742,-3.1384,-3.0136,-2.9567,-2.9732,-2.9508,-2.9474,-2.9589,-2.9877,-3.0089,-3.0432,0.0,0.0,-3.1856,-3.2529,0.0,-3.3051,-3.2178,-3.0849,-2.8952,0.0,-2.8543,-2.8338,-2.7853,-2.72,-2.6348,-2.5301,-2.4167,-2.2832,-2.2152,-2.1824,-2.1918,-2.1918,-2.2423,-2.3705,-2.3778,-2.4288,-2.5511,-2.6171,-2.6527,-2.6587,-2.7773,-2.84,-2.8338,-2.8338,-2.8592,-2.913,-2.8639,-2.8717,-2.9316,-2.9316,-2.9316,-2.9287,-2.8882,-2.8921,-2.941,-2.9311,-2.9316,-2.9316,-2.9361,-2.9717,-3.0274,-3.0958,-3.1988,-3.3246,-3.403,-3.4773,-3.5414,-3.5476,-3.5064,-3.4472,-3.4421,-3.3947,-3.3271,-3.251,-3.2313,-3.2138,-3.1393,-3.1664,-3.2188,-3.2188,-3.2696,-3.3389,-3.4117,-3.4336,-3.4201,-3.3457,-3.3829,-3.3677,-3.1596,-3.1732,-3.1968,-3.1309,-3.119,-3.119,-3.119,-3.1507,-3.1933,-3.2384,-3.2451,-3.2451,-3.2484,-3.2484,-3.2681,-3.3105,-3.3184,-3.3379,-3.3734,-3.2412,-3.2265,-3.3733,-3.2889,-3.2118,-3.1513,-3.065,-2.9843,-2.9127,-2.9283,-2.9372,-2.9412,-2.9782,-2.9969,-2.9734,-3.0279,0.0,0.0,-3.1854,-3.2222,-3.2429,-3.1816,-3.0842,-2.9483,-2.9225,-2.8746,-2.7261,-2.6894,-2.6408,-2.5196,-2.4359,-2.3789,-2.3363,-2.2727,-2.2642,-2.3541,-2.3667,-2.3967,-2.4789,-2.4508,-2.4563,-2.5354,-2.5651,-2.6048,-2.6557,-2.7349,-2.7569,-2.7055,-2.7025,-2.7073,-2.7202,-2.755,-2.8047,-2.8685,-2.8685,-2.8685,-2.8701,-2.9061,-2.9046,-2.8728,-2.8716,-2.8685,-2.8732,-2.918,-2.9496,-2.9601,-2.9746,-3.0364,-3.1258,-3.2491,-3.3416,-3.4093,-3.4577,-3.4624,-3.4387,-3.3829,-3.3541,-3.3271,-3.251,-3.2313,-3.2138,-3.1393,-3.1309,-3.1427,-3.1427,-3.1546,-3.185,-3.2577,-3.3203,-3.3423,-3.2679,-3.2645,-3.2442,-3.1393,-3.1326,-3.1376,-3.1224,-3.119,-3.119,-3.119,-3.1252,-3.1487,-3.1897,-3.1951,-3.2092,-3.2451,-3.2484,-3.255,-3.2648,-3.2983,-3.3243,-3.3332,-3.3296,-3.344,-3.3788,-3.1806,-3.1237,-3.232,-3.0925,-3.0118,-2.9953,-2.9357,-2.9181,-2.9412,-2.9474,-2.9696,-2.9735,0.0,0.0,-3.0985,0.0,-3.1316,-3.2087,-3.1704,-3.0935,-3.0021,-2.9585,-2.8837,-2.6935,-2.6587,-2.6153,-2.4837,-2.434,-2.3983,-2.3596,-2.3245,-2.3259,-2.3857,-2.3899,-2.4164,-2.4776,-2.4348,-2.4269,-2.4874,-2.5046,-2.5285,-2.563,-2.6529,-2.69,-2.655,-2.6534,-2.6673,-2.6962,-2.7007,-2.7484,-2.8446,-2.8446,-2.8451,-2.8511,-2.8543,-2.8352,-2.8091,-2.8091,-2.8091,-2.8091,-2.84,-2.8732,-2.8966,-2.8966,-2.9593,-3.0603,-3.1653,-3.2695,-3.3598,-3.3614,-3.3779,-3.3803,-3.2772,-3.2387,-3.2273,-3.1884,-3.1749,-3.1681,-3.1309,-3.1444,-3.163,-3.1275,-3.1444,-3.1715,-3.1749,-3.2324,-3.2763,-3.2357,-3.2313,-3.207,-3.1326,-3.119,-3.119,-3.119,-3.119,-3.119,-3.119,-3.119,-3.1291,-3.147,-3.1507,-3.162,-3.186,-3.1896,-3.195,-3.2144,-3.24,-3.2727,-3.3184,-3.3045,-3.3195,-3.3788,-3.2228,-3.1751,-3.2596,-3.1017,-3.021,-3.021,-2.9402,-2.9067,-2.9203,-2.9351,-2.9513,0.0,0.0,-2.961,-3.0525,-3.0537,0.0,-3.1806,-3.163,-3.1015,-3.0435,-2.9805,-2.8835,-2.6912,-2.6504,-2.5989,-2.4672,-2.4448,-2.4253,-2.3799,-2.3767,-2.3752,-2.3879,-2.3879,-2.4032,-2.4511,-2.4032,-2.3921,-2.4348,-2.4516,-2.4582,-2.4582,-2.5696,-2.63,-2.6192,-2.6176,-2.6424,-2.692,-2.6424,-2.6767,-2.7926,-2.7926,-2.7994,-2.815,-2.7644,-2.7505,-2.7625,-2.7625,-2.7625,-2.7625,-2.7625,-2.7894,-2.8319,-2.8319,-2.9028,-3.0101,-3.0895,-3.1902,-3.2847,-3.2418,-3.2626,-3.2858,-3.1586,-3.1224,-3.119,-3.119,-3.119,-3.119,-3.119,-3.163,-3.1952,-3.136,-3.1647,-3.1935,-3.1343,-3.1647,-3.2087,-3.2087,-3.2087,-3.1918,-3.1309,-3.119,-3.119,-3.119,-3.119,-3.119,-3.119,-3.119,-3.119,-3.119,-3.119,-3.119,-3.119,-3.119,-3.1312,-3.166,-3.1752,-3.2161,-3.3014,-3.2541,-3.2617,-3.3542,-3.2963,-3.2614,-3.2614,-3.1164,-3.0338,-3.021,-2.9402,-2.8994,-2.9017,-2.9225,-2.9425,0.0,0.0,-2.9508,0.0,-3.0456,-3.061,0.0,0.0,-3.1015,-3.0435,-2.9805,-2.8828,-2.6851,-2.6077,-2.53,-2.3954,-2.3729,-2.3857,-2.4241,-2.4266,-2.4471,-2.4934,-2.4989,-2.5012,-2.5105,-2.4632,-2.4307,-2.4389,-2.4516,-2.4582,-2.4582,-2.5287,-2.5469,-2.4852,-2.4837,-2.4882,-2.4957,-2.4882,-2.5244,-2.5984,-2.5984,-2.63,-2.6853,-2.6771,-2.7036,-2.7625,-2.7625,-2.7625,-2.7625,-2.7625,-2.7675,-2.771,-2.771,-2.7806,-2.8156,-2.9379,-2.9969,-3.0193,-3.0624,-3.116,-3.151,-3.0714,-3.0783,-3.119,-3.119,-3.119,-3.119,-3.119,-3.1258,-3.1309,-3.1224,-3.1258,-3.1309,-3.1207,-3.1275,-3.1343,-3.1343,-3.1343,-3.1309,-3.1207,-3.119,-3.119,-3.119,-3.119,-3.119,-3.119,-3.119,-3.119,-3.119,-3.119,-3.119,-3.119,-3.119,-3.123,-3.1291,-3.1603,-3.2022,-3.255,-3.2875,-3.2962,-3.2771,-3.2669,-3.2614,-3.2614,-3.1696,-3.0889,-3.021,-2.9402,-2.8994,-2.8994,-2.904,-2.9547,-2.7969,-2.8301,-2.8925,0.0,-2.9136,-2.9916,-3.0214,-3.0481,-3.0699,-3.0797,-3.0335,-2.9307,-2.7404,-2.6275,-2.53,-2.4328,-2.3585,-2.3187,-2.342,-2.3113,-2.2981,-2.3229,-2.3576,-2.393,-2.4205,-2.4085,-2.4074,-2.4389,-2.4167,-2.4059,-2.4059,-2.4328,-2.4343,-2.4059,-2.4059,-2.4059,-2.4059,-2.4059,-2.4388,-2.5015,-2.5435,-2.5749,-2.6048,-2.6422,-2.6946,-2.7595,-2.7186,-2.723,-2.7595,-2.7171,-2.7245,-2.7625,-2.7625,-2.7625,-2.77,-2.8652,-2.9285,-2.9601,-2.9469,-3.0069,-3.0774,-3.0032,-3.0208,-3.0757,-3.1112,-3.119,-3.119,-3.119,-3.119,-3.119,-3.119,-3.119,-3.119,-3.119,-3.119,-3.119,-3.119,-3.119,-3.119,-3.119,-3.119,-3.119,-3.119,-3.119,-3.119,-3.119,-3.119,-3.119,-3.119,-3.119,-3.119,-3.119,-3.119,-3.119,-3.119,-3.1351,-3.164,-3.2057,-3.2298,-3.2567,-3.2928,-3.2938,-3.2821,-3.2588,-3.1806,-3.1219,-3.087,-3.0063,-2.9677,-2.9659,-2.9195,-2.9747,0.0,0.0,-2.8408,-2.7541,-2.8307,-2.9267,0.0,-2.9761,-3.0208,-3.0658,-3.0251,-2.9408,-2.7999,-2.6826,-2.5801,-2.4986,-2.3873,-2.3184,-2.3184,-2.2578,-2.2118,-2.2118,-2.2578,-2.3048,-2.3449,-2.3406,-2.3659,-2.4362,-2.3759,-2.3495,-2.3849,-2.3684,-2.3595,-2.3595,-2.3595,-2.3595,-2.3595,-2.3595,-2.3864,-2.4328,-2.4866,-2.5196,-2.5375,-2.5869,-2.6452,-2.7051,-2.6722,-2.6871,-2.729,-2.6797,-2.6976,-2.7625,-2.7625,-2.7625,-2.7685,-2.8143,-2.8652,-2.9008,-2.8514,-2.9073,-2.9956,-2.9521,-2.9717,-3.0208,-3.0975,-3.1095,-3.1015,-3.1151,-3.119,-3.119,-3.119,-3.119,-3.1151,-3.1015,-3.0975,-3.1015,-3.1151,-3.119,-3.119,-3.119,-3.119,-3.119,-3.119,-3.119,-3.119,-3.119,-3.119,-3.119,-3.119,-3.119,-3.119,-3.119,-3.119,-3.119,-3.119,-3.119,-3.1389,-3.1789,-3.1915,-3.2244,-3.2865,-3.3194,-3.313,-3.2606,-3.2008,-3.1494,-3.1091,-3.0283,-3.0008,-3.0191,-2.9586,-3.0173,0.0,-2.8521,0.0,-2.8596,-2.8772,0.0,0.0,-2.9406,-2.9451,-2.9496,-2.8996,-2.8543,-2.8465,-2.7876,-2.7011,-2.5753,-2.4911,-2.4431,-2.4431,-2.3755,-2.3296,-2.3296,-2.3348,-2.3348,-2.3399,-2.2939,-2.3189,-2.4422,-2.3418,-2.3287,-2.4492,-2.3954,-2.3595,-2.3595,-2.3595,-2.3595,-2.3595,-2.3595,-2.3625,-2.3655,-2.3684,-2.4044,-2.4627,-2.4672,-2.5091,-2.5749,-2.6333,-2.6617,-2.6632,-2.6602,-2.6976,-2.7625,-2.7625,-2.7625,-2.7625,-2.767,-2.767,-2.772,-2.767,-2.8039,-2.8685,-2.9241,-2.9406,-2.9673,-3.0838,-3.0797,-3.0477,-3.1055,-3.119,-3.119,-3.119,-3.119,-3.1055,-3.0477,-3.0351,-3.0518,-3.1072,-3.119,-3.119,-3.119,-3.119,-3.119,-3.119,-3.119,-3.119,-3.119,-3.119,-3.119,-3.119,-3.119,-3.119,-3.119,-3.119,-3.119,-3.119,-3.119,-3.1389,-3.1789,-3.2196,-3.236,-3.2072,-3.3149,-3.3395,-3.2632,-3.2577,-3.1788,-3.0265,-2.9457,-2.9457,-3.021,-3.0173,-3.0999,0.0,0.0,0.0,-2.881,-2.9062,-2.9201,-2.8469,-2.8505,-2.8561,-2.8073,-2.7832,-2.7569,-2.7164,-2.7015,-2.6612,-2.5692,-2.4655,-2.3729,-2.3237,-2.2578,-2.2159,-2.2159,-2.2524,-2.2777,-2.2777,-2.2943,-2.3312,-2.3738,-2.3398,-2.3554,-2.449,-2.388,-2.3774,-2.4209,-2.3819,-2.3595,-2.3595,-2.3595,-2.3595,-2.3595,-2.3595,-2.3729,-2.3984,-2.4373,-2.4522,-2.4358,-2.5031,-2.557,-2.5989,-2.6422,-2.6722,-2.6976,-2.741,-2.7625,-2.7565,-2.7096,-2.6946,-2.6946,-2.6946,-2.7079,-2.7479,-2.8498,-2.8513,-2.8397,-2.9659,-2.9583,-2.9221,-2.9848,-3.0293,-3.0518,-3.0166,-3.0335,-3.0477,-2.9865,-2.9717,-2.9761,-2.9995,-3.0658,-3.119,-3.119,-3.119,-3.119,-3.119,-3.119,-3.119,-3.119,-3.119,-3.119,-3.119,-3.119,-3.119,-3.119,-3.119,-3.119,-3.119,-3.119,-3.1252,-3.1411,-3.1582,-3.1864,-3.2321,-3.2729,-3.2846,-3.2588,-3.21,-3.1549,-3.0962,-3.0173,-3.0173,-3.0962,-3.0448,-3.1347,-2.9678,0.0,0.0,0.0,-2.9144,-2.9016,-2.851,-2.7973,-2.7476,-2.6926,-2.6711,-2.6356,-2.568,-2.5893,-2.6017,-2.5521,-2.4551,-2.3663,-2.3118,-2.2475,-2.2046,-2.2046,-2.2419,-2.2618,-2.2618,-2.2878,-2.3205,-2.3676,-2.3324,-2.3475,-2.4416,-2.3837,-2.3703,-2.4187,-2.3629,-2.3377,-2.3595,-2.3385,-2.3385,-2.3595,-2.3385,-2.34,-2.361,-2.4073,-2.4029,-2.364,-2.4328,-2.4821,-2.5315,-2.5749,-2.6063,-2.6303,-2.6737,-2.6916,-2.6856,-2.6422,-2.6258,-2.6303,-2.6512,-2.6437,-2.6459,-2.775,-2.7704,-2.7411,-2.8672,-2.8745,-2.8592,-2.9233,-2.9673,-2.9908,-2.9496,-2.954,-2.9585,-2.918,-2.9104,-2.9104,-2.9104,-3.0038,-3.0878,-3.0878,-3.1055,-3.119,-3.119,-3.119,-3.119,-3.119,-3.119,-3.119,-3.119,-3.119,-3.119,-3.119,-3.119,-3.119,-3.119,-3.119,-3.119,-3.119,-3.1312,-3.164,-3.223,-3.2583,-3.2762,-3.2812,-3.2159,-3.1806,-3.1806,-3.0448,-3.0485,-3.177,-3.098,-3.1751,0.0,0.0,0.0,0.0,-2.9012,-2.8405,-2.9397,-2.789,-2.6204,-2.6015,-2.5612,-2.4995,-2.4165,-2.47,-2.5287,-2.5287,-2.4738,-2.4292,-2.4292,-2.3603,-2.3078,-2.3078,-2.3078,-2.3078,-2.3078,-2.2648,-2.284,-2.4195,-2.3113,-2.2977,-2.4338,-2.3788,-2.3423,-2.3469,-2.2933,-2.2965,-2.3551,-2.2939,-2.2966,-2.3522,-2.2966,-2.2996,-2.3565,-2.3595,-2.3595,-2.364,-2.4313,-2.4552,-2.4552,-2.4597,-2.5016,-2.5585,-2.56,-2.5615,-2.5615,-2.5585,-2.5585,-2.5674,-2.6318,-2.6108,-2.5768,-2.7042,-2.7023,-2.6753,-2.7981,-2.8336,-2.8544,-2.9148,-2.9345,-2.9361,-2.9361,-2.8919,-2.8463,-2.8463,-2.8463,-2.8463,-2.8463,-2.9406,-3.0251,-3.0251,-3.0757,-3.1168,-3.1151,-3.1168,-3.1185,-3.119,-3.119,-3.119,-3.119,-3.119,-3.119,-3.119,-3.119,-3.119,-3.119,-3.119,-3.119,-3.119,-3.1565,-3.1789,-3.1789,-3.2663,-3.3184,-3.3214,-3.2794,-3.2588,-3.2632,-3.0246,-3.0301,-3.2596,-3.1825,-3.2302,-3.0042,0.0,0.0,0.0,0.0,0.0,-2.7998,-2.6824,-2.551,-2.4037,-2.2915,-2.2075,-2.1649,-2.2299,-2.2882,-2.2882,-2.3669,-2.4118,-2.3543,-2.3245,-2.3078,-2.3078,-2.3078,-2.3078,-2.3078,-2.3,-2.3022,-2.3412,-2.3132,-2.3296,-2.4313,-2.3837,-2.3349,-2.2874,-2.2281,-2.2039,-2.2225,-2.2061,-2.2076,-2.2236,-2.2574,-2.2813,-2.2936,-2.3385,-2.3595,-2.361,-2.3804,-2.3879,-2.3954,-2.4941,-2.5166,-2.4896,-2.542,-2.5615,-2.5555,-2.5076,-2.4896,-2.4881,-2.5106,-2.5,-2.5001,-2.5831,-2.5679,-2.5302,-2.6108,-2.6397,-2.6514,-2.7174,-2.8029,-2.8732,-2.8732,-2.8319,-2.786,-2.786,-2.786,-2.786,-2.786,-2.8448,-2.9134,-2.9585,-3.0182,-3.0465,-2.9989,-3.0635,-3.1132,-3.0601,-3.0918,-3.119,-3.119,-3.119,-3.119,-3.119,-3.119,-3.119,-3.119,-3.119,-3.119,-3.119,-3.1291,-3.1507,-3.1789,-3.2057,-3.25,-3.3184,-3.2542,-3.2602,-3.3458,-3.1623,-3.1384,-3.2614,-3.2963,-3.3366,-3.0209,-3.0089,0.0,-2.9713,0.0,0.0,-2.8411,-2.7135,-2.5619,-2.3737,-2.2217,-2.1011,-2.0202,-2.0417,-2.0917,-2.129,-2.2139,-2.2822,-2.3065,-2.3078,-2.3078,-2.3078,-2.3078,-2.3078,-2.3078,-2.3078,-2.3078,-2.3078,-2.3078,-2.3305,-2.3767,-2.3352,-2.2898,-2.2542,-2.1984,-2.1561,-2.1351,-2.1072,-2.0996,-2.1054,-2.1138,-2.1591,-2.2359,-2.2728,-2.3169,-2.3595,-2.3595,-2.3595,-2.364,-2.4163,-2.4313,-2.4238,-2.4627,-2.4777,-2.4717,-2.4343,-2.4193,-2.4238,-2.4477,-2.4403,-2.4313,-2.4971,-2.4941,-2.4657,-2.5076,-2.539,-2.5749,-2.6408,-2.7346,-2.814,-2.814,-2.786,-2.7625,-2.7625,-2.7625,-2.7625,-2.7625,-2.786,-2.8319,-2.8919,-2.9559,-2.984,-2.947,-3.0233,-3.0744,-3.0359,-3.0797,-3.119,-3.119,-3.119,-3.119,-3.119,-3.119,-3.119,-3.119,-3.119,-3.119,-3.119,-3.119,-3.1329,-3.1545,-3.1733,-3.2057,-3.2598,-3.2534,-3.2936,-3.3807,-3.2173,-3.1806,-3.2632,-3.344,-3.3807,0.0,0.0,0.0,-3.0128,-2.9532,0.0,-2.9654,-2.8127,-2.611,-2.4451,-2.2771,-2.1087,-1.9533,-1.9188,-1.9415,-2.022,-2.0415,-2.1095,-2.275,-2.2944,-2.3017,-2.3078,-2.3078,-2.3078,-2.3078,-2.3078,-2.3078,-2.3078,-2.3078,-2.3078,-2.3078,-2.2548,-2.2267,-2.2281,-2.1694,-2.1183,-2.0671,-2.0086,-1.9844,-1.9889,-1.935,-1.9964,-2.1585,-2.1744,-2.2338,-2.3299,-2.3316,-2.3316,-2.3255,-2.2661,-2.2882,-2.3595,-2.352,-2.3535,-2.3595,-2.3595,-2.3595,-2.3684,-2.4298,-2.4118,-2.3699,-2.4313,-2.4462,-2.4462,-2.4462,-2.5031,-2.5764,-2.6497,-2.7126,-2.7625,-2.7625,-2.7625,-2.7625,-2.7625,-2.7625,-2.7625,-2.7625,-2.7625,-2.776,-2.8286,-2.8889,-2.9275,-2.9196,-2.9782,-3.0205,-3.0225,-3.0699,-3.1112,-3.119,-3.119,-3.119,-3.119,-3.119,-3.119,-3.119,-3.119,-3.119,-3.119,-3.119,-3.119,-3.119,-3.1528,-3.1752,-3.1789,-3.2727,-3.3379,-3.3734,-3.2357,-3.2027,-3.2761,-3.3476,-3.3807,-3.1448,-3.0905,-3.0439,-3.0935,-3.0399,0.0,-2.9138,-2.7723,-2.6099,-2.4553,-2.2617,-2.0752,-1.9179,-1.9022,-1.9017,-1.8558,-1.9368,-2.0506,-2.1942,-2.2125,-2.2384,-2.3005,-2.3078,-2.3078,-2.3078,-2.3078,-2.3078,-2.3078,-2.3078,-2.3078,-2.3078,-2.2184,-2.165,-2.1703,-2.0701,-1.9902,-1.94,-1.9232,-1.8963,-1.8585,-1.8947,-1.9294,-1.9684,-2.0664,-2.1224,-2.1436,-2.1439,-2.1425,-2.1393,-2.0827,-2.1787,-2.355,-2.3056,-2.3161,-2.3595,-2.3595,-2.3595,-2.3625,-2.3744,-2.3714,-2.3625,-2.3759,-2.3804,-2.3804,-2.3804,-2.4642,-2.5854,-2.7036,-2.752,-2.7625,-2.7625,-2.7625,-2.7625,-2.7625,-2.7625,-2.7625,-2.7625,-2.7625,-2.761,-2.776,-2.8299,-2.8596,-2.8035,-2.8912,-2.9643,-2.9576,-3.0081,-3.0658,-3.1151,-3.119,-3.119,-3.119,-3.119,-3.119,-3.119,-3.119,-3.119,-3.119,-3.119,-3.119,-3.119,-3.1291,-3.147,-3.1771,-3.2727,-3.3243,-3.3302,-3.3323,-3.3403,-3.3568,-3.3733,-3.3807,-3.1814,-3.1398,-3.1174,-3.1468,-3.0808,0.0,0.0,-2.8658,-2.7443,-2.5768,-2.428,-2.2763,-2.113,-2.0507,-2.0006,-1.9413,-1.931,-1.9746,-2.0913,-2.1163,-2.1428,-2.1803,-2.2249,-2.2506,-2.2506,-2.2884,-2.3078,-2.3078,-2.3078,-2.3078,-2.3078,-2.2611,-2.2058,-2.1506,-2.0941,-1.9999,-1.8631,-1.8601,-1.8164,-1.7359,-1.7663,-1.8133,-1.8725,-1.935,-1.9929,-2.0486,-2.0494,-2.0496,-2.0444,-1.9866,-2.0486,-2.1845,-2.1808,-2.2214,-2.2759,-2.3046,-2.3325,-2.3595,-2.3595,-2.3595,-2.3595,-2.3595,-2.3595,-2.3595,-2.3595,-2.4537,-2.5749,-2.6408,-2.7066,-2.7625,-2.7625,-2.7625,-2.7625,-2.7625,-2.7625,-2.7625,-2.7625,-2.7625,-2.7625,-2.7625,-2.7844,-2.7979,-2.7685,-2.8366,-2.9091,-2.9364,-2.9892,-3.0518,-3.1112,-3.119,-3.119,-3.119,-3.119,-3.119,-3.119,-3.119,-3.119,-3.119,-3.119,-3.119,-3.119,-3.119,-3.1389,-3.1789,-3.2264,-3.2727,-3.3214,-3.339,-3.3606,-3.3807,-3.3807,-3.3807,-3.216,-3.1955,-3.2051,-3.2225,-3.1475,-3.0655,0.0,0.0,0.0,-2.732,-2.6274,-2.5207,-2.3615,-2.2588,-2.1773,-2.1197,-2.0195,-1.9771,-2.0439,-2.0721,-2.0854,-2.0951,-2.1537,-2.2017,-2.2113,-2.2702,-2.3078,-2.3078,-2.3078,-2.3078,-2.3078,-2.2977,-2.2523,-2.1518,-2.138,-2.0376,-1.838,-1.8254,-1.7689,-1.6685,-1.6572,-1.6995,-1.7968,-1.8087,-1.8642,-1.9555,-1.9592,-1.9578,-1.9513,-1.8878,-1.8918,-1.9482,-2.0231,-2.0982,-2.1629,-2.2027,-2.2551,-2.3083,-2.3083,-2.3171,-2.3216,-2.3216,-2.3319,-2.3509,-2.3865,-2.4657,-2.548,-2.5734,-2.6557,-2.74,-2.723,-2.738,-2.7595,-2.746,-2.7535,-2.758,-2.746,-2.7535,-2.758,-2.741,-2.738,-2.7475,-2.7595,-2.7993,-2.8559,-2.9134,-2.9717,-3.0335,-3.0958,-3.1151,-3.119,-3.119,-3.119,-3.119,-3.119,-3.119,-3.1258,-3.1393,-3.141,-3.141,-3.141,-3.1275,-3.1351,-3.1696,-3.1752,-3.223,-3.3075,-3.3154,-3.3408,-3.3807,-3.3807,-3.3807,-3.3006,-3.2776,-3.2968,-3.3737,-3.3256,-3.2334,-3.1384,0.0,-3.0075,-2.8517,0.0,-2.6264,-2.4994,0.0,0.0,-2.2992,-2.2513,-2.2194,-2.1904,-2.1774,-2.1753,-2.208,-2.2163,-2.2409,-2.2895,-2.3078,-2.3078,-2.3078,-2.3078,-2.3078,-2.3078,-2.2673,-2.2121,-2.1506,-2.1016,-2.0175,-1.8895,-1.8455,-1.7903,-1.7275,-1.676,-1.659,-1.6708,-1.727,-1.754,-1.762,-1.7668,-1.7678,-1.758,-1.7037,-1.685,-1.7081,-1.8699,-1.9712,-2.0314,-2.0357,-2.0735,-2.1223,-2.1223,-2.1513,-2.1932,-2.1932,-2.2331,-2.3138,-2.4832,-2.5076,-2.4986,-2.6153,-2.6587,-2.6572,-2.5989,-2.6692,-2.7475,-2.6841,-2.7141,-2.746,-2.6826,-2.7156,-2.7395,-2.6811,-2.6692,-2.6886,-2.752,-2.766,-2.791,-2.8511,-2.9134,-2.9717,-3.0335,-3.0878,-3.119,-3.119,-3.119,-3.119,-3.119,-3.119,-3.1461,-3.2121,-3.2195,-3.2195,-3.2195,-3.1546,-3.123,-3.1252,-3.164,-3.2057,-3.2583,-3.3014,-3.3408,-3.3807,-3.3807,-3.3807,-3.2539,-3.2936,-3.3692,-3.3544,-3.3231,-3.2833,-3.2401,-3.1757,-3.1047,-3.0242,0.0,0.0,0.0,0.0,0.0,0.0,-2.5556,-2.5118,-2.4745,-2.4152,-2.3272,-2.2135,-2.2401,-2.2824,-2.3053,-2.3078,-2.3078,-2.3078,-2.3078,-2.3078,-2.3078,-2.2912,-2.2209,-2.0929,-2.1088,-2.0279,-1.8384,-1.8585,-1.8242,-1.7388,-1.7137,-1.6848,-1.6522,-1.6773,-1.6865,-1.685,-1.686,-1.6865,-1.6837,-1.6595,-1.6522,-1.6577,-1.7294,-1.8195,-1.9105,-1.939,-1.992,-2.0418,-2.0418,-2.0806,-2.1315,-2.16,-2.1899,-2.2338,-2.356,-2.3992,-2.4244,-2.5193,-2.5734,-2.5959,-2.5674,-2.6303,-2.6841,-2.6183,-2.6527,-2.6916,-2.6647,-2.6512,-2.6467,-2.6572,-2.6288,-2.6108,-2.6378,-2.6752,-2.7372,-2.8354,-2.8996,-2.9629,-3.0208,-3.0838,-3.119,-3.119,-3.119,-3.119,-3.119,-3.119,-3.1495,-3.2263,-3.2313,-3.2313,-3.2313,-3.1579,-3.119,-3.119,-3.1389,-3.1677,-3.2092,-3.2298,-3.2631,-3.3057,-3.3578,-3.3662,-3.2372,-3.3301,-3.4408,-3.355,-3.3506,-3.3615,-3.3384,-3.284,-3.2257,-3.1828,-3.1968,0.0,0.0,0.0,-3.1231,-2.9719,0.0,-2.8001,-2.7559,-2.6909,-2.5633,-2.3313,-2.3376,-2.3475,-2.3125,-2.3078,-2.3078,-2.3078,-2.3078,-2.3078,-2.3078,-2.3078,-2.2318,-2.0604,-2.1149,-2.0489,-1.8329,-1.8744,-1.8555,-1.7601,-1.7451,-1.7074,-1.6522,-1.6522,-1.6522,-1.6522,-1.6522,-1.6522,-1.6522,-1.6522,-1.6522,-1.6522,-1.6522,-1.705,-1.7847,-1.8257,-1.8818,-1.9374,-1.9551,-1.994,-2.0489,-2.1247,-2.1363,-2.1437,-2.2409,-2.3062,-2.3569,-2.4189,-2.4819,-2.53,-2.5106,-2.5689,-2.6153,-2.5495,-2.5839,-2.6273,-2.6093,-2.5809,-2.5689,-2.5989,-2.5674,-2.539,-2.557,-2.6004,-2.6672,-2.7806,-2.8482,-2.9182,-2.9962,-3.0576,-3.1015,-3.119,-3.119,-3.119,-3.119,-3.1376,-3.1799,-3.2544,-3.2594,-3.2493,-3.229,-3.1579,-3.119,-3.119,-3.1393,-3.1615,-3.1789,-3.2033,-3.2177,-3.235,-3.3442,-3.3694,-3.3103,-3.4141,-3.5257,-3.4372,-3.4795,-3.5199,-3.4353,-3.4141,-3.3872,-3.3026,-3.2859,-3.2859,-3.2788,-3.2661,-3.2637,-3.29,-3.177,0.0,0.0,-2.9852,-2.8992,-2.6471,-2.5545,-2.4576,-2.3233,-2.3078,-2.3078,-2.3078,-2.3078,-2.3078,-2.3078,-2.3078,-2.2431,-2.0997,-2.1334,-2.0791,-1.9353,-1.9125,-1.8744,-1.8179,-1.7639,-1.7074,-1.6522,-1.6522,-1.6522,-1.6522,-1.6522,-1.6522,-1.6522,-1.6522,-1.6522,-1.6522,-1.6522,-1.6522,-1.6547,-1.659,-1.6955,-1.7566,-1.8062,-1.8604,-1.9256,-2.0414,-2.0475,-2.0414,-2.2165,-2.2715,-2.2853,-2.3519,-2.4141,-2.4462,-2.3834,-2.4642,-2.548,-2.4761,-2.5166,-2.5465,-2.4776,-2.5181,-2.542,-2.4761,-2.4627,-2.4821,-2.5495,-2.563,-2.5869,-2.6576,-2.7194,-2.7997,-2.9281,-2.9951,-3.0559,-3.1151,-3.119,-3.119,-3.119,-3.1833,-3.256,-3.3322,-3.3372,-3.3034,-3.2307,-3.1579,-3.119,-3.119,-3.1884,-3.2127,-3.1789,-3.2587,-3.257,-3.1861,-3.3595,-3.3954,-3.2942,-3.418,-3.5295,-3.441,-3.4853,-3.543,-3.5141,-3.4603,-3.4122,-3.3814,-3.3757,-3.3583,-3.3006,-3.3325,-3.37,-3.3823,-3.3277,-3.2845,0.0,-3.2328,-3.1131,-2.8887,-2.7055,-2.5411,-2.4047,-2.3081,-2.2736,-2.3053,-2.2799,-2.2749,-2.3053,-2.258,-2.1689,-2.0354,-2.0028,-1.9286,-1.7991,-1.8487,-1.8343,-1.7472,-1.7756,-1.7438,-1.6522,-1.6522,-1.6522,-1.6522,-1.6522,-1.6522,-1.6522,-1.6522,-1.6522,-1.6522,-1.6522,-1.6522,-1.6522,-1.6522,-1.6635,-1.6886,-1.7463,-1.8028,-1.8616,-1.9355,-1.9747,-2.0126,-2.1615,-2.2019,-2.2282,-2.3347,-2.3807,-2.3894,-2.3655,-2.4283,-2.4792,-2.4103,-2.4462,-2.4896,-2.4627,-2.4448,-2.4343,-2.4537,-2.4253,-2.4014,-2.4238,-2.4657,-2.533,-2.6422,-2.7514,-2.8326,-2.8748,-2.9316,-2.9761,-2.9995,-3.0393,-3.0601,-3.0601,-3.1631,-3.2594,-3.3355,-3.2933,-3.2763,-3.3017,-3.2307,-3.1918,-3.1918,-3.2645,-3.2727,-3.2144,-3.24,-3.2161,-3.1428,-3.2877,-3.3244,-3.2865,-3.418,-3.5295,-3.441,-3.4853,-3.5493,-3.5493,-3.5064,-3.4737,-3.5026,-3.4853,-3.4584,-3.4295,-3.4243,-3.432,-3.4622,-3.428,-3.4208,0.0,-3.3836,-3.2535,-3.1274,-2.8801,-2.666,-2.5149,-2.4266,-2.3806,-2.3917,-2.3541,-2.3221,-2.3075,-2.2298,-2.1214,-1.9742,-1.9338,-1.855,-1.7423,-1.8014,-1.7775,-1.6764,-1.7472,-1.7254,-1.6194,-1.638,-1.6522,-1.6522,-1.6522,-1.6522,-1.6522,-1.6522,-1.6522,-1.6522,-1.6522,-1.6522,-1.6522,-1.6522,-1.6647,-1.6911,-1.7476,-1.7903,-1.8329,-1.9058,-1.9409,-1.9699,-2.0739,-2.1315,-2.1885,-2.2696,-2.326,-2.3595,-2.3595,-2.3924,-2.4148,-2.3699,-2.3939,-2.4253,-2.4253,-2.3909,-2.3729,-2.4178,-2.3909,-2.3684,-2.3924,-2.4522,-2.527,-2.6108,-2.717,-2.801,-2.8432,-2.9046,-2.9515,-2.9729,-3.0554,-3.1269,-3.1748,-3.2614,-3.3169,-3.3389,-3.3186,-3.2933,-3.2628,-3.2391,-3.2313,-3.2313,-3.2763,-3.2763,-3.2313,-3.2313,-3.1901,-3.1207,-3.2038,-3.2437]}]]